[[{"header":{"parameterUnit":"m.s-1","parameterCategory":1,"la1":31.0,"la2":29.5877,"lo1":-88.7671,"lo2":-86.6584,"dy":0.0162,"dx":0.0185,"nx":115,"ny":88,"refTime":"2023-10-27T06:00:00:Z","depth":0,"parameterNumber":2,"parameterNumberName":"U-component_of_WINDS"},"data":[0.0,0.0,0.0,0.0,0.0,0.0,0.0,0.0,0.0,0.0,0.0,0.0,0.0,0.0,0.0,0.0,0.0,0.0,0.0,0.0,0.0,0.0,0.0,0.0,0.0,0.0,0.0,0.0,0.0,0.0,0.0,0.0,0.0,0.0,0.0,0.0,0.0,0.0,0.0,0.0,0.0,0.0,0.0,0.0,0.0,0.0,0.0,0.0,0.0,0.0,0.0,0.0,0.0,0.0,0.0,0.0,0.0,0.0,0.0,0.0,0.0,0.0,0.0,0.0,0.0,0.0,0.0,0.0,0.0,0.0,0.0,0.0,0.0,0.0,0.0,0.0,0.0,0.0,0.0,0.0,0.0,0.0,0.0,0.0,0.0,0.0,0.0,0.0,0.0,0.0,0.0,0.0,0.0,0.0,0.0,0.0,0.0,0.0,0.0,0.0,0.0,0.0,0.0,0.0,0.0,0.0,0.0,0.0,0.0,0.0,0.0,0.0,0.0,0.0,0.0,0.0,0.0,0.0,0.0,0.0,0.0,0.0,0.0,0.0,0.0,0.0,0.0,0.0,0.0,0.0,0.0,0.0,0.0,0.0,0.0,0.0,0.0,0.0,0.0,0.0,0.0,0.0,0.0,0.0,0.0,0.0,0.0,0.0,0.0,0.0,0.0,0.0,0.0,0.0,0.0,0.0,0.0,0.0,0.0,0.0,0.0,0.0,0.0,0.0,0.0,0.0,0.0,0.0,0.0,0.0,0.0,0.0,0.0,0.0,0.0,0.0,0.0,0.0,0.0,0.0,0.0,0.0,0.0,0.0,0.0,0.0,0.0,0.0,0.0,0.0,0.0,0.0,0.0,0.0,0.0,0.0,0.0,0.0,0.0,0.0,0.0,0.0,0.0,0.0,0.0,0.0,0.0,0.0,0.0,0.0,0.0,0.0,0.0,0.0,0.0,0.0,0.0,0.0,0.0,0.0,0.0,0.0,0.0,0.0,0.0,0.0,0.0,0.0,0.0,0.0,0.0,0.0,0.0,0.0,0.0,0.0,0.0,0.0,0.0,0.0,0.0,0.0,0.0,0.0,0.0,0.0,0.0,0.0,0.0,0.0,0.0,0.0,0.0,0.0,0.0,0.0,0.0,0.0,0.0,0.0,0.0,0.0,0.0,0.0,0.0,0.0,0.0,0.0,0.0,0.0,0.0,0.0,0.0,0.0,0.0,0.0,0.0,0.0,0.0,0.0,0.0,0.0,0.0,0.0,0.0,0.0,0.0,0.0,0.0,0.0,0.0,0.0,0.0,0.0,0.0,0.0,0.0,0.0,0.0,0.0,0.0,0.0,0.0,0.0,0.0,0.0,0.0,0.0,0.0,0.0,0.0,0.0,0.0,0.0,0.0,0.0,0.0,0.0,0.0,0.0,0.0,0.0,0.0,0.0,0.0,0.0,0.0,0.0,0.0,0.0,0.0,0.0,0.0,0.0,0.0,0.0,0.0,0.0,0.0,0.0,0.0,0.0,0.0,0.0,0.0,0.0,0.0,0.0,0.0,0.0,0.0,0.0,0.0,0.0,0.0,0.0,0.0,0.0,0.0,0.0,0.0,0.0,0.0,0.0,0.0,0.0,0.0,0.0,0.0,0.0,0.0,0.0,0.0,0.0,0.0,0.0,0.0,0.0,0.0,0.0,0.0,0.0,0.0,0.0,0.0,0.0,0.0,0.0,0.0,0.0,0.0,0.0,0.0,0.0,0.0,0.0,0.0,0.0,0.0,0.0,0.0,0.0,0.0,0.0,0.0,0.0,0.0,0.0,0.0,0.0,0.0,0.0,0.0,0.0,0.0,0.0,0.0,0.0,0.0,0.0,0.0,0.0,0.0,0.0,0.0,0.0,0.0,0.0,0.0,0.0,0.0,0.0,0.0,0.0,0.0,0.0,0.0,0.0,0.0,0.0,0.0,0.0,0.0,0.0,0.0,0.0,0.0,0.0,0.0,0.0,0.0,0.0,0.0,0.0,0.0,0.0,0.0,0.0,0.0,0.0,0.0,0.0,0.0,0.0,0.0,0.0,0.0,0.0,0.0,0.0,0.0,0.0,0.0,0.0,0.0,0.0,0.0,0.0,0.0,0.0,0.0,0.0,0.0,0.0,0.0,0.0,0.0,0.0,0.0,0.0,0.0,0.0,0.0,0.0,0.0,0.0,0.0,0.0,0.0,0.0,0.0,0.0,0.0,0.0,0.0,0.0,0.0,0.0,0.0,0.0,0.0,0.0,0.0,0.0,0.0,0.0,0.0,0.0,0.0,0.0,0.0,0.0,0.0,0.0,0.0,0.0,0.0,0.0,0.0,0.0,0.0,0.0,0.0,0.0,0.0,0.0,0.0,0.0,0.0,0.0,0.0,0.0,0.0,0.0,0.0,0.0,0.0,0.0,0.0,0.0,0.0,0.0,0.0,0.0,0.0,0.0,0.0,0.0,0.0,0.0,0.0,0.0,0.0,0.0,0.0,0.0,0.0,0.0,0.0,0.0,0.0,0.0,0.0,0.0,0.0,0.0,0.0,0.0,0.0,0.0,0.0,0.0,0.0,0.0,0.0,0.0,0.0,0.0,0.0,0.0,0.0,0.0,0.0,0.0,0.0,0.0,0.0,0.0,0.0,0.0,0.0,0.0,0.0,0.0,0.0,0.0,0.0,0.0,0.0,0.0,0.0,0.0,0.0,0.0,0.0,0.0,0.0,0.0,0.0,0.0,0.0,0.0,0.0,0.0,0.0,0.0,0.0,0.0,0.0,0.0,0.0,0.0,0.0,0.0,0.0,0.0,0.0,0.0,0.0,0.0,0.0,0.0,0.0,0.0,0.0,0.0,0.0,0.0,0.0,0.0,0.0,0.0,0.0,0.0,0.0,0.0,0.0,0.0,0.0,0.0,0.0,0.0,0.0,0.0,0.0,0.0,0.0,0.0,0.0,0.0,0.0,0.0,0.0,0.0,0.0,0.0,0.0,0.0,0.0,0.0,0.0,0.0,0.0,0.0,0.0,0.0,0.0,0.0,0.0,0.0,0.0,0.0,0.0,0.0,0.0,0.0,0.0,0.0,0.0,0.0,0.0,0.0,0.0,0.0,0.0,0.0,0.0,0.0,0.0,0.0,0.0,0.0,0.0,0.0,0.0,0.0,0.0,0.0,0.0,0.0,0.0,0.0,0.0,0.0,0.0,0.0,0.0,0.0,0.0,0.0,0.0,0.0,0.0,0.0,0.0,0.0,0.0,0.0,0.0,0.0,0.0,0.0,0.0,0.0,0.0,0.0,0.0,0.0,0.0,0.0,0.0,0.0,0.0,0.0,0.0,0.0,0.0,0.0,0.0,0.0,0.0,0.0,0.0,0.0,0.0,0.0,0.0,0.0,0.0,0.0,0.0,0.0,0.0,0.0,0.0,0.0,0.0,0.0,0.0,0.0,0.0,0.0,0.0,0.0,0.0,0.0,0.0,0.0,0.0,0.0,0.0,0.0,0.0,0.0,0.0,0.0,0.0,0.0,0.0,0.0,0.0,0.0,0.0,0.0,0.0,0.0,0.0,0.0,0.0,0.0,0.0,0.0,0.0,0.0,0.0,0.0,0.0,0.0,0.0,0.0,0.0,0.0,0.0,0.0,0.0,0.0,0.0,0.0,0.0,0.0,0.0,0.0,0.0,0.0,0.0,0.0,0.0,0.0,0.0,0.0,0.0,0.0,0.0,0.0,0.0,0.0,0.0,0.0,0.0,0.0,0.0,0.0,0.0,0.0,0.0,0.0,0.0,0.0,0.0,0.0,0.0,0.0,0.0,0.0,0.0,0.0,0.0,0.0,0.0,0.0,0.0,0.0,0.0,0.0,0.0,0.0,0.0,0.0,0.0,0.0,0.0,0.0,0.0,0.0,0.0,0.0,0.0,0.0,0.0,0.0,0.0,0.0,0.0,0.0,0.0,0.0,0.0,0.0,0.0,0.0,0.0,0.0,0.0,0.0,0.0,0.0,0.0,0.0,0.0,0.0,0.0,0.0,0.0,0.0,0.0,0.0,0.0,0.0,0.0,0.0,0.0,0.0,0.0,0.0,0.0,0.0,0.0,0.0,0.0,0.0,0.0,0.0,0.0,0.0,0.0,0.0,0.0,0.0,0.0,0.0,0.0,0.0,0.0,0.0,0.0,0.0,0.0,0.0,0.0,0.0,0.0,0.0,0.0,0.0,0.0,0.0,0.0,0.0,0.0,0.0,0.0,0.0,0.0,0.0,0.0,0.0,6.6914,0.0,0.0,0.0,0.0,0.0,0.0,0.0,0.0,0.0,0.0,0.0,0.0,0.0,0.0,0.0,0.0,0.0,0.0,0.0,0.0,0.0,0.0,0.0,0.0,0.0,0.0,0.0,0.0,0.0,0.0,0.0,0.0,0.0,0.0,0.0,0.0,0.0,0.0,0.0,0.0,0.0,0.0,0.0,0.0,0.0,0.0,0.0,0.0,0.0,0.0,0.0,0.0,0.0,0.0,0.0,0.0,0.0,0.0,0.0,0.0,0.0,0.0,0.0,0.0,0.0,0.0,0.0,0.0,0.0,0.0,0.0,0.0,0.0,0.0,0.0,0.0,0.0,0.0,0.0,0.0,0.0,0.0,0.0,0.0,0.0,0.0,0.0,0.0,0.0,0.0,0.0,0.0,0.0,0.0,0.0,0.0,0.0,0.0,0.0,0.0,0.0,0.0,0.0,0.0,0.0,0.0,0.0,0.0,0.0,0.0,6.6914,6.6914,6.6914,6.6914,6.6914,0.0,0.0,0.0,0.0,0.0,0.0,0.0,0.0,0.0,0.0,0.0,0.0,0.0,0.0,0.0,0.0,0.0,0.0,0.0,0.0,0.0,0.0,0.0,0.0,0.0,0.0,0.0,0.0,0.0,0.0,0.0,0.0,0.0,0.0,0.0,0.0,0.0,0.0,0.0,0.0,0.0,0.0,0.0,0.0,0.0,0.0,0.0,0.0,0.0,0.0,0.0,0.0,0.0,0.0,0.0,0.0,0.0,0.0,0.0,0.0,0.0,0.0,0.0,0.0,0.0,0.0,0.0,0.0,0.0,0.0,0.0,0.0,0.0,0.0,0.0,0.0,0.0,0.0,0.0,0.0,0.0,0.0,0.0,0.0,0.0,0.0,0.0,0.0,0.0,0.0,0.0,0.0,0.0,0.0,0.0,0.0,0.0,0.0,0.0,0.0,0.0,0.0,0.0,0.0,0.0,0.0,0.0,0.0,0.0,0.0,0.0,0.0,6.6914,6.6914,6.6914,0.0,0.0,0.0,0.0,0.0,0.0,0.0,0.0,0.0,0.0,0.0,0.0,0.0,0.0,0.0,0.0,0.0,0.0,0.0,0.0,0.0,0.0,0.0,0.0,0.0,0.0,0.0,0.0,0.0,0.0,0.0,0.0,0.0,0.0,0.0,0.0,0.0,0.0,0.0,0.0,0.0,0.0,0.0,0.0,0.0,0.0,0.0,0.0,0.0,0.0,0.0,0.0,0.0,0.0,0.0,0.0,0.0,0.0,0.0,0.0,0.0,0.0,0.0,0.0,0.0,0.0,0.0,0.0,0.0,0.0,0.0,0.0,0.0,0.0,0.0,0.0,0.0,0.0,0.0,0.0,0.0,0.0,0.0,0.0,0.0,0.0,0.0,0.0,0.0,0.0,0.0,0.0,0.0,0.0,0.0,0.0,0.0,0.0,0.0,0.0,0.0,0.0,0.0,0.0,0.0,0.0,0.0,0.0,0.0,0.0,6.6914,6.6914,6.6914,0.0,6.6914,0.0,0.0,0.0,0.0,0.0,0.0,0.0,0.0,0.0,0.0,0.0,0.0,0.0,0.0,0.0,0.0,0.0,0.0,0.0,0.0,0.0,0.0,0.0,0.0,0.0,0.0,0.0,0.0,0.0,0.0,0.0,0.0,0.0,0.0,0.0,0.0,0.0,0.0,0.0,0.0,0.0,0.0,0.0,0.0,0.0,0.0,0.0,0.0,0.0,0.0,0.0,0.0,0.0,0.0,0.0,0.0,0.0,0.0,0.0,0.0,0.0,0.0,0.0,0.0,0.0,0.0,0.0,0.0,0.0,0.0,0.0,0.0,0.0,0.0,0.0,0.0,0.0,0.0,0.0,0.0,0.0,0.0,0.0,0.0,0.0,0.0,0.0,0.0,0.0,0.0,0.0,0.0,0.0,0.0,0.0,0.0,0.0,0.0,0.0,0.0,0.0,0.0,0.0,0.0,0.0,0.0,0.0,0.0,0.0,0.0,6.6914,6.6914,6.6914,6.6914,0.0,0.0,0.0,0.0,0.0,0.0,0.0,0.0,0.0,0.0,0.0,0.0,0.0,0.0,0.0,0.0,0.0,0.0,0.0,0.0,0.0,0.0,0.0,0.0,0.0,0.0,0.0,0.0,0.0,0.0,0.0,0.0,0.0,0.0,0.0,0.0,0.0,0.0,0.0,0.0,0.0,0.0,0.0,0.0,0.0,0.0,0.0,0.0,0.0,0.0,0.0,0.0,0.0,0.0,0.0,0.0,0.0,0.0,0.0,0.0,0.0,0.0,0.0,0.0,0.0,0.0,0.0,0.0,0.0,0.0,0.0,0.0,0.0,0.0,0.0,0.0,0.0,0.0,0.0,0.0,0.0,0.0,0.0,0.0,0.0,0.0,0.0,0.0,0.0,0.0,0.0,0.0,0.0,0.0,0.0,0.0,0.0,0.0,0.0,0.0,0.0,0.0,0.0,0.0,0.0,0.0,0.0,0.0,0.0,0.0,6.6912,6.6913,6.6913,6.6913,6.6913,6.6913,0.0,0.0,0.0,0.0,0.0,0.0,0.0,0.0,0.0,0.0,0.0,0.0,0.0,0.0,0.0,0.0,0.0,0.0,0.0,0.0,0.0,0.0,0.0,0.0,0.0,0.0,0.0,0.0,0.0,0.0,0.0,0.0,0.0,0.0,0.0,0.0,0.0,0.0,0.0,0.0,0.0,0.0,0.0,0.0,0.0,0.0,0.0,0.0,0.0,0.0,0.0,0.0,0.0,0.0,0.0,0.0,0.0,0.0,0.0,0.0,0.0,0.0,0.0,0.0,0.0,0.0,0.0,0.0,0.0,0.0,0.0,0.0,0.0,0.0,0.0,0.0,0.0,0.0,0.0,0.0,0.0,0.0,0.0,0.0,0.0,0.0,0.0,0.0,0.0,0.0,0.0,0.0,0.0,0.0,0.0,0.0,0.0,0.0,0.0,0.0,0.0,0.0,0.0,0.0,0.0,0.0,0.0,0.0,6.6879,6.6897,6.6904,6.6904,6.6904,6.6904,0.0,0.0,0.0,0.0,0.0,0.0,0.0,0.0,0.0,0.0,0.0,0.0,0.0,0.0,0.0,0.0,0.0,0.0,0.0,0.0,0.0,0.0,0.0,0.0,0.0,0.0,0.0,0.0,0.0,0.0,0.0,0.0,0.0,0.0,0.0,0.0,0.0,0.0,0.0,0.0,0.0,0.0,0.0,0.0,0.0,0.0,0.0,0.0,0.0,0.0,0.0,0.0,0.0,0.0,0.0,0.0,0.0,0.0,0.0,0.0,0.0,0.0,0.0,0.0,0.0,0.0,0.0,0.0,0.0,0.0,0.0,0.0,0.0,0.0,0.0,0.0,0.0,0.0,0.0,0.0,0.0,0.0,0.0,0.0,0.0,0.0,0.0,0.0,0.0,0.0,0.0,0.0,0.0,0.0,0.0,0.0,0.0,0.0,0.0,0.0,0.0,0.0,0.0,0.0,0.0,0.0,0.0,0.0,0.0,6.6836,6.6882,6.6887,6.6887,6.6887,6.6887,0.0,0.0,0.0,0.0,0.0,0.0,0.0,0.0,0.0,0.0,0.0,0.0,0.0,0.0,0.0,0.0,0.0,0.0,0.0,0.0,0.0,0.0,0.0,0.0,0.0,0.0,0.0,0.0,0.0,0.0,0.0,0.0,0.0,0.0,0.0,0.0,0.0,0.0,0.0,0.0,0.0,0.0,0.0,0.0,0.0,0.0,0.0,0.0,0.0,0.0,0.0,0.0,0.0,0.0,0.0,0.0,0.0,0.0,0.0,0.0,0.0,0.0,0.0,0.0,0.0,0.0,0.0,0.0,0.0,0.0,0.0,0.0,0.0,0.0,0.0,0.0,0.0,0.0,0.0,0.0,0.0,0.0,0.0,0.0,0.0,0.0,0.0,0.0,0.0,0.0,0.0,0.0,0.0,0.0,0.0,0.0,0.0,0.0,0.0,0.0,0.0,0.0,0.0,0.0,0.0,0.0,0.0,0.0,0.0,6.6797,0.0,6.6875,6.6875,6.6875,6.6875,0.0,0.0,0.0,0.0,0.0,0.0,0.0,0.0,0.0,0.0,0.0,0.0,0.0,0.0,0.0,0.0,0.0,0.0,0.0,0.0,0.0,0.0,0.0,0.0,0.0,0.0,0.0,0.0,0.0,0.0,0.0,0.0,0.0,0.0,0.0,0.0,0.0,0.0,0.0,0.0,0.0,0.0,0.0,0.0,0.0,0.0,0.0,0.0,0.0,0.0,0.0,0.0,0.0,0.0,0.0,0.0,0.0,0.0,0.0,0.0,0.0,0.0,0.0,0.0,0.0,0.0,0.0,0.0,0.0,0.0,0.0,0.0,0.0,0.0,0.0,0.0,0.0,0.0,0.0,0.0,0.0,0.0,0.0,0.0,0.0,0.0,0.0,0.0,0.0,0.0,0.0,0.0,0.0,0.0,0.0,0.0,0.0,0.0,0.0,0.0,0.0,0.0,0.0,0.0,0.0,0.0,0.0,0.0,6.6797,6.6797,6.6797,6.6797,6.6797,6.6797,6.6797,0.0,0.0,0.0,0.0,0.0,0.0,0.0,0.0,0.0,0.0,0.0,0.0,0.0,0.0,0.0,0.0,0.0,0.0,0.0,0.0,0.0,0.0,0.0,0.0,0.0,0.0,0.0,0.0,0.0,0.0,0.0,0.0,0.0,0.0,0.0,0.0,0.0,0.0,0.0,0.0,0.0,0.0,0.0,0.0,0.0,0.0,0.0,0.0,0.0,0.0,0.0,0.0,0.0,0.0,0.0,0.0,0.0,0.0,0.0,0.0,0.0,0.0,0.0,0.0,0.0,0.0,0.0,0.0,0.0,0.0,0.0,0.0,0.0,0.0,0.0,0.0,0.0,0.0,0.0,0.0,0.0,0.0,0.0,0.0,0.0,0.0,0.0,0.0,0.0,0.0,0.0,0.0,0.0,0.0,0.0,0.0,0.0,0.0,0.0,0.0,0.0,0.0,0.0,0.0,0.0,0.0,0.0,0.0,0.0,6.6797,6.6797,6.6797,6.6797,6.6797,6.6797,0.0,0.0,0.0,0.0,0.0,0.0,0.0,0.0,0.0,0.0,0.0,0.0,0.0,0.0,0.0,0.0,0.0,0.0,0.0,0.0,0.0,0.0,0.0,0.0,0.0,0.0,0.0,0.0,0.0,0.0,0.0,0.0,0.0,0.0,0.0,0.0,0.0,0.0,0.0,0.0,0.0,0.0,0.0,0.0,0.0,0.0,0.0,0.0,0.0,0.0,0.0,0.0,0.0,0.0,0.0,0.0,0.0,0.0,0.0,0.0,0.0,0.0,0.0,0.0,0.0,0.0,0.0,0.0,0.0,0.0,0.0,0.0,0.0,0.0,0.0,0.0,0.0,0.0,0.0,0.0,0.0,0.0,0.0,0.0,0.0,0.0,0.0,0.0,0.0,0.0,0.0,0.0,0.0,0.0,0.0,0.0,0.0,0.0,0.0,0.0,0.0,0.0,0.0,0.0,0.0,0.0,0.0,0.0,0.0,6.6796,6.6797,6.6797,6.6797,6.6797,6.6797,6.6797,0.0,0.0,0.0,0.0,0.0,0.0,0.0,0.0,0.0,0.0,0.0,0.0,0.0,0.0,0.0,0.0,0.0,0.0,0.0,0.0,0.0,0.0,0.0,0.0,0.0,0.0,0.0,0.0,0.0,0.0,0.0,0.0,0.0,0.0,0.0,0.0,0.0,0.0,0.0,0.0,0.0,0.0,0.0,0.0,0.0,0.0,0.0,0.0,0.0,0.0,0.0,0.0,0.0,0.0,0.0,0.0,0.0,0.0,0.0,0.0,0.0,0.0,0.0,0.0,0.0,0.0,0.0,0.0,0.0,0.0,0.0,0.0,0.0,0.0,0.0,0.0,0.0,0.0,0.0,0.0,0.0,0.0,0.0,0.0,0.0,0.0,0.0,0.0,0.0,0.0,0.0,0.0,0.0,0.0,0.0,0.0,0.0,0.0,0.0,0.0,0.0,0.0,0.0,0.0,0.0,0.0,0.0,0.0,6.6796,6.6797,6.6797,6.6797,6.6797,6.6797,0.0,0.0,0.0,0.0,0.0,0.0,0.0,0.0,0.0,0.0,0.0,0.0,0.0,0.0,0.0,0.0,0.0,0.0,0.0,0.0,0.0,0.0,0.0,0.0,0.0,0.0,0.0,0.0,0.0,0.0,0.0,0.0,0.0,0.0,0.0,0.0,0.0,0.0,0.0,0.0,0.0,0.0,0.0,0.0,0.0,0.0,0.0,0.0,0.0,0.0,0.0,0.0,0.0,0.0,0.0,0.0,0.0,0.0,0.0,0.0,0.0,0.0,0.0,0.0,0.0,0.0,0.0,0.0,0.0,0.0,0.0,0.0,0.0,0.0,0.0,0.0,0.0,0.0,0.0,0.0,0.0,0.0,0.0,0.0,0.0,0.0,0.0,0.0,0.0,0.0,0.0,0.0,0.0,0.0,0.0,0.0,0.0,0.0,0.0,0.0,0.0,0.0,0.0,0.0,0.0,0.0,0.0,0.0,0.0,6.6794,6.6797,6.6797,6.6797,6.6797,6.6797,0.0,0.0,0.0,0.0,0.0,0.0,0.0,0.0,0.0,0.0,0.0,0.0,0.0,0.0,0.0,0.0,0.0,0.0,0.0,0.0,0.0,0.0,0.0,0.0,0.0,0.0,0.0,0.0,0.0,0.0,0.0,0.0,0.0,0.0,0.0,0.0,0.0,0.0,0.0,0.0,0.0,0.0,0.0,0.0,0.0,0.0,0.0,0.0,0.0,0.0,0.0,0.0,0.0,0.0,0.0,0.0,0.0,0.0,0.0,0.0,0.0,0.0,0.0,0.0,0.0,0.0,0.0,0.0,0.0,0.0,0.0,0.0,0.0,0.0,0.0,0.0,0.0,0.0,0.0,0.0,0.0,0.0,0.0,0.0,0.0,0.0,0.0,0.0,0.0,0.0,0.0,0.0,0.0,0.0,0.0,0.0,0.0,0.0,0.0,0.0,0.0,0.0,0.0,0.0,0.0,0.0,0.0,0.0,6.6643,6.6795,6.6797,6.6797,6.6797,6.6797,6.6785,0.0,0.0,0.0,0.0,0.0,0.0,0.0,0.0,0.0,0.0,0.0,0.0,0.0,0.0,0.0,0.0,0.0,0.0,0.0,0.0,0.0,0.0,0.0,0.0,0.0,0.0,0.0,0.0,0.0,0.0,0.0,0.0,0.0,0.0,0.0,0.0,0.0,0.0,0.0,0.0,0.0,0.0,0.0,0.0,0.0,0.0,0.0,0.0,0.0,0.0,0.0,0.0,0.0,0.0,0.0,0.0,0.0,0.0,0.0,0.0,0.0,0.0,0.0,0.0,0.0,0.0,0.0,0.0,0.0,0.0,0.0,0.0,0.0,0.0,0.0,0.0,0.0,0.0,0.0,0.0,0.0,0.0,0.0,0.0,0.0,0.0,0.0,0.0,0.0,0.0,0.0,0.0,0.0,0.0,0.0,0.0,0.0,0.0,0.0,0.0,0.0,0.0,0.0,0.0,0.0,0.0,0.0,0.0,6.6642,6.6795,6.6797,6.6797,6.6797,6.6797,6.6731,0.0,0.0,0.0,0.0,0.0,0.0,0.0,0.0,0.0,0.0,0.0,0.0,0.0,0.0,0.0,0.0,0.0,0.0,0.0,0.0,0.0,0.0,0.0,0.0,0.0,0.0,0.0,0.0,0.0,0.0,0.0,0.0,0.0,0.0,0.0,0.0,0.0,0.0,0.0,0.0,0.0,0.0,0.0,0.0,0.0,0.0,0.0,0.0,0.0,0.0,0.0,0.0,0.0,0.0,0.0,0.0,0.0,0.0,0.0,0.0,0.0,0.0,0.0,0.0,0.0,0.0,0.0,0.0,0.0,0.0,0.0,0.0,0.0,0.0,0.0,0.0,0.0,0.0,0.0,0.0,0.0,0.0,0.0,0.0,0.0,0.0,0.0,0.0,0.0,0.0,0.0,0.0,0.0,0.0,0.0,0.0,0.0,0.0,0.0,0.0,0.0,0.0,0.0,0.0,0.0,0.0,0.0,0.0,6.6682,6.6795,6.6797,6.6797,6.6797,6.6797,6.6791,0.0,0.0,0.0,0.0,0.0,0.0,0.0,0.0,0.0,0.0,0.0,0.0,0.0,0.0,0.0,0.0,0.0,0.0,0.0,0.0,0.0,0.0,0.0,0.0,0.0,0.0,0.0,0.0,0.0,0.0,0.0,0.0,0.0,0.0,0.0,0.0,0.0,0.0,0.0,0.0,0.0,0.0,0.0,0.0,0.0,0.0,0.0,0.0,6.5915,0.0,0.0,0.0,0.0,0.0,0.0,0.0,0.0,0.0,0.0,0.0,0.0,0.0,0.0,0.0,0.0,0.0,0.0,0.0,0.0,0.0,0.0,0.0,0.0,0.0,0.0,0.0,0.0,0.0,0.0,0.0,0.0,0.0,0.0,0.0,0.0,0.0,0.0,0.0,0.0,0.0,0.0,0.0,0.0,0.0,0.0,0.0,0.0,0.0,0.0,0.0,0.0,0.0,0.0,0.0,0.0,0.0,0.0,0.0,6.6463,6.6564,6.6566,6.6628,6.6706,6.6708,6.6709,0.0,0.0,0.0,0.0,0.0,0.0,0.0,0.0,0.0,0.0,0.0,0.0,0.0,0.0,0.0,0.0,0.0,0.0,0.0,0.0,0.0,0.0,0.0,0.0,0.0,0.0,0.0,0.0,0.0,0.0,0.0,0.0,0.0,0.0,0.0,0.0,0.0,0.0,0.0,0.0,0.0,0.0,0.0,0.0,0.0,0.0,0.0,0.0,0.0,0.0,0.0,0.0,0.0,0.0,0.0,0.0,0.0,0.0,0.0,0.0,0.0,0.0,0.0,0.0,0.0,0.0,0.0,0.0,0.0,0.0,0.0,0.0,0.0,0.0,0.0,0.0,0.0,0.0,0.0,0.0,0.0,0.0,0.0,0.0,0.0,0.0,0.0,0.0,0.0,0.0,0.0,0.0,0.0,0.0,0.0,0.0,0.0,0.0,0.0,0.0,0.0,0.0,0.0,0.0,0.0,0.0,0.0,6.6274,6.6274,6.6274,6.6274,6.6375,6.6562,6.6567,6.6575,0.0,0.0,0.0,0.0,0.0,0.0,0.0,0.0,0.0,0.0,0.0,0.0,0.0,0.0,0.0,0.0,0.0,0.0,0.0,0.0,0.0,0.0,0.0,0.0,0.0,0.0,0.0,0.0,0.0,0.0,0.0,0.0,0.0,0.0,0.0,0.0,0.0,0.0,0.0,6.5967,6.5981,0.0,0.0,0.0,0.0,0.0,0.0,0.0,0.0,6.59,0.0,0.0,0.0,0.0,0.0,0.0,0.0,0.0,0.0,0.0,0.0,0.0,0.0,0.0,0.0,0.0,0.0,0.0,0.0,0.0,0.0,0.0,0.0,0.0,0.0,0.0,0.0,0.0,0.0,0.0,0.0,0.0,0.0,0.0,0.0,0.0,0.0,0.0,0.0,0.0,0.0,0.0,0.0,0.0,0.0,0.0,0.0,0.0,0.0,0.0,0.0,0.0,0.0,0.0,0.0,0.0,6.6271,6.6274,6.6274,6.6274,6.6274,6.6324,6.6349,6.6349,6.6446,6.6586,0.0,0.0,0.0,0.0,0.0,0.0,0.0,0.0,0.0,0.0,0.0,0.0,0.0,0.0,0.0,0.0,0.0,0.0,0.0,0.0,0.0,0.0,0.0,0.0,0.0,0.0,0.0,0.0,0.0,0.0,0.0,0.0,0.0,0.0,0.0,0.0,0.0,0.0,0.0,6.598,6.5987,0.0,0.0,0.0,0.0,0.0,0.0,0.0,0.0,6.59,0.0,0.0,0.0,0.0,0.0,0.0,0.0,0.0,0.0,0.0,0.0,0.0,0.0,0.0,0.0,0.0,0.0,0.0,0.0,0.0,0.0,0.0,0.0,0.0,0.0,0.0,0.0,0.0,0.0,0.0,0.0,0.0,0.0,0.0,0.0,0.0,0.0,0.0,0.0,0.0,0.0,0.0,0.0,0.0,0.0,0.0,0.0,0.0,0.0,0.0,0.0,0.0,0.0,0.0,0.0,6.6159,6.6113,6.6109,6.6206,6.6112,6.6158,6.6302,6.6225,6.6258,0.0,0.0,0.0,0.0,0.0,0.0,0.0,0.0,0.0,0.0,0.0,0.0,0.0,0.0,0.0,0.0,0.0,0.0,0.0,0.0,0.0,0.0,0.0,0.0,0.0,0.0,0.0,0.0,0.0,0.0,0.0,0.0,0.0,0.0,0.0,0.0,0.0,0.0,0.0,0.0,6.594,6.5981,6.59,0.0,0.0,0.0,0.0,0.0,0.0,6.59,6.59,0.0,0.0,0.0,0.0,0.0,0.0,0.0,0.0,0.0,0.0,0.0,0.0,0.0,0.0,0.0,0.0,0.0,0.0,0.0,0.0,0.0,0.0,0.0,0.0,0.0,0.0,0.0,0.0,0.0,0.0,0.0,0.0,0.0,0.0,0.0,0.0,0.0,0.0,0.0,0.0,0.0,0.0,0.0,0.0,0.0,0.0,0.0,0.0,0.0,0.0,0.0,0.0,0.0,0.0,0.0,6.6066,6.5968,6.5962,6.6062,6.597,6.6017,6.6194,6.6094,6.6105,0.0,0.0,0.0,0.0,0.0,0.0,0.0,0.0,0.0,0.0,0.0,0.0,0.0,0.0,0.0,0.0,0.0,0.0,0.0,0.0,0.0,0.0,0.0,0.0,0.0,0.0,0.0,0.0,0.0,0.0,0.0,0.0,0.0,0.0,0.0,0.0,0.0,0.0,0.0,0.0,0.0,6.5941,6.5902,6.59,0.0,0.0,0.0,0.0,6.59,6.59,0.0,0.0,0.0,0.0,0.0,0.0,0.0,0.0,0.0,0.0,0.0,0.0,0.0,0.0,0.0,0.0,0.0,0.0,0.0,0.0,0.0,0.0,0.0,0.0,0.0,0.0,0.0,0.0,0.0,0.0,0.0,0.0,0.0,0.0,0.0,0.0,0.0,0.0,0.0,0.0,0.0,0.0,0.0,0.0,0.0,0.0,0.0,0.0,0.0,0.0,0.0,0.0,0.0,0.0,0.0,0.0,6.5946,6.5916,6.5916,6.5906,6.5919,6.593,6.5952,6.5921,6.5987,0.0,0.0,0.0,0.0,0.0,0.0,0.0,0.0,0.0,0.0,0.0,0.0,0.0,0.0,0.0,0.0,0.0,0.0,0.0,0.0,0.0,0.0,0.0,0.0,0.0,0.0,0.0,0.0,0.0,0.0,0.0,0.0,0.0,0.0,0.0,0.0,0.0,0.0,0.0,0.0,0.0,6.5902,6.59,6.59,6.59,0.0,0.0,0.0,6.59,6.59,0.0,0.0,0.0,0.0,0.0,0.0,0.0,0.0,0.0,0.0,0.0,0.0,0.0,0.0,0.0,0.0,0.0,0.0,0.0,0.0,0.0,0.0,0.0,0.0,0.0,0.0,0.0,0.0,0.0,0.0,0.0,0.0,0.0,0.0,0.0,0.0,0.0,0.0,0.0,0.0,0.0,0.0,0.0,0.0,0.0,0.0,0.0,0.0,0.0,0.0,0.0,0.0,0.0,0.0,0.0,6.59,6.5902,6.6362,6.663,6.676,6.7129,6.7352,6.7424,6.6865,6.6608,0.0,0.0,0.0,0.0,0.0,0.0,0.0,0.0,0.0,0.0,0.0,0.0,0.0,0.0,0.0,0.0,0.0,0.0,0.0,0.0,0.0,0.0,0.0,0.0,0.0,0.0,0.0,0.0,0.0,0.0,0.0,0.0,0.0,0.0,0.0,0.0,0.0,0.0,0.0,0.0,0.0,0.0,6.5902,6.59,0.0,0.0,0.0,6.59,6.59,0.0,0.0,0.0,0.0,0.0,0.0,0.0,0.0,0.0,0.0,0.0,0.0,0.0,0.0,0.0,0.0,0.0,0.0,0.0,0.0,0.0,0.0,0.0,0.0,0.0,0.0,0.0,0.0,0.0,0.0,0.0,0.0,0.0,0.0,0.0,0.0,0.0,0.0,0.0,0.0,0.0,0.0,0.0,0.0,0.0,0.0,0.0,0.0,0.0,0.0,0.0,0.0,0.0,0.0,0.0,0.0,0.0,6.6208,6.7016,6.7496,6.7669,6.8149,6.8451,6.8554,6.781,0.0,0.0,0.0,0.0,0.0,0.0,0.0,0.0,0.0,0.0,0.0,0.0,0.0,0.0,0.0,0.0,0.0,0.0,0.0,0.0,0.0,0.0,0.0,0.0,0.0,0.0,0.0,0.0,0.0,0.0,0.0,0.0,0.0,0.0,0.0,0.0,0.0,0.0,0.0,0.0,0.0,0.0,6.5941,6.5902,6.59,6.59,0.0,0.0,6.59,6.59,6.59,6.59,0.0,0.0,0.0,0.0,0.0,0.0,0.0,0.0,0.0,0.0,0.0,0.0,0.0,0.0,0.0,0.0,0.0,0.0,0.0,0.0,0.0,0.0,0.0,0.0,0.0,0.0,0.0,0.0,0.0,0.0,0.0,0.0,0.0,0.0,0.0,0.0,0.0,0.0,0.0,0.0,0.0,0.0,0.0,0.0,0.0,0.0,0.0,0.0,0.0,0.0,0.0,0.0,0.0,0.0,0.0,6.7056,6.7856,6.8326,6.8342,6.8363,6.8401,6.8416,6.8326,6.8313,0.0,0.0,0.0,0.0,0.0,0.0,0.0,0.0,0.0,0.0,0.0,0.0,0.0,0.0,0.0,0.0,0.0,0.0,0.0,0.0,0.0,0.0,0.0,0.0,0.0,0.0,0.0,0.0,0.0,0.0,0.0,0.0,0.0,0.0,0.0,0.0,0.0,0.0,0.0,0.0,0.0,6.5902,6.59,6.59,6.59,0.0,0.0,6.59,6.59,6.59,6.59,6.59,0.0,0.0,0.0,0.0,0.0,0.0,0.0,0.0,0.0,0.0,0.0,0.0,0.0,0.0,0.0,0.0,0.0,0.0,0.0,0.0,0.0,0.0,0.0,0.0,0.0,0.0,0.0,0.0,0.0,0.0,0.0,0.0,0.0,0.0,0.0,0.0,0.0,0.0,0.0,0.0,0.0,0.0,0.0,0.0,0.0,0.0,0.0,0.0,0.0,0.0,0.0,0.0,0.0,6.7364,6.7896,6.8781,6.9202,6.9201,6.9662,6.9935,6.9935,6.9472,6.9204,0.0,0.0,0.0,0.0,0.0,0.0,0.0,0.0,0.0,0.0,0.0,0.0,0.0,0.0,0.0,0.0,0.0,0.0,0.0,0.0,0.0,0.0,0.0,0.0,0.0,0.0,0.0,0.0,6.59,6.59,6.59,0.0,0.0,0.0,0.0,0.0,0.0,0.0,0.0,0.0,0.0,6.59,6.59,6.59,0.0,0.0,6.59,6.59,6.59,6.59,6.59,6.59,6.59,0.0,0.0,0.0,0.0,0.0,0.0,0.0,0.0,0.0,0.0,0.0,0.0,0.0,0.0,0.0,0.0,0.0,0.0,0.0,0.0,0.0,0.0,0.0,0.0,0.0,0.0,0.0,0.0,0.0,0.0,0.0,0.0,0.0,0.0,0.0,0.0,0.0,0.0,0.0,0.0,0.0,0.0,0.0,0.0,0.0,0.0,0.0,0.0,0.0,0.0,0.0,0.0,6.8169,6.8779,6.9625,7.0052,7.005,7.0591,7.0897,7.0897,7.0358,7.0052,0.0,0.0,0.0,0.0,0.0,0.0,0.0,0.0,0.0,0.0,0.0,0.0,0.0,0.0,0.0,0.0,0.0,0.0,0.0,0.0,0.0,0.0,0.0,0.0,0.0,0.0,0.0,0.0,6.59,6.59,6.59,0.0,0.0,0.0,0.0,0.0,0.0,0.0,0.0,0.0,0.0,6.59,6.59,6.59,6.59,6.59,6.59,6.59,6.59,6.59,6.59,6.59,0.0,0.0,0.0,0.0,0.0,0.0,0.0,0.0,0.0,0.0,0.0,0.0,0.0,0.0,0.0,0.0,0.0,0.0,0.0,0.0,0.0,0.0,0.0,0.0,0.0,0.0,0.0,0.0,0.0,0.0,6.59,0.0,0.0,0.0,0.0,0.0,0.0,0.0,0.0,0.0,0.0,0.0,0.0,0.0,0.0,0.0,0.0,0.0,0.0,0.0,0.0,0.0,0.0,0.0,6.9704,7.0437,7.0858,7.0858,7.0897,7.0897,7.0897,7.0858,7.0858,7.0862,0.0,0.0,0.0,0.0,0.0,0.0,0.0,0.0,0.0,0.0,0.0,0.0,0.0,0.0,0.0,0.0,0.0,0.0,0.0,0.0,0.0,0.0,0.0,0.0,0.0,0.0,6.59,6.59,6.59,0.0,0.0,0.0,0.0,0.0,0.0,0.0,0.0,0.0,0.0,6.59,6.59,6.59,6.59,6.59,6.59,6.5902,6.5902,6.5941,6.5939,6.59,0.0,0.0,0.0,0.0,0.0,0.0,0.0,0.0,0.0,0.0,0.0,0.0,0.0,0.0,0.0,0.0,0.0,0.0,0.0,0.0,0.0,0.0,0.0,0.0,0.0,0.0,0.0,6.59,6.59,0.0,0.0,0.0,0.0,0.0,0.0,0.0,0.0,0.0,0.0,0.0,6.59,6.59,0.0,0.0,0.0,0.0,0.0,0.0,0.0,0.0,0.0,0.0,0.0,0.0,6.9973,7.0477,7.0743,7.0897,7.0897,7.0897,7.0897,7.0897,7.0897,7.0897,7.0897,0.0,0.0,0.0,0.0,0.0,0.0,0.0,0.0,0.0,0.0,0.0,0.0,0.0,0.0,0.0,0.0,0.0,0.0,0.0,0.0,0.0,0.0,0.0,0.0,0.0,6.59,0.0,0.0,0.0,0.0,0.0,0.0,0.0,0.0,0.0,0.0,0.0,6.59,6.59,6.59,6.59,6.59,6.59,6.59,0.0,0.0,0.0,0.0,0.0,0.0,0.0,0.0,0.0,0.0,0.0,0.0,0.0,0.0,6.7561,6.7561,6.7574,6.7548,6.7585,0.0,0.0,0.0,0.0,0.0,0.0,0.0,0.0,0.0,0.0,0.0,0.0,0.0,0.0,0.0,0.0,6.59,0.0,0.0,0.0,0.0,0.0,0.0,0.0,0.0,6.6173,6.6325,6.6324,6.6628,6.7051,0.0,6.7552,6.7282,0.0,0.0,0.0,0.0,0.0,0.0,0.0,0.0,7.0358,7.0858,7.0897,7.0897,7.0897,7.0897,7.0897,7.0897,7.0897,7.0897,7.0897,7.0397,7.0012,0.0,0.0,0.0,0.0,0.0,0.0,0.0,0.0,0.0,0.0,0.0,0.0,0.0,0.0,0.0,0.0,0.0,0.0,0.0,0.0,0.0,0.0,0.0,6.59,0.0,0.0,0.0,0.0,0.0,0.0,0.0,0.0,0.0,6.59,6.59,6.59,6.59,6.6139,6.6327,6.6309,0.0,0.0,0.0,0.0,0.0,0.0,0.0,6.8388,6.8388,6.8384,6.8403,6.8387,6.8667,6.8878,6.8871,0.0,0.0,6.8517,6.8377,6.8388,6.8408,6.8651,6.8856,6.8824,6.9092,6.9428,0.0,0.0,0.0,0.0,0.0,0.0,0.0,0.0,6.59,6.59,0.0,6.59,0.0,0.0,0.0,0.0,0.0,0.0,0.0,0.0,6.6785,6.7133,6.721,6.7971,6.8431,6.8428,6.843,6.8431,6.847,6.8468,0.0,0.0,0.0,0.0,0.0,0.0,7.0897,7.0897,7.0897,7.0897,7.0897,7.0897,7.0897,7.0897,7.0897,7.0897,7.0897,7.0898,7.0554,6.9779,6.9704,0.0,0.0,0.0,0.0,0.0,0.0,0.0,0.0,0.0,0.0,0.0,0.0,0.0,0.0,0.0,0.0,0.0,0.0,0.0,0.0,6.59,0.0,0.0,0.0,0.0,0.0,0.0,0.0,0.0,0.0,0.0,6.6053,6.5977,6.5939,6.5981,0.0,0.0,0.0,0.0,6.839,6.8351,6.8411,6.8454,6.8433,6.846,6.8493,6.8505,0.0,0.0,6.8486,6.919,6.9747,6.971,7.0343,7.0397,6.8814,6.8585,6.857,6.857,6.9212,6.9672,6.9766,7.0256,7.0781,6.766,0.0,0.0,0.0,0.0,6.6131,6.59,6.59,6.59,6.59,6.59,6.59,0.0,0.0,0.0,0.0,0.0,0.0,6.7662,6.7702,6.7933,6.805,6.8047,6.8277,6.8739,6.9319,6.9318,6.9627,7.0166,7.0166,6.9896,6.9358,0.0,0.0,0.0,0.0,7.0897,7.0897,7.0897,7.0897,7.0897,7.0897,7.0897,7.0897,7.0897,7.0897,7.0897,7.0897,7.0783,7.0552,7.0012,0.0,0.0,0.0,0.0,0.0,0.0,0.0,0.0,0.0,0.0,0.0,0.0,0.0,0.0,0.0,0.0,0.0,0.0,0.0,6.59,6.59,6.59,0.0,0.0,0.0,0.0,0.0,0.0,0.0,0.0,0.0,6.7664,6.713,6.6991,0.0,0.0,6.801,6.8035,6.8258,6.8393,6.8388,0.0,0.0,0.0,6.9814,7.0202,7.0202,7.0202,7.0159,7.0186,7.042,7.0579,7.054,7.0738,7.0706,7.032,7.0167,7.0161,7.0227,7.039,7.0555,7.0561,7.0748,7.0897,6.9395,6.9281,6.8127,6.7628,6.759,6.7091,6.6898,6.6896,6.6896,6.6896,6.6898,6.6898,6.6898,6.6898,6.6894,0.0,0.0,0.0,6.8393,6.8428,6.8778,6.8931,6.8931,6.9239,6.9666,7.0166,7.0167,7.0438,7.0897,7.0897,7.0669,7.0202,0.0,0.0,7.0935,7.1245,7.1439,7.1439,7.1743,7.1935,7.1937,7.1935,7.1933,7.1935,7.1592,7.14,7.14,7.1092,7.0897,7.0897,7.0437,7.0012,0.0,0.0,0.0,0.0,0.0,0.0,0.0,0.0,0.0,0.0,0.0,6.59,0.0,0.0,0.0,0.0,6.59,6.59,6.59,6.6179,0.0,0.0,0.0,0.0,0.0,0.0,0.0,6.7593,6.8084,6.8542,6.8854,6.8475,6.818,6.8362,6.8719,6.8929,6.8926,0.0,6.9401,6.9391,6.9825,7.0176,7.0167,7.0591,7.0897,7.0897,7.0897,7.0897,7.0897,7.0897,7.0897,7.0897,7.0897,7.0897,7.0897,7.0876,7.0869,7.0891,7.0897,7.0897,7.0897,7.0897,7.0897,7.0897,7.0783,6.9241,6.8545,6.8507,6.8428,6.8393,6.8393,6.8393,6.8393,6.8393,6.8393,6.8393,6.8393,6.8467,0.0,6.8507,6.8547,6.8622,6.8624,6.9396,6.9781,6.9818,7.055,7.0897,7.0897,7.0897,7.0937,7.1015,7.1015,7.1054,7.1091,7.1091,7.1092,7.1054,7.1862,7.2287,7.2327,7.3088,7.3469,7.3507,7.3507,7.3507,7.3469,7.2708,7.2287,7.2288,7.1477,7.1014,7.1015,7.0937,7.0552,6.986,0.0,0.0,0.0,0.0,0.0,0.0,0.0,0.0,0.0,0.0,0.0,0.0,0.0,0.0,0.0,6.6056,0.0,6.6093,6.6772,0.0,0.0,0.0,6.8388,6.8388,6.8449,6.8494,6.851,0.0,0.0,0.0,0.0,6.951,6.8699,6.9298,6.9798,6.9796,7.0381,7.0897,7.0781,7.0858,7.0897,7.082,7.086,7.0897,7.0897,7.0897,7.0897,7.0897,7.0897,7.0897,7.0897,7.0897,7.0897,7.0897,7.0927,7.0928,7.1035,7.0943,7.0879,7.0853,7.0856,7.0897,7.0897,7.0862,7.0473,6.9935,6.9358,6.8699,6.8393,6.8393,6.8393,6.8393,6.8393,6.8393,6.8393,6.8428,6.9085,6.9395,6.9395,7.001,7.032,7.032,7.0514,7.0631,7.0627,7.0821,7.0897,7.0897,7.0897,7.1248,7.1865,7.1902,7.2245,7.2855,7.2893,7.2549,7.1942,7.2741,7.3205,7.3203,7.3392,7.3507,7.3507,7.3507,7.3507,7.3507,7.3317,7.3203,7.3201,7.236,7.1902,7.1863,7.1246,7.0821,7.0627,7.005,0.0,0.0,0.0,0.0,0.0,0.0,0.0,0.0,0.0,6.59,6.59,0.0,6.6171,0.0,6.7436,6.7818,6.7818,6.7973,0.0,0.0,6.8284,6.8391,6.839,6.8983,6.941,6.9395,6.9935,7.0395,7.0589,7.0631,7.055,7.0321,7.048,7.0631,7.0622,7.0738,7.0897,7.0897,7.0935,7.0897,7.0935,7.0897,7.0935,7.0897,7.0897,7.0897,7.0897,7.0897,7.0897,7.0897,7.0897,7.0897,7.0935,7.1386,7.1816,7.1779,7.1243,7.0765,7.0754,7.0776,7.0935,7.0897,7.0897,7.0897,7.0627,7.0204,6.9702,6.951,6.9508,6.951,6.951,6.951,6.9512,6.9508,6.9549,7.0012,7.0243,7.0244,7.0704,7.0897,7.0897,7.0897,7.0897,7.0897,7.0897,7.1094,7.1479,7.1475,7.1939,7.2743,7.2782,7.3014,7.3507,7.3855,7.378,7.336,7.378,7.4046,7.4047,7.4395,7.4624,7.459,7.4624,7.4628,7.4626,7.424,7.4007,7.4007,7.3205,7.2782,7.2743,7.1937,7.1477,7.144,7.0708,7.009,0.0,0.0,0.0,0.0,0.0,0.0,0.0,0.0,0.0,0.0,0.0,6.7188,0.0,6.8112,0.0,6.8383,6.8737,6.8971,6.9,6.9289,6.9522,6.9508,6.9942,7.0251,7.0246,7.0627,7.0897,7.0897,7.0897,7.0897,7.0897,7.1253,7.1333,7.0975,7.0897,7.1014,7.1398,7.1479,7.1629,7.1975,7.2051,7.2061,7.2041,7.2085,7.2047,7.1964,7.1968,7.1944,7.1904,7.1942,7.1903,7.1944,7.2242,7.256,7.2505,7.2086,7.1779,7.1794,7.1832,7.1982,7.0897,7.0897,7.0897,7.0897,7.0897,7.0897,7.0897,7.0897,7.0897,7.0897,7.0897,7.0897,7.0897,7.0897,7.0897,7.0897,7.0897,7.0897,7.0897,7.0897,7.1014,7.1054,7.1052,7.1169,7.1629,7.2323,7.2365,7.2782,7.3661,7.3661,7.3699,7.3855,7.4665,7.5005,7.5035,7.5108,7.5114,7.5048,7.5782,7.6207,7.6322,7.6209,7.6165,7.6115,7.5313,7.4852,7.4841,7.4081,7.3661,7.3623,7.286,7.2327,7.2173,7.1477,7.0706,0.0,6.9743,0.0,0.0,0.0,0.0,0.0,0.0,0.0,0.0,6.8514,6.8581,6.8565,6.8676,6.8734,6.8724,6.9406,6.9835,6.9871,7.0498,7.0897,7.0897,7.0897,7.0897,7.0897,7.0897,7.0935,7.1091,7.1052,7.1091,7.1372,7.1928,7.2118,7.1472,7.1353,7.1627,7.2287,7.2357,7.2568,7.314,7.3361,7.3378,7.3402,7.3302,7.3421,7.3213,7.3186,7.3226,7.3149,7.31,7.3141,7.3208,7.3223,7.3291,7.3258,7.3284,7.3272,7.3081,7.3014,7.3206,7.0897,7.0897,7.0897,7.0897,7.0897,7.0897,7.0897,7.0897,7.0897,7.0897,7.0897,7.0897,7.0897,7.0897,7.0897,7.0897,7.0897,7.0897,7.0897,7.0935,7.1631,7.1942,7.1979,7.2664,7.3088,7.3241,7.328,7.3665,7.4471,7.4471,7.4819,7.5551,7.6403,7.6752,7.6686,0.0,0.0,0.0,7.698,7.7367,7.7982,7.7405,7.6987,7.6882,7.6133,0.0,7.5649,7.4898,7.4471,7.4432,7.3701,0.0,0.0,0.0,0.0,0.0,0.0,0.0,0.0,0.0,0.0,0.0,6.9319,6.8973,6.8468,6.902,6.9473,6.9475,7.0037,7.0435,7.0435,7.0552,7.0671,7.0661,7.0816,7.0897,7.0897,7.0897,7.0897,7.0897,7.0897,7.1168,7.1823,7.194,7.2224,7.2797,7.3155,7.3201,7.3039,7.2937,7.3042,7.3236,7.3186,7.319,7.3303,7.3365,7.3451,7.3246,7.3248,7.3306,7.3327,7.3291,7.3274,7.3278,7.322,7.3269,7.3246,7.3739,7.4184,7.4079,7.4601,7.4686,7.3362,7.3054,7.3225,7.2164,0.0,7.2164,7.2203,0.0,7.2203,7.2163,7.2128,7.1283,7.0897,7.0897,7.0897,7.0897,7.0935,7.1362,7.1557,7.1554,7.1975,7.2166,7.2203,7.2629,7.2858,7.2858,7.328,7.3701,7.4084,7.4086,7.4547,7.5319,7.5782,7.6189,7.653,7.7414,7.7792,7.7707,7.8125,7.8184,7.7809,7.7775,7.8003,7.8351,7.8003,7.7749,7.7671,0.0,0.0,0.0,0.0,0.0,0.0,0.0,0.0,0.0,0.0,0.0,7.2203,7.1398,7.0938,7.0898,7.0127,6.9819,7.0243,7.0283,7.0127,6.9666,7.005,7.0276,7.0306,7.0659,7.0897,7.0897,7.0897,7.0897,7.0897,7.0897,7.0897,7.0937,7.1285,7.1556,7.1592,7.1935,7.2357,7.2782,7.2822,7.3023,7.343,7.3831,7.4051,7.399,7.3655,7.3516,7.3925,7.4326,7.449,7.4486,7.4457,7.4401,7.4447,7.4428,7.4422,7.4401,7.4397,7.4356,7.4322,7.4336,7.4332,7.4375,7.4721,7.4956,7.4947,7.5225,7.5332,7.4369,7.4248,7.432,7.3507,7.3507,7.3507,7.3507,7.3507,7.3507,7.3507,7.3395,0.0,0.0,0.0,7.1358,7.136,7.1395,7.2094,7.2441,7.2477,7.3164,7.3507,7.3507,7.3661,7.3701,7.3738,7.3855,7.4355,7.5126,7.5165,7.5626,7.6438,7.7158,7.746,7.7431,7.8191,7.8681,7.8711,7.8731,7.8716,7.8663,7.8579,7.8592,7.8709,7.8592,7.8509,7.8494,7.8426,7.8018,7.7265,7.7374,7.7085,7.6187,7.5516,7.5009,7.4701,7.4086,7.3624,7.3469,7.2822,7.24,7.2441,7.1745,7.136,7.1358,7.1356,7.1243,7.0935,7.0897,7.0897,7.0897,7.0897,7.0897,7.0897,7.1054,7.1134,7.1131,7.1285,7.1356,7.1437,7.1977,7.2441,7.2519,7.3012,7.354,7.368,7.3678,7.3766,7.393,7.445,7.4795,7.4684,7.4256,7.4089,7.4663,7.5117,7.5602,7.5632,7.5571,7.5652,7.5531,7.5573,7.5639,7.56,7.5592,7.5554,7.5393,7.5512,7.5442,7.5478,7.5448,7.5512,7.5512,7.5512,7.5512,7.5512,7.5473,7.5435,7.3505,7.3507,7.3507,7.3507,7.3507,7.3507,7.3507,7.3507,7.3238,7.3124,7.3122,7.3124,7.3124,7.3164,7.3278,7.3315,7.3315,7.3469,7.3507,0.0,7.4199,7.4549,7.4586,7.5282,7.6093,7.6903,7.6943,7.7367,7.8088,7.8208,7.8238,7.8343,7.9113,7.9798,8.0368,8.0329,8.0249,8.0168,7.9633,7.9674,8.0407,7.9712,7.9295,7.923,7.8646,7.8266,7.811,7.8198,7.7893,7.7152,7.7015,7.6247,7.4819,7.4584,7.424,7.3584,7.3393,7.3317,7.3317,7.3198,7.3122,7.3122,7.3124,7.2509,7.105,7.0897,7.0897,7.0897,7.0974,7.0897,7.0937,7.161,7.2001,7.2059,7.2666,7.3122,7.3046,7.3203,7.3315,7.3311,7.3392,7.3826,7.4357,7.4454,7.4667,7.5218,7.543,7.5511,7.5467,7.5405,7.5406,7.5493,7.5569,7.5647,7.5616,7.5553,7.5534,7.5551,7.5563,7.5642,7.5639,7.5705,7.5741,7.5588,7.5664,7.5626,7.5628,7.5512,7.5664,7.5703,7.57,7.5664,7.5707,7.5673,7.5592,7.4691,7.4689,7.4691,7.4689,7.4689,7.4691,7.4689,7.4691,7.4689,7.424,7.3504,7.3507,7.3507,7.3547,7.397,7.4163,7.4163,7.4624,7.4859,7.4934,7.5744,7.613,7.6207,7.694,7.7557,7.7944,7.7931,7.8098,7.8438,7.8814,7.8979,7.9007,7.9727,8.03,8.0605,8.056,8.0784,8.1198,8.0438,8.0213,8.0603,8.0254,8.0004,7.997,7.9668,7.9309,7.8851,7.8935,7.8642,7.7882,7.7385,7.6807,7.6161,7.5624,7.5196,7.4853,7.4394,7.4123,7.4161,7.374,7.3507,7.3507,7.3507,7.3163,7.2393,7.2318,7.2315,7.2309,7.2313,7.2318,7.2318,7.2664,7.2907,7.2918,7.3266,7.3477,7.3531,7.3927,7.4148,7.4151,7.4522,7.493,7.5248,7.5242,7.5303,7.5757,7.6072,7.6301,7.6229,7.663,7.6582,7.5819,7.5566,7.5547,7.5568,7.5502,7.5514,7.5512,7.5871,7.6111,7.6187,7.6476,7.6802,7.6876,7.684,7.686,7.6853,7.6867,7.6847,7.6881,7.684,7.6851,7.6851,7.6868,7.6549,7.6306,7.6306,7.6288,7.631,7.633,7.6332,7.6332,7.633,7.6336,7.5668,7.4692,7.4222,7.4068,7.4163,7.4936,7.528,7.5397,7.617,7.6553,7.6634,7.7249,7.7557,7.7632,7.8235,7.8569,7.8752,7.8722,7.8767,7.9024,7.9526,7.9855,7.9997,8.0537,8.0887,8.1114,8.1116,8.1411,8.1963,8.1387,8.0967,8.0814,8.0814,8.0699,8.0515,8.0542,8.0294,7.9642,7.9686,7.9384,7.8609,7.7969,7.762,7.7516,7.6713,7.6255,7.6202,7.5474,7.4972,7.4972,7.4434,7.4047,7.4047,7.4047,7.4086,7.4084,7.4047,7.389,7.3573,7.3425,7.343,7.3435,7.3665,7.3763,7.377,7.3955,7.4123,7.4099,7.4603,7.4963,7.4984,7.5509,7.592,7.6065,7.6048,7.6126,7.6447,7.6841,7.7069,7.7083,7.7606,7.7332,7.6541,7.6057,7.6143,7.6049,7.6119,7.6157,7.608,7.6578,7.6931,7.7073,7.7568,7.7923,7.7878,7.7932,7.7845,7.7934,7.7946,7.7903,7.7811,7.7775,7.7885,7.7856,7.7853,7.7622,7.8015,7.807,7.8055,7.8192,7.8171,7.8177,7.8131,7.8175,7.8227,7.8198,7.769,7.6359,7.5712,7.5894,7.6672,7.702,7.7096,7.7905,7.8213,7.8215,7.8369,7.8367,7.8398,7.8437,7.8818,7.9515,7.958,7.9911,8.0558,8.0673,8.1009,8.1611,8.1746,8.2122,8.2823,8.2894,8.2893,8.2884,8.2806,8.2421,8.1726,8.1688,8.1306,8.0511,8.0515,8.0485,8.047,8.0504,8.0165,7.9478,7.94,7.9067,7.832,7.7578,7.7161,7.7132,7.6361,7.5899,7.5861,7.5822,7.5705,7.5745,7.5667,7.5667,7.5668,7.5707,7.509,7.3969,7.3546,7.3623,7.3547,7.4188,7.4583,7.456,7.5115,7.5697,7.5642,7.5714,7.5782,7.5776,7.5985,7.6142,7.6698,7.6814,7.7067,7.7511,7.7768,7.7912,7.7909,7.8096,7.8207,7.7881,7.777,7.7703,7.7656,7.775,7.7555,7.7602,7.7775,7.7862,7.7932,7.7986,7.8043,7.8469,7.8213,7.8254,7.8182,7.8018,7.8114,7.8359,7.8294,7.8099,7.8022,7.8152,7.802,7.8129,7.8134,7.8135,7.8173,7.8173,7.8213,7.8213,7.8213,7.8211,7.8243,7.8171,7.748,7.7303,7.7519,7.7867,7.8023,7.8021,7.8369,7.8484,7.8561,7.9019,7.9285,7.9317,7.9788,8.0168,8.0382,8.0374,8.0741,8.1446,8.1895,8.2252,8.2523,8.2557,8.2748,8.3061,8.3059,8.3305,8.3761,8.3761,8.3606,8.3257,8.2765,8.2342,8.1963,8.1499,8.1284,8.1247,8.0834,8.0418,8.016,7.9701,7.9355,7.9066,7.826,7.7838,7.7891,7.7221,7.6788,7.6747,7.6286,7.5976,7.5976,7.5976,7.5976,7.5976,7.5976,7.5667,7.513,7.4971,7.4972,7.5011,7.5291,7.5445,7.5489,7.572,7.6076,7.6562,7.6576,7.6679,7.7093,7.7195,7.7292,7.7537,7.7588,7.772,7.806,7.8402,7.8745,7.8796,7.9136,7.9434,7.9477,7.9466,7.9009,7.8328,7.802,7.802,7.8092,7.8447,7.8767,7.8782,7.9238,7.9473,7.9433,7.9341,7.9357,7.9589,7.9472,7.946,7.9401,7.948,7.9474,7.9477,7.9492,7.9489,7.8667,7.8674,7.8697,7.8724,7.8789,7.8787,7.8751,7.8753,7.8777,7.8828,7.8893,7.8916,7.9034,7.9156,7.896,7.8833,7.8873,7.9086,7.9213,7.9288,7.986,8.0115,8.0209,8.0951,8.1282,8.1197,8.1399,8.1753,8.2294,8.2767,8.3138,8.331,8.3341,8.3458,8.368,8.368,8.3988,8.4556,8.4632,8.4635,8.452,8.4024,8.3493,8.2994,8.2419,8.2151,8.2113,8.1308,8.0885,8.0913,8.0116,7.9696,7.9776,7.8948,7.8448,7.8331,7.7871,7.7562,7.7562,7.6982,7.6636,7.6634,7.6636,7.6645,7.6624,7.6649,7.6662,7.6672,7.665,7.6591,7.6328,7.6277,7.6333,7.6513,7.654,7.6792,7.726,7.7318,7.7511,7.7999,7.796,7.823,7.8408,7.8623,7.8836,7.8848,7.9267,7.9631,7.9673,8.011,8.0434,8.0511,8.047,8.0012,7.8933,7.8831,7.8664,7.8764,7.9308,7.9628,7.9628,8.0176,8.047,8.0031,8.0391,8.0434,8.0203,8.0317,8.0506,8.0508,8.0513,8.0513,8.0281,8.0432,8.047,8.0394,8.0367,8.0452,8.0451,8.0622,8.0573,8.0618,8.0479,8.0615,8.0703,8.0625,8.0813,8.0954,8.0875,8.0105,7.9697,7.9754,8.0482,8.0862,8.09,8.1012,8.0968,8.0928,8.1604,8.1942,8.1952,8.2557,8.2999,8.3138,8.3208,8.3546,8.422,8.4253,8.4594,8.5167,8.5201,8.5394,8.5356,8.5354,8.543,8.5389,8.5354,8.4556,8.33,8.2997,8.2959,8.2882,8.2151,8.1731,8.1736,8.0971,8.0528,8.047,7.9846,7.9125,7.8485,7.83,7.8268,7.8276,7.8125,7.8088,7.8125,7.802,7.8145,7.7985,7.799,7.8008,7.8236,7.8079,7.7777,7.7237,7.707,7.7251,7.7799,7.7933,7.7956,7.8034,7.8062,7.8069,7.8203,7.8328,7.8622,7.9201,7.9944,8.0152,8.021,8.0355,8.0389,8.0351,8.0432,8.0511,8.0511,8.0511,8.0472,8.0355,7.9998,8.0112,8.0086,7.9978,8.0362,8.0437,8.0511,8.0511,8.0549,8.0661,8.0661,8.0549,8.0587,8.0738,8.0816,8.0904,8.0866,8.1148,8.0711,8.079,8.0511,8.0513,8.0545,8.0544,8.0612,8.0616,8.0614,8.0618,8.0648,8.0627,8.0747,8.1276,8.1555,8.1557,8.1854,8.1461,8.0695,8.0964,8.1364,8.1816,8.18,8.2061,8.2529,8.2751,8.281,8.2769,8.3066,8.3457,8.3931,8.4421,8.4784,8.502,8.5091,8.5239,8.5471,8.5509,8.5509,8.5509,8.5509,8.5509,8.5509,8.5509,8.5203,8.4632,8.4064,8.3835,8.3837,8.3035,8.2574,8.2574,8.1802,8.136,8.1293,8.0607,8.0084,7.9746,7.9331,7.912,7.9089,7.8623,7.8341,7.8405,7.8349,7.8366,7.8333,7.8309,7.8323,7.8309,7.8248,7.8226,7.8481,7.8188,7.7978,7.8147,7.8167,7.8393,7.8777,7.8883,7.9043,7.9514,7.9653,7.9779,7.9954,8.032,8.0511,8.0511,8.0511,8.0549,8.0546,8.0511,8.0587,8.0511,8.0511,8.0511,8.0511,8.0472,8.0472,8.047,8.0472,8.0515,8.0592,8.0702,8.074,8.0931,8.1005,8.1318,8.1361,8.1688,8.1688,8.185,8.186,8.173,8.2107,8.1762,8.185,8.1313,8.1311,8.1311,8.1311,8.1311,8.1311,8.1313,8.1318,8.1348,8.1362,8.1479,8.204,8.2281,8.2369,8.2967,8.2748,8.1845,8.1812,8.2087,8.2579,8.2593,8.2858,8.3324,8.3574,8.361,8.3603,8.3857,8.4239,8.4681,8.5239,8.5509,8.5509,8.5509,8.5509,8.5509,8.5509,8.5509,8.5509,8.5509,8.5509,8.5509,8.5509,8.5509,8.5432,8.4974,8.4671,8.4671,8.3876,8.3417,8.3302,8.2607,8.2073,8.1774,8.1293,8.0873,8.0576,8.0123,7.9844,7.9891,7.935,7.9061,7.9141,7.9088,7.9043,7.9052,7.9063,7.9015,7.9021,7.8998,7.9207,7.9535,7.9389,7.9071,7.9009,7.8933,7.9113,7.9633,7.9699,7.9937,8.0288,8.0405,8.0475,8.0551,8.079,8.0911,8.0911,8.1129,8.1272,8.1313,8.1313,8.1313,8.1318,8.1413,8.1446,8.1552,8.1619,8.1311,8.1234,8.1418,8.1262,8.1131,8.1165,8.1191,8.1347,8.1626,8.2017,8.2395,8.272,8.2908,8.3068,8.2815,8.2528,8.2729,8.2875,8.2865,8.2923,8.2882,8.2997,8.2844,8.2767,8.2767,8.2884,8.2822,8.2977,8.2883,8.2847,8.3213,8.3258,8.329,8.3493,8.3348,8.3353,8.3319,8.3294,8.3343,8.3328,8.3317,8.3479,8.4107,8.4356,8.4351,8.5058,8.5399,8.5432,8.5468,8.5509,8.5509,8.5509,8.5509,8.5509,8.5509,8.5509,8.5509,8.5509,8.5509,8.5509,8.5509,8.5509,8.5509,8.5432,8.5394,8.543,8.4709,8.4293,8.4217,8.3491,8.2653,8.2032,8.1815,8.1466,8.0866,8.0558,8.0522,8.0536,8.0421,8.0276,8.029,8.0421,8.0276,8.0227,8.0368,8.0424,8.0475,8.0563,8.0669,8.0679,8.0678,8.0516,8.0476,8.0236,8.0272,8.0391,8.0508,8.0546,8.0659,8.0776,8.0582,8.0745,8.1305,8.1783,8.1922,8.2278,8.2674,8.2598,8.2607,8.2846,8.2856,8.2567,8.238,8.267,8.292,8.2495,8.2192,8.2466,8.2523,8.2337,8.2321,8.224,8.2349,8.2662,8.3016,8.3422,8.3708,8.3572,8.3617,8.3374,8.3396,8.3582,8.3723,8.3529,8.2997,8.2997,8.2997,8.2997,8.2997,8.2997,8.2997,8.2999,8.3035,8.3085,8.3162,8.3723,8.4003,8.4117,8.4533,8.4801,8.4839,8.4803,8.4564,8.4244,8.4094,8.4357,8.482,8.5057,8.5159,8.517,8.5356,8.5509,8.5509,8.5509,8.5509,8.5509,8.5509,8.5509,8.5509,8.5509,8.5509,8.5509,8.5509,8.5509,8.5509,8.5509,8.5509,8.5509,8.5509,8.5509,8.5509,8.5241,8.5129,8.5091,8.4329,8.3491,8.2803,8.2612,8.2495,8.223,8.169,8.142,8.139,8.0894,8.0643,8.0682,8.0625,8.0526,8.065,8.1108,8.137,8.1495,8.1922,8.2251,8.2246,8.2266,8.1726,8.0637,8.0511,8.0585,8.0699,8.1072,8.1605,8.2111,8.2216,8.2213,8.2237,8.2545,8.26,8.2672,8.2925,8.3115,8.3079,8.3202,8.2997,8.3002,8.3023,8.326,8.3429,8.3677,8.3632,8.3329,8.3441,8.3546,8.3446,8.3384,8.3302,8.3373,8.3682,8.4002,8.4408,8.4546,8.4376,8.4527,8.4632,8.4676,8.4706,8.4572,8.4316,8.3911,8.3911,8.3947,8.3909,8.3947,8.3911,8.3911,8.3947,8.395,8.3911,8.4064,8.4482,8.475,8.4859,8.5277,8.5509,8.5509,8.5509,8.5308,8.4987,8.4834,8.5148,8.5566,8.5543,8.5509,8.5509,8.5509,8.5509,8.5509,8.5509,8.5509,8.5509,8.5509,8.5509,8.5509,8.5509,8.5509,8.5509,8.5509,8.5509,8.5509,8.5509,8.5509,8.5509,8.5509,8.5509,8.5509,8.5509,8.5509,8.5432,8.5012,8.4367,8.3567,8.3493,8.3341,8.2961,8.2576,8.2254,8.2229,8.1805,8.1472,8.1562,8.1495,8.1458,8.1559,8.2026,8.2213,8.2326,8.2667,8.3028,8.2968,8.2994,8.2461,8.1588,8.1506,8.1428,8.1502,8.192,8.2376,8.2801,8.2939,8.3016,8.3004,8.3348,8.3446,8.3513,8.3763,8.395,8.3922,8.3994,8.3899,8.3909,8.4143,8.4222,8.4102,8.4358,8.4692,8.4544,8.437,8.4382,8.4337,8.4319,8.429,8.4374,8.4597,8.4719,8.5089,8.5203,8.5155,8.5471,8.5509,8.5356,8.5124,8.5239,8.5069,8.5509,8.5509,8.5509,8.5394,8.5356,8.5356,8.5318,8.5394,8.5392,8.532,8.5394,8.5356,8.5432,8.5471,8.5468,8.5509,8.5509,8.5509,8.5514,8.5455,8.5407,8.5488,8.5521,8.5511,8.5509,8.5509,8.5509,8.5509,8.5509,8.5509,8.5509,8.5509,8.5509,8.5509,8.5509,8.5509,8.5509,8.5509,8.5509,8.5509,8.5509,8.5509,8.5509,8.5509,8.5509,8.5509,8.5509,8.5509,8.5509,8.5509,8.5432,8.5053,8.452,8.437,8.399,8.3415,8.3147,8.3073,8.3076,8.2813,8.2777,8.2753,8.2748,8.3004,8.2791,8.2911,8.3085,8.3085,8.3271,8.3319,8.3336,8.3345,8.3267,8.3185,8.2868,8.2789,8.2994,8.3045,8.3236,8.3262,8.3168,8.3197,8.3415,8.3986,8.4263,8.4449,8.4872,8.5079,8.5191,8.5081,8.5354,8.5318,8.5012,8.4974,8.4747,8.4821,8.5117,8.5081,8.4974,8.4974,8.4974,8.5,8.5031,8.5153,8.5234,8.5392,8.5509,8.5509,8.5509,8.5509,8.5509,8.5509,8.5427,8.5344,8.5161,8.5509,8.5509,8.5509,8.5509,8.5509,8.5509,8.5509,8.5509,8.5509,8.5509,8.5509,8.5509,8.5509,8.5509,8.5509,8.5509,8.5509,8.5509,8.5509,8.5509,8.5509,8.5509,8.5509,8.5509,8.5509,8.5509,8.5509,8.5509,8.5509,8.5547,8.5547,8.5509,8.5623,8.5585,8.5509,8.5585,8.5509,8.5509,8.5545,8.5585,8.5585,8.5585,8.5509,8.5509,8.5545,8.5545,8.5509,8.5509,8.5509,8.5509,8.5509,8.543,8.5165,8.5127,8.4976,8.4706,8.4253,8.3952,8.3835,8.3417,8.3073,8.2997,8.3185,8.3002,8.304,8.362,8.3883,8.4057,8.4432,8.4778,8.4783,8.4785,8.4783,8.4661,8.3829,8.3359,8.3823,8.3959,8.4153,8.4709,8.4778,8.4704,8.4747,8.491,8.5108,8.5185,8.5328,8.5509,8.5509,8.5509,8.5509,8.5509,8.5356,8.5432,8.5432,8.5432,8.5468,8.543,8.5356,8.5318,8.5318,8.5313,8.5389,8.5468,8.5392,8.5471,8.5509,8.5509,8.5509,8.5509,8.5403,8.5337,8.5034,8.4848,8.463,8.5509,8.5509,8.5509,8.5509,8.5509,8.5509,8.5509,8.5509,8.5509,8.5509,8.5509,8.5509,8.5509,8.5509,8.5509,8.5509,8.5509,8.5509,8.5509,8.5509,8.5509,8.5509,8.5509,8.5509,8.5509,8.5509,8.5547,8.5509,8.5583,8.585,8.6039,8.6192,8.6426,8.6579,8.6696,8.6581,8.6579,8.6617,8.6581,8.6581,8.6581,8.6581,8.6349,8.6194,8.6039,8.5922,8.5583,8.5509,8.5509,8.5509,8.5509,8.5509,8.5509,8.5509,8.5509,8.5468,8.5053,8.4788,8.4747,8.4329,8.4102,8.4064,8.4062,8.4062,8.4176,8.4563,8.4793,8.4862,8.5277,8.5471,8.5509,8.5509,8.5509,8.5313,8.4629,8.428,8.4747,8.4795,8.5022,8.5358,8.5509,8.5509,8.5509,8.5509,8.5509,8.5509,8.5437,8.5509,8.5509,8.5509,8.5509,8.5509,8.5509,8.5509,8.5509,8.5509,8.5509,8.5509,8.5509,8.5509,8.5509,8.5509,8.5509,8.5509,8.5509,8.5509,8.5506,8.5506,8.5509,8.5474,8.5342,8.5082,8.4762,8.4372,8.4138,8.5509,8.5509,8.5509,8.5509,8.5509,8.5509,8.5509,8.5509,8.5509,8.5509,8.5509,8.5509,8.5509,8.5509,8.5509,8.5509,8.5509,8.5509,8.5618,8.5736,8.5888,8.6041,8.6084,8.5853,8.5812,8.5812,8.5736,8.5888,8.6194,8.6691,8.6879,8.7035,8.7651,8.7997,8.7806,8.7924,8.8076,8.7883,8.7809,8.7771,8.7768,8.7768,8.7457,8.7032,8.6917,8.665,8.6118,8.5812,8.5736,8.5657,8.5542,8.5509,8.5509,8.5509,8.5509,8.5509,8.5432,8.5394,8.5468,8.5318,8.5392,8.528,8.5318,8.5509,8.5318,8.5358,8.5358,8.5356,8.5509,8.5509,8.5509,8.5509,8.5509,8.5468,8.5427,8.5468,8.5509,8.5509,8.5509,8.5509,8.5509,8.5509,8.5509,8.5509,8.5509,8.5509,8.5509,8.5509,8.5509,8.5509,8.5509,8.5509,8.5509,8.5509,8.5509,8.5509,8.5509,8.5509,8.5509,8.5509,8.5509,8.5509,8.5509,8.5509,8.5509,8.5506,8.5504,8.5504,8.5508,8.5181,8.4894,8.4694,8.4415,8.3963,8.3632,8.5509,8.5509,8.5509,8.5509,8.5509,8.5509,8.5509,8.5509,8.5509,8.5509,8.5509,8.5509,8.5545,8.5547,8.5623,8.5509,8.5662,8.5697,8.5812,8.6574,8.7271,8.7501,8.7345,8.6882,8.6533,8.6653,8.7231,8.746,8.7577,8.7615,8.7845,8.7883,8.811,8.8153,8.8229,8.8341,8.8115,8.8115,8.8155,8.8265,8.8267,8.8267,8.8112,8.7804,8.7766,8.7727,8.7462,8.6882,8.6535,8.6383,8.5962,8.57,8.5547,8.5509,8.5509,8.5509,8.5509,8.5509,8.5509,8.5509,8.5509,8.5509,8.5509,8.5509,8.5509,8.5509,8.5509,8.5509,8.5509,8.5509,8.5509,8.5509,8.5509,8.5509,8.5509,8.5509,8.5509,8.5509,8.5509,8.5509,8.5509,8.5509,8.5509,8.5509,8.5509,8.5509,8.5509,8.5509,8.5509,8.5509,8.5509,8.5509,8.5509,8.5509,8.5509,8.5509,8.5509,8.5509,8.5509,8.5748,8.5748,8.5657,8.5731,8.5657,8.5509,8.5545,8.5741,8.5437,8.54,8.4955,8.462,8.4477,8.4298,8.3727,8.3607,8.5509,8.5509,8.5509,8.5509,8.5509,8.5509,8.5509,8.5509,8.5509,8.5509,8.5621,8.5886,8.6113,8.6151,8.6502,8.6736,8.6736,8.6734,8.6963,8.7419,8.7883,8.8076,8.8191,8.8031,8.7837,8.7572,8.7804,8.8074,8.8191,8.8497,8.8644,8.8723,8.9027,8.937,8.9256,8.9218,8.933,8.933,8.9256,8.9253,8.9253,8.9256,8.8988,8.8609,8.8341,8.8115,8.7997,8.7689,8.746,8.7305,8.6961,8.6275,8.5623,8.5509,8.5509,8.5509,8.5509,8.5509,8.5509,8.5509,8.5509,8.5509,8.5509,8.5509,8.5509,8.5509,8.5509,8.5509,8.5509,8.5509,8.5509,8.5509,8.5509,8.5509,8.5509,8.5509,8.5509,8.5509,8.5509,8.5509,8.5509,8.5509,8.5509,8.5509,8.5509,8.5509,8.5509,8.5509,8.5509,8.5509,8.5509,8.5509,8.5509,8.5509,8.5509,8.5509,8.5509,8.5509,8.5509,8.5908,8.6226,8.6128,8.6026,8.5947,8.5942,8.6133,8.6225,8.5824,8.5625,8.5846,8.5628,8.4906,8.4475,8.4431,8.4462,8.5509,8.5509,8.5509,8.5509,8.5545,8.5657,8.5736,8.5738,8.5853,8.612,8.6044,8.6691,8.6996,8.7149,8.7648,8.8036,8.8076,8.8229,8.8224,8.8301,8.8606,8.8759,8.8835,8.91,8.9139,8.8532,8.8647,8.8647,8.8835,8.9103,8.948,8.9633,9.0127,9.0282,9.0471,9.0585,9.0397,9.032,9.032,9.0356,9.0394,9.0394,9.0053,8.9521,8.9065,8.8762,8.8685,8.8453,8.8265,8.8267,8.8153,8.7307,8.6347,8.5733,8.5695,8.5736,8.5662,8.5509,8.5509,8.5509,8.5509,8.5509,8.5509,8.5509,8.5509,8.5509,8.5509,8.5509,8.5509,8.5509,8.5509,8.5509,8.5509,8.5509,8.5509,8.5509,8.5509,8.5509,8.5509,8.5509,8.5509,8.5509,8.5509,8.5509,8.5509,8.5509,8.5509,8.5545,8.5545,8.5547,8.5583,8.5509,8.5509,8.5509,8.5509,8.6044,8.5967,8.6018,8.5901,8.6415,8.6845,8.6907,8.6836,8.6523,8.6492,8.6716,8.6641,8.6184,8.6217,8.6737,8.6296,8.5317,8.509,8.5224,8.5226,8.5509,8.5509,8.5509,8.5509,8.5621,8.6268,8.6612,8.6688,8.7269,8.7654,8.7615,8.7806,8.7883,8.7959,8.7997,8.8153,8.8459,8.8835,8.91,8.9253,8.9635,8.9979,8.9977,9.0053,9.017,9.0241,9.0053,8.9979,9.0015,9.0356,9.0244,9.0356,9.0509,9.0588,9.0626,9.0626,9.0626,9.0626,9.0626,9.0626,9.0626,9.0585,9.0547,9.0244,8.9979,8.9979,8.9865,8.9444,8.9103,8.9027,8.8456,8.8038,8.7613,8.7035,8.6688,8.6459,8.6079,8.5853,8.5814,8.5659,8.5547,8.5509,8.5662,8.5659,8.5621,8.5626,8.5819,8.5741,8.5702,8.5623,8.5509,8.5789,8.5585,8.5585,8.57,8.57,8.57,8.5741,8.5779,8.5893,8.5738,8.5509,8.5509,8.5509,8.5509,8.5509,8.5509,8.5654,8.5802,8.5766,8.5692,8.5621,8.5509,8.5509,8.5509,8.6273,8.6696,8.6838,8.696,8.7391,8.7758,8.7834,8.7722,8.7704,8.7434,8.731,8.7062,8.6718,8.6642,8.7054,8.6346,8.5642,8.5919,8.6211,8.5809,8.5509,8.5542,8.596,8.6194,8.6309,8.7114,8.7457,8.7536,8.7924,8.8115,8.8227,8.8494,8.8721,8.8835,8.9256,8.9409,8.9482,8.9709,8.9977,9.0091,9.0394,9.0626,9.0626,9.0626,9.0626,9.0585,9.0588,9.0626,9.0626,9.0585,9.0626,9.0588,9.0626,9.0626,9.0626,9.0626,9.0626,9.0626,9.0626,9.0626,9.0626,9.0626,9.0626,9.0626,9.0626,9.0626,9.0509,9.028,8.9974,8.9897,8.9597,8.9406,8.91,8.8604,8.7878,8.7496,8.7037,8.681,8.6849,8.6846,8.6887,8.6889,8.681,8.6846,8.6854,8.6938,8.6752,8.6787,8.6856,8.6828,8.6901,8.6781,8.6848,8.6856,8.6808,8.677,8.6815,8.6782,8.6742,8.6545,8.6082,8.5776,8.5509,8.5509,8.5509,8.5509,8.5588,8.5807,8.6141,8.6205,8.6207,8.6462,8.6505,8.6505,8.6505,8.6961,8.7465,8.7607,8.7921,8.8387,8.8634,8.8712,8.9089,8.938,8.8937,8.8247,8.828,8.8217,8.7788,8.7385,8.7306,8.7205,8.7149,8.709,8.6653,8.5621,8.5812,8.6492,8.6917,8.7187,8.7954,8.8344,8.838,8.8573,8.8723,8.8683,8.9253,8.9556,8.9745,9.0168,9.055,9.0626,9.0547,9.0509,9.0509,9.0585,9.0626,9.0626,9.0626,9.0626,9.0626,9.0626,9.0626,9.0626,9.0626,9.0626,9.0626,9.0626,9.0626,9.0626,9.0626,9.0626,9.0626,9.0626,9.0626,9.0626,9.0626,9.0626,9.0626,9.0626,9.0626,9.0588,9.0547,9.0509,9.0511,9.0511,9.0511,9.0473,8.9938,8.9291,8.8685,8.8303,8.8112,8.8036,8.7997,8.7806,8.7809,8.8,8.8038,8.8003,8.7822,8.7946,8.8125,8.8013,8.7934,8.7814,8.8032,8.8007,8.7969,8.7941,8.8056,8.7921,8.7814,8.7735,8.731,8.6579,8.6385,8.6464,8.6436,8.6627,8.6626,8.6705,8.6744,8.6994,8.7055,8.7172,8.7598,8.7768,8.7768,8.7806,8.7954,8.8273,8.8372,8.8782,8.9233,8.9442,8.9555,8.9956,9.0201,8.9989,8.9416,8.9561,8.9245,8.835,8.7954,8.8471,8.8423,8.7818,8.7591,8.7403,8.5962,8.6645,8.676,8.7226,8.7997,8.8835,8.9177,8.9251,8.99,9.0318,9.0094,9.0318,9.0359,9.0394,9.0473,9.0626,9.0626,9.0626,9.0626,9.0626,9.0626,9.0626,9.0626,9.0626,9.0626,9.0626,9.0626,9.0626,9.0626,9.0626,9.0626,9.0626,9.0626,9.0626,9.0626,9.0626,9.0626,9.0626,9.0626,9.0626,9.0626,9.0626,9.0626,9.0626,9.0626,9.0626,9.0626,9.0626,9.0626,9.0626,9.0626,9.0626,9.0588,9.0547,9.0432,8.99,8.9103,8.8115,8.8265,8.838,8.8418,8.8459,8.8344,8.8153,8.8382,8.838,8.8367,8.8093,8.8224,8.8339,8.842,8.8237,8.8183,8.8277,8.8481,8.8379,8.8323,8.8797,8.8718,8.8604,8.7985,8.7913,8.7916,8.7852,8.7829,8.7831,8.7813,8.7809,8.7959,8.8061,8.8195,8.8624,8.8797,8.8797,8.8874,8.9024,8.9072,8.9172,8.9501,8.9974,9.004,9.0106,9.0307,9.0432,9.0297,9.0039,8.9722,8.9165,8.8476,8.8344,8.8633,8.8378,8.7941,8.7893,8.7902,8.6459,8.6874,8.7794,8.841,8.8871,8.9671,9.0053,9.0129,9.0432,9.0626,9.0626,9.0626,9.0626,9.0626,9.0626,9.0626,9.0626,9.0626,9.0626,9.0626,9.0626,9.0626,9.0626,9.0626,9.0626,9.0626,9.0626,9.0626,9.0626,9.0626,9.0626,9.0626,9.0626,9.0626,9.0626,9.0626,9.0626,9.0626,9.0626,9.0626,9.0626,9.0626,9.0626,9.0626,9.0626,9.0626,9.0626,9.0626,9.0626,9.0626,9.0626,9.0626,9.0626,9.0588,9.0585,9.0547,8.9977,8.9597,8.9561,8.9482,8.9409,8.9485,8.9485,8.96,8.9523,8.9444,8.9439,8.9555,8.9538,8.9475,8.9431,8.9515,8.9513,8.9456,8.9244,8.9331,8.9352,8.9505,8.9663,8.9587,8.9472,8.9286,8.8986,8.8609,8.8428,8.8331,8.8344,8.839,8.8828,8.9342,8.9489,8.9663,8.9747,8.9747,8.9821,8.9936,8.9938,8.9992,8.9992,9.0359,9.0435,9.0547,9.0586,9.043,9.0147,8.9895,8.9662,8.9349,8.8842,8.8717,8.867,8.8246,8.7828,8.7847,8.776,8.7226,8.7564,8.8792,8.9406,8.9671,9.032,9.0588,9.0588,9.0588,9.0626,9.0626,9.0626,9.0626,9.0626,9.0626,9.0626,9.0626,9.0626,9.0626,9.0626,9.0626,9.0626,9.0626,9.0626,9.0626,9.0626,9.0626,9.0626,9.0626,9.0626,9.0626,9.0626,9.0626,9.0626,9.0626,9.0626,9.0626,9.0626,9.0626,9.0626,9.0626,9.0626,9.0626,9.0626,9.0626,9.0626,9.0626,9.0626,9.0626,9.0626,9.0626,9.0626,9.0626,9.0626,9.0626,9.0588,9.0359,9.0397,9.0359,9.0397,9.0588,9.0626,9.0626,9.0359,9.0435,9.0626,9.0585,9.0386,9.043,9.0473,9.0588,9.0511,9.0394,9.0318,9.0389,9.0547,9.0588,9.0315,9.0201,9.0124,9.0089,9.028,8.99,8.9291,8.8991,8.8838,8.8869,8.9008,8.9502,9.0149,9.0233,9.0244,9.0244,9.0203,9.0318,9.0471,9.0588,9.0626,9.0626,9.0626,9.0626,9.0544,9.0495,9.0266,8.992,8.9649,8.9356,8.93,8.9187,8.8656,8.8151,8.7972,8.7776,8.7767,8.766,8.8453,8.9136,8.9251,8.9747,9.0471,9.0588,9.0626,9.0626,9.0626,9.0626,9.0626,9.0626,9.0626,9.0626,9.0626,9.0626,9.0626,9.0626,9.0626,9.0626,9.0626,9.0626,9.0626,9.0626,9.0626,9.0626,9.0626,9.0626,9.0626,9.0626,9.0626,9.0626,9.0626,9.0626,9.0626,9.0626,9.0626,9.0626,9.0626,9.0626,9.0626,9.0626,9.0626,9.0626,9.0626,9.0626,9.0626,9.0626,9.0626,9.0626,9.0626,9.0626,9.0626,9.0626,9.0626,9.0626,9.0626,9.0626,9.0626,9.0626,9.0626,9.0626,9.0626,9.0626,9.0626,9.0626,9.0626,9.0626,9.0626,9.0626,9.0626,9.0626,9.0626,9.0626,9.0626,9.0626,9.0626,9.0588,9.0509,9.0588,9.0626,9.0626,9.0588,8.9941,8.9788,8.9638,8.9676,8.9816,8.9971,9.0465,9.0506,9.0511,9.0511,9.0511,9.055,9.0626,9.0626,9.0626,9.0626,9.0626,9.0626,9.0498,9.0274,8.9918,8.9587,8.9292,8.8944,8.8609,8.8262,8.7945,8.7677,8.7534,8.7414,8.736,8.7292,8.9027,8.9365,8.9862,9.028,9.0626,9.0626,9.0626,9.0626,9.0626,9.0626,9.0626,9.0626,9.0626,9.0626,9.0626,9.0626,9.0626,9.0626,9.0626,9.0626,9.0626,9.0626,9.0626,9.0626,9.0626,9.0626,9.0626,9.0626,9.0626,9.0626,9.0626,9.0626,9.0626,9.0626,9.0626,9.0626,9.0626,9.0626,9.0626,9.0626,9.0626,9.0626,9.0626,9.0626,9.0626,9.0626,9.0626,9.0626,9.0626,9.0626,9.0626,9.0626,9.0626,9.0626,9.0626,9.0626,9.0626,9.0626,9.0626,9.0626,9.0626,9.0626,9.0626,9.0626,9.0626,9.0626,9.0626,9.0626,9.0626,9.0626,9.0626,9.0626,9.0626,9.0626,9.0626,9.0626,9.0626,9.0626,9.0626,9.0626,9.0626,9.0626,9.0626,9.055,9.0511,9.0511,9.0588,9.0626,9.0626,9.0626,9.0626,9.0626,9.0626,9.0626,9.0626,9.0626,9.0626,9.0626,9.0626,9.0547,9.0475,9.0114,8.9837,8.9512,8.9085,8.8669,8.8193,8.7722,8.7513,8.7603,8.7401,8.7126,8.7042,8.7019,8.7019,8.9444,8.9747,9.0359,9.0626,9.0626,9.0626,9.0626,9.0626,9.0626,9.0626,9.0626,9.0626,9.0626,9.0626,9.0626,9.0626,9.0626,9.0626,9.0626,9.0626,9.0626,9.0626,9.0626,9.0626,9.0626,9.0626,9.0626,9.0626,9.0626,9.0626,9.0626,9.0626,9.0626,9.0626,9.0626,9.0626,9.0626,9.0626,9.0626,9.0626,9.0626,9.0626,9.0626,9.0626,9.0626,9.0626,9.0626,9.0626,9.0626,9.0626,9.0626,9.0626,9.0626,9.0626,9.0626,9.0626,9.0626,9.0626,9.0626,9.0626,9.0626,9.0626,9.0626,9.0626,9.0626,9.0626,9.0626,9.0626,9.0626,9.0626,9.0626,9.0626,9.0626,9.0626,9.0626,9.0626,9.0626,9.0626,9.0626,9.0626,9.0623,9.058,9.0626,9.0626,9.0626,9.0626,9.0626,9.0626,9.0626,9.0626,9.0626,9.0626,9.0626,9.0626,9.0626,9.0626,9.0626,9.0626,9.0585,9.0386,9.0236,8.9804,8.9314,8.8837,8.8393,8.794,8.7609,8.73,8.7385,8.7513,8.7269,8.7019,8.7019,8.7019,8.7019,8.9824,9.055,9.0585,9.0626,9.0626,9.0626,9.0626,9.0626,9.0626,9.0626,9.0626,9.0626,9.0626,9.0626,9.0626,9.0626,9.0626,9.0626,9.0626,9.0626,9.0626,9.0626,9.0626,9.0626,9.0626,9.0626,9.0626,9.0626,9.0626,9.0626,9.0626,9.0626,9.0626,9.0626,9.0626,9.0626,9.0626,9.0626,9.0626,9.0626,9.0626,9.0626,9.0626,9.0626,9.0626,9.0626,9.0626,9.0626,9.0626,9.0626,9.0626,9.0626,9.0626,9.0626,9.0626,9.0626,9.0626,9.0626,9.0626,9.0626,9.0626,9.0626,9.0626,9.0626,9.0626,9.0626,9.0626,9.0626,9.0626,9.0626,9.0626,9.0547,9.0506,9.0423,9.0412,9.0258,9.0186,9.0184,9.0075,9.013,9.0386,9.0569,9.058,9.0626,9.0626,9.0626,9.0626,9.0626,9.0626,9.0626,9.0626,9.0626,9.0626,9.0626,9.0626,9.0626,9.0626,9.0621,9.0427,9.0147,8.9832,8.9413,8.8847,8.8228,8.7879,8.7577,8.7312,8.7021,8.7183,8.7269,8.7183,8.7019,8.7019,8.7019,8.7019,9.0318,9.0626,9.0626,9.0626,9.0626,9.0626,9.0626,9.0626,9.0626,9.0626,9.0626,9.0626,9.0626,9.0626,9.0626,9.0626,9.0626,9.0626,9.0626,9.0626,9.0626,9.0626,9.0626,9.0626,9.0626,9.0626,9.0626,9.0626,9.0626,9.0626,9.0626,9.0626,9.0626,9.0626,9.0626,9.0626,9.0626,9.0626,9.0626,9.0626,9.0626,9.0626,9.0626,9.0626,9.0626,9.0626,9.0626,9.0626,9.0626,9.0626,9.0626,9.0626,9.0626,9.0626,9.0626,9.0626,9.0626,9.0626,9.0626,9.0626,9.0626,9.0626,9.0626,9.0626,9.0626,9.0626,9.0626,9.0561,9.0524,9.0532,9.0626,9.0144,8.999,8.9838,8.9705,8.9405,8.9273,8.9294,8.9254,8.9402,8.9628,9.0153,9.0359,9.0387,9.0386,9.0506,9.0547,9.0588,9.0626,9.0626,9.0626,9.0626,9.0626,9.0626,9.061,9.0506,9.031,9.0172,8.9969,8.9708,8.9353,8.8941,8.8511,8.7922,8.7586,8.7231,8.7111,8.7019,8.7019,8.7019,8.7019,8.7019,8.7019,8.7019,8.7019,9.0626,9.0626,9.0626,9.0626,9.0626,9.0626,9.0626,9.0626,9.0626,9.0626,9.0626,9.0626,9.0626,9.0626,9.0626,9.0626,9.0626,9.0626,9.0626,9.0626,9.0626,9.0626,9.0626,9.0626,9.0626,9.0626,9.0626,9.0626,9.0626,9.0626,9.0626,9.0626,9.0626,9.0626,9.0626,9.0626,9.0626,9.0626,9.0626,9.0626,9.0626,9.0626,9.0626,9.0626,9.0626,9.0626,9.0626,9.0626,9.0626,9.0626,9.0626,9.0626,9.0626,9.0626,9.0626,9.0626,9.0626,9.0626,9.0626,9.0626,9.0626,9.0626,9.0623,9.0626,9.0626,9.0626,9.0408,9.0353,9.0334,9.0144,8.9994,8.9519,8.9407,8.924,8.9091,8.8826,8.8766,8.88,8.8811,8.89,8.9029,8.9556,8.9976,9.0127,9.0147,9.0307,9.0465,9.0526,9.0553,9.0615,9.0618,9.0626,9.0626,9.0626,9.0484,9.0292,9.0043,8.9739,8.9465,8.9174,8.875,8.8323,8.7964,8.7643,8.7364,8.7119,8.7051,8.7019,8.7019,8.7019,8.7019,8.7019,8.7019,8.7019,8.7019,9.0626,9.0626,9.0626,9.0626,9.0626,9.0626,9.0626,9.0626,9.0626,9.0626,9.0626,9.0626,9.0626,9.0626,9.0626,9.0626,9.0626,9.0626,9.0626,9.0626,9.0626,9.0626,9.0626,9.0626,9.0626,9.0626,9.0626,9.0626,9.0626,9.0626,9.0626,9.0626,9.0626,9.0626,9.0626,9.0626,9.0626,9.0626,9.0626,9.0626,9.0626,9.0626,9.0626,9.0626,9.0626,9.0626,9.0626,9.0626,9.0626,9.0626,9.0626,9.0626,9.0626,9.0626,9.0626,9.0626,9.0626,9.0626,9.0572,9.0569,9.0446,9.0389,9.0359,9.0497,9.0556,9.0503,9.0209,8.9944,8.9769,8.9378,8.9023,8.8907,8.8794,8.8702,8.8643,8.8543,8.8536,8.8523,8.8518,8.8564,8.8628,8.8945,8.9184,8.9388,8.9727,9.0027,9.017,9.0278,9.035,9.0586,9.0597,9.0626,9.0626,9.0626,9.0418,9.014,8.9749,8.9458,8.8923,8.8582,8.8179,8.7812,8.7563,8.7314,8.7142,8.7019,8.7019,8.7019,8.7019,8.7019,8.7019,8.7019,8.7019,8.7019,8.7019,9.0626,9.0626,9.0626,9.0626,9.0626,9.0626,9.0626,9.0626,9.0626,9.0626,9.0626,9.0626,9.0626,9.0626,9.0626,9.0626,9.0626,9.0626,9.0626,9.0626,9.0626,9.0626,9.0626,9.0626,9.0626,9.0626,9.0626,9.0626,9.0626,9.0626,9.0626,9.0626,9.0626,9.0626,9.0626,9.0626,9.0626,9.0626,9.0626,9.0626,9.0626,9.0626,9.0626,9.0626,9.0626,9.0626,9.0626,9.0626,9.0626,9.0626,9.0626,9.0626,9.0626,9.0626,9.0626,9.0626,9.0626,9.058,9.0532,9.0201,8.9973,8.9888,8.9638,8.9947,9.0161,9.0195,8.985,8.9487,8.921,8.8814,8.8518,8.8337,8.8232,8.8126,8.8024,8.7878,8.7855,8.7853,8.7832,8.7887,8.7976,8.8268,8.8519,8.8807,8.9169,8.9534,8.9814,8.992,9.0061,9.0256,9.0284,9.0298,9.0306,9.0213,9.0223,8.9981,8.9556,8.9092,8.8548,8.8007,8.7622,8.7332,8.7184,8.7101,8.7023,8.7019,8.7019,8.7019,8.7019,8.7019,8.7019,8.7019,8.7019,8.7019,8.7019,9.0626,9.0626,9.0626,9.0626,9.0626,9.0626,9.0626,9.0626,9.0626,9.0626,9.0626,9.0626,9.0626,9.0626,9.0626,9.0626,9.0626,9.0626,9.0626,9.0626,9.0626,9.0626,9.0626,9.0626,9.0626,9.0626,9.0626,9.0626,9.0626,9.0626,9.0626,9.0626,9.0626,9.0626,9.0626,9.0626,9.0626,9.0626,9.0626,9.0626,9.0626,9.0626,9.0626,9.0626,9.0626,9.0626,9.0626,9.0626,9.0626,9.0626,9.0626,9.0626,9.0626,9.0626,9.0626,9.0626,9.0626,9.0427,9.0203,8.995,8.9637,8.9313,8.9003,8.9242,8.9411,8.9477,8.9157,8.8856,8.8584,8.8317,8.8042,8.7795,8.7678,8.7538,8.7301,8.7081,8.7068,8.7073,8.7081,8.7136,8.7357,8.7651,8.7957,8.8281,8.8529,8.8781,8.9082,8.9295,8.9563,8.9854,8.9714,8.9622,8.9669,8.9692,8.969,8.959,8.9023,8.846,8.7935,8.7439,8.7081,8.7019,8.706,8.706,8.7019,8.7019,8.7019,8.7019,8.7019,8.7019,8.7019,8.7019,8.7019,8.7019,8.7019,9.0626,9.0626,9.0626,9.0626,9.0626,9.0626,9.0626,9.0626,9.0626,9.0626,9.0626,9.0626,9.0626,9.0626,9.0626,9.0626,9.0626,9.0626,9.0626,9.0626,9.0626,9.0626,9.0626,9.0626,9.0626,9.0626,9.0626,9.0626,9.0626,9.0626,9.0626,9.0626,9.0626,9.0626,9.0626,9.0626,9.0626,9.0626,9.0626,9.0626,9.0626,9.0626,9.0626,9.0626,9.0626,9.0626,9.0626,9.0626,9.0626,9.0626,9.0626,9.0626,9.0626,9.0626,9.0626,9.0516,9.0489,9.0203,8.9821,8.9479,8.9105,8.8856,8.866,8.854,8.8531,8.8757,8.856,8.8313,8.8059,8.7749,8.7485,8.7427,8.7323,8.7325,8.7254,8.7368,8.759,8.7602,8.7635,8.7655,8.7727,8.7986,8.8,8.8381,8.8732,8.8514,8.8686,8.9043,8.9071,8.941,8.9318,8.9093,8.9191,8.9234,8.9028,8.8848,8.8323,8.7785,8.7407,8.7178,8.7038,8.7019,8.7019,8.7019,8.7019,8.7019,8.7019,8.7019,8.7019,8.7019,8.7019,8.7019,8.7019,8.7019,8.7019,9.0626,9.0626,9.0626,9.0626,9.0626,9.0626,9.0626,9.0626,9.0626,9.0626,9.0626,9.0626,9.0626,9.0626,9.0626,9.0626,9.0626,9.0626,9.0626,9.0626,9.0626,9.0626,9.0626,9.0626,9.0626,9.0626,9.0626,9.0626,9.0626,9.0626,9.0626,9.0626,9.0626,9.0626,9.0626,9.0626,9.0626,9.0626,9.0626,9.0626,9.0626,9.0626,9.0626,9.0626,9.0626,9.0626,9.0626,9.0626,9.0626,9.0626,9.0626,9.0626,9.0626,9.0618,9.058,9.0532,9.0129,8.9799,8.9412,8.892,8.8434,8.8068,8.7804,8.7538,8.7565,8.7914,8.8004,8.7757,8.755,8.725,8.7059,8.7057,8.7064,8.7187,8.7271,8.7688,8.81,8.8114,8.8152,8.8167,8.8182,8.8219,8.8194,8.8437,8.8832,8.9091,8.9313,8.9407,8.899,8.9035,8.9084,8.8945,8.8859,8.8805,8.8533,8.8354,8.7971,8.7662,8.7328,8.7151,8.7027,8.7019,8.7019,8.7019,8.7019,8.7019,8.7019,8.7019,8.7019,8.7019,8.7019,8.7019,8.7019,8.7019,8.7019,9.0626,9.0626,9.0626,9.0626,9.0626,9.0626,9.0626,9.0626,9.0626,9.0626,9.0626,9.0626,9.0626,9.0626,9.0626,9.0626,9.0626,9.0626,9.0626,9.0626,9.0626,9.0626,9.0626,9.0626,9.0626,9.0626,9.0626,9.0626,9.0626,9.0626,9.0626,9.0626,9.0626,9.0626,9.0626,9.0626,9.0626,9.0626,9.0626,9.0626,9.0626,9.0626,9.0626,9.0626,9.0626,9.0626,9.0626,9.0626,9.0626,9.0626,9.0626,9.0626,9.0519,9.0326,9.0195,9.0005,8.9648,8.9156,8.8814,8.8333,8.7771,8.7484,8.7314,8.7193,8.7143,8.7477,8.7464,8.73,8.7275,8.7025,8.7021,8.7027,8.706,8.7105,8.7111,8.7308,8.7484,8.7558,8.7542,8.7546,8.7618,8.7768,8.7853,8.8055,8.8463,8.8884,8.9259,8.9386,8.9023,8.8891,8.8878,8.8809,8.8807,8.8305,8.7788,8.7788,8.7804,8.7534,8.7273,8.7128,8.7019,8.7019,8.7019,8.7019,8.7019,8.7019,8.7019,8.7019,8.7019,8.7019,8.7019,8.7019,8.7019,8.7019,8.7019,9.0626,9.0626,9.0626,9.0626,9.0626,9.0626,9.0626,9.0626,9.0626,9.0626,9.0626,9.0626,9.0626,9.0626,9.0626,9.0626,9.0626,9.0626,9.0626,9.0626,9.0626,9.0626,9.0626,9.0626,9.0626,9.0626,9.0626,9.0626,9.0626,9.0626,9.0626,9.0626,9.0626,9.0626,9.0626,9.0626,9.0626,9.0626,9.0626,9.0626,9.0626,9.0626,9.0626,9.0626,9.0626,9.0626,9.0626,9.0626,9.0626,9.0626,9.0572,9.0492,9.0323,9.002,8.9739,8.9503,8.9013,8.8528,8.8119,8.7865,8.7476,8.7166,8.7042,8.7019,8.7027,8.7003,8.7034,8.7029,8.6999,8.7027,8.7019,8.7019,8.7019,8.7178,8.7177,8.7131,8.7186,8.7301,8.7332,8.7291,8.7416,8.7589,8.7794,8.7975,8.8357,8.8738,8.8935,8.8939,8.8988,8.907,8.9088,8.8971,8.8895,8.8254,8.7567,8.7504,8.782,8.7535,8.7299,8.7149,8.7019,8.7019,8.7019,8.7019,8.7019,8.7019,8.7019,8.7019,8.7019,8.7019,8.7019,8.7019,8.7019,8.7019,8.7019,9.0626,9.0626,9.0626,9.0626,9.0626,9.0626,9.0626,9.0626,9.0626,9.0626,9.0626,9.0626,9.0626,9.0626,9.0626,9.0626,9.0626,9.0626,9.0626,9.0626,9.0626,9.0626,9.0664,9.0779,9.0626,9.0779,9.0893,9.0662,9.0855,9.0741,9.0626,9.0626,9.0626,9.0626,9.0626,9.0626,9.0626,9.0626,9.0626,9.0626,9.0626,9.0626,9.0626,9.0626,9.0626,9.0626,9.0626,9.0626,9.0626,9.0626,9.0561,9.0353,9.002,8.9723,8.9405,8.8894,8.8397,8.8074,8.773,8.7452,8.7127,8.7081,8.7019,8.7019,8.7023,8.7023,8.7003,8.7003,8.7023,8.7023,8.7019,8.7019,8.706,8.752,8.7698,8.7675,8.7649,8.7884,8.8064,8.806,8.8096,8.8203,8.8312,8.8596,8.8997,8.9365,8.9727,8.9703,8.9543,8.943,8.927,8.9157,8.9005,8.8926,8.8579,8.7932,8.7944,8.7641,8.7332,8.7141,8.7019,8.7019,8.7019,8.7019,8.7019,8.7019,8.7019,8.7019,8.7019,8.7019,8.7019,8.7019,8.7019,8.7019,8.7019]},{"header":{"parameterUnit":"m.s-1","parameterCategory":1,"la1":31.0,"la2":29.5877,"lo1":-88.7671,"lo2":-86.6584,"dy":0.0162,"dx":0.0185,"nx":115,"ny":88,"refTime":"2023-10-27T06:00:00:Z","depth":0,"parameterNumber":3,"parameterNumberName":"V-component_of_WINDS"},"data":[0.0,0.0,0.0,0.0,0.0,0.0,0.0,0.0,0.0,0.0,0.0,0.0,0.0,0.0,0.0,0.0,0.0,0.0,0.0,0.0,0.0,0.0,0.0,0.0,0.0,0.0,0.0,0.0,0.0,0.0,0.0,0.0,0.0,0.0,0.0,0.0,0.0,0.0,0.0,0.0,0.0,0.0,0.0,0.0,0.0,0.0,0.0,0.0,0.0,0.0,0.0,0.0,0.0,0.0,0.0,0.0,0.0,0.0,0.0,0.0,0.0,0.0,0.0,0.0,0.0,0.0,0.0,0.0,0.0,0.0,0.0,0.0,0.0,0.0,0.0,0.0,0.0,0.0,0.0,0.0,0.0,0.0,0.0,0.0,0.0,0.0,0.0,0.0,0.0,0.0,0.0,0.0,0.0,0.0,0.0,0.0,0.0,0.0,0.0,0.0,0.0,0.0,0.0,0.0,0.0,0.0,0.0,0.0,0.0,0.0,0.0,0.0,0.0,0.0,0.0,0.0,0.0,0.0,0.0,0.0,0.0,0.0,0.0,0.0,0.0,0.0,0.0,0.0,0.0,0.0,0.0,0.0,0.0,0.0,0.0,0.0,0.0,0.0,0.0,0.0,0.0,0.0,0.0,0.0,0.0,0.0,0.0,0.0,0.0,0.0,0.0,0.0,0.0,0.0,0.0,0.0,0.0,0.0,0.0,0.0,0.0,0.0,0.0,0.0,0.0,0.0,0.0,0.0,0.0,0.0,0.0,0.0,0.0,0.0,0.0,0.0,0.0,0.0,0.0,0.0,0.0,0.0,0.0,0.0,0.0,0.0,0.0,0.0,0.0,0.0,0.0,0.0,0.0,0.0,0.0,0.0,0.0,0.0,0.0,0.0,0.0,0.0,0.0,0.0,0.0,0.0,0.0,0.0,0.0,0.0,0.0,0.0,0.0,0.0,0.0,0.0,0.0,0.0,0.0,0.0,0.0,0.0,0.0,0.0,0.0,0.0,0.0,0.0,0.0,0.0,0.0,0.0,0.0,0.0,0.0,0.0,0.0,0.0,0.0,0.0,0.0,0.0,0.0,0.0,0.0,0.0,0.0,0.0,0.0,0.0,0.0,0.0,0.0,0.0,0.0,0.0,0.0,0.0,0.0,0.0,0.0,0.0,0.0,0.0,0.0,0.0,0.0,0.0,0.0,0.0,0.0,0.0,0.0,0.0,0.0,0.0,0.0,0.0,0.0,0.0,0.0,0.0,0.0,0.0,0.0,0.0,0.0,0.0,0.0,0.0,0.0,0.0,0.0,0.0,0.0,0.0,0.0,0.0,0.0,0.0,0.0,0.0,0.0,0.0,0.0,0.0,0.0,0.0,0.0,0.0,0.0,0.0,0.0,0.0,0.0,0.0,0.0,0.0,0.0,0.0,0.0,0.0,0.0,0.0,0.0,0.0,0.0,0.0,0.0,0.0,0.0,0.0,0.0,0.0,0.0,0.0,0.0,0.0,0.0,0.0,0.0,0.0,0.0,0.0,0.0,0.0,0.0,0.0,0.0,0.0,0.0,0.0,0.0,0.0,0.0,0.0,0.0,0.0,0.0,0.0,0.0,0.0,0.0,0.0,0.0,0.0,0.0,0.0,0.0,0.0,0.0,0.0,0.0,0.0,0.0,0.0,0.0,0.0,0.0,0.0,0.0,0.0,0.0,0.0,0.0,0.0,0.0,0.0,0.0,0.0,0.0,0.0,0.0,0.0,0.0,0.0,0.0,0.0,0.0,0.0,0.0,0.0,0.0,0.0,0.0,0.0,0.0,0.0,0.0,0.0,0.0,0.0,0.0,0.0,0.0,0.0,0.0,0.0,0.0,0.0,0.0,0.0,0.0,0.0,0.0,0.0,0.0,0.0,0.0,0.0,0.0,0.0,0.0,0.0,0.0,0.0,0.0,0.0,0.0,0.0,0.0,0.0,0.0,0.0,0.0,0.0,0.0,0.0,0.0,0.0,0.0,0.0,0.0,0.0,0.0,0.0,0.0,0.0,0.0,0.0,0.0,0.0,0.0,0.0,0.0,0.0,0.0,0.0,0.0,0.0,0.0,0.0,0.0,0.0,0.0,0.0,0.0,0.0,0.0,0.0,0.0,0.0,0.0,0.0,0.0,0.0,0.0,0.0,0.0,0.0,0.0,0.0,0.0,0.0,0.0,0.0,0.0,0.0,0.0,0.0,0.0,0.0,0.0,0.0,0.0,0.0,0.0,0.0,0.0,0.0,0.0,0.0,0.0,0.0,0.0,0.0,0.0,0.0,0.0,0.0,0.0,0.0,0.0,0.0,0.0,0.0,0.0,0.0,0.0,0.0,0.0,0.0,0.0,0.0,0.0,0.0,0.0,0.0,0.0,0.0,0.0,0.0,0.0,0.0,0.0,0.0,0.0,0.0,0.0,0.0,0.0,0.0,0.0,0.0,0.0,0.0,0.0,0.0,0.0,0.0,0.0,0.0,0.0,0.0,0.0,0.0,0.0,0.0,0.0,0.0,0.0,0.0,0.0,0.0,0.0,0.0,0.0,0.0,0.0,0.0,0.0,0.0,0.0,0.0,0.0,0.0,0.0,0.0,0.0,0.0,0.0,0.0,0.0,0.0,0.0,0.0,0.0,0.0,0.0,0.0,0.0,0.0,0.0,0.0,0.0,0.0,0.0,0.0,0.0,0.0,0.0,0.0,0.0,0.0,0.0,0.0,0.0,0.0,0.0,0.0,0.0,0.0,0.0,0.0,0.0,0.0,0.0,0.0,0.0,0.0,0.0,0.0,0.0,0.0,0.0,0.0,0.0,0.0,0.0,0.0,0.0,0.0,0.0,0.0,0.0,0.0,0.0,0.0,0.0,0.0,0.0,0.0,0.0,0.0,0.0,0.0,0.0,0.0,0.0,0.0,0.0,0.0,0.0,0.0,0.0,0.0,0.0,0.0,0.0,0.0,0.0,0.0,0.0,0.0,0.0,0.0,0.0,0.0,0.0,0.0,0.0,0.0,0.0,0.0,0.0,0.0,0.0,0.0,0.0,0.0,0.0,0.0,0.0,0.0,0.0,0.0,0.0,0.0,0.0,0.0,0.0,0.0,0.0,0.0,0.0,0.0,0.0,0.0,0.0,0.0,0.0,0.0,0.0,0.0,0.0,0.0,0.0,0.0,0.0,0.0,0.0,0.0,0.0,0.0,0.0,0.0,0.0,0.0,0.0,0.0,0.0,0.0,0.0,0.0,0.0,0.0,0.0,0.0,0.0,0.0,0.0,0.0,0.0,0.0,0.0,0.0,0.0,0.0,0.0,0.0,0.0,0.0,0.0,0.0,0.0,0.0,0.0,0.0,0.0,0.0,0.0,0.0,0.0,0.0,0.0,0.0,0.0,0.0,0.0,0.0,0.0,0.0,0.0,0.0,0.0,0.0,0.0,0.0,0.0,0.0,0.0,0.0,0.0,0.0,0.0,0.0,0.0,0.0,0.0,0.0,0.0,0.0,0.0,0.0,0.0,0.0,0.0,0.0,0.0,0.0,0.0,0.0,0.0,0.0,0.0,0.0,0.0,0.0,0.0,0.0,0.0,0.0,0.0,0.0,0.0,0.0,0.0,0.0,0.0,0.0,0.0,0.0,0.0,0.0,0.0,0.0,0.0,0.0,0.0,0.0,0.0,0.0,0.0,0.0,0.0,0.0,0.0,0.0,0.0,0.0,0.0,0.0,0.0,0.0,0.0,0.0,0.0,0.0,0.0,0.0,0.0,0.0,0.0,0.0,0.0,0.0,0.0,0.0,0.0,0.0,0.0,0.0,0.0,0.0,0.0,0.0,0.0,0.0,0.0,0.0,0.0,0.0,0.0,0.0,0.0,0.0,0.0,0.0,0.0,0.0,0.0,0.0,0.0,0.0,0.0,0.0,0.0,0.0,0.0,0.0,0.0,0.0,0.0,0.0,0.0,0.0,0.0,0.0,0.0,0.0,0.0,0.0,0.0,0.0,0.0,0.0,0.0,0.0,0.0,0.0,0.0,0.0,0.0,0.0,0.0,0.0,0.0,0.0,0.0,0.0,0.0,0.0,0.0,0.0,0.0,0.0,0.0,0.0,0.0,0.0,0.0,0.0,0.0,0.0,0.0,0.0,0.0,0.0,0.0,0.0,0.0,0.0,0.0,0.0,0.0,0.0,0.0,0.0,0.0,0.0,0.0,0.0,0.0,0.0,0.0,0.0,0.0,0.0,0.0,0.0,0.0,0.0,0.0,0.0,0.0,0.0,0.0,0.0,0.0,0.0,0.0,0.0,0.0,0.0,0.0,0.0,0.0,0.0,0.0,0.0,0.0,0.0,0.0,0.0,0.0,0.0,0.0,0.0,0.0,0.0,0.0,0.0,0.0,0.0,0.0,0.0,0.0,0.0,0.0,0.0,0.0,0.0,0.0,0.0,0.0,0.0,0.0,0.0,0.0,0.0,0.0,0.0,0.0,0.0,0.0,0.0,0.0,0.0,0.0,0.0,0.0,0.0,0.0,0.0,0.0,0.0,0.0,0.0,0.0,0.0,0.0,0.0,0.0,0.0,0.0,0.0,0.0,0.0,0.0,0.0,0.0,0.0,0.0,0.0,0.0,0.0,0.0,0.0,0.0,0.0,0.0,0.0,0.0,0.0,0.0,0.0,0.0,0.0,0.0,0.0,0.0,0.0,0.0,0.0,0.0,0.0,0.0,0.0,0.0,0.0,0.0,0.0,0.0,0.0,0.0,0.0,0.0,0.0,0.0,0.0,0.0,0.0,0.0,0.0,0.0,0.0,0.0,0.0,0.0,0.0,0.0,0.0,0.0,0.0,0.0,0.0,0.0,0.0,0.0,0.0,0.0,0.0,0.0,0.0,0.0,0.0,0.0,0.0,0.0,0.0,0.0,0.0,0.0,0.0,0.0,0.0,0.0,0.0,0.0,0.0,0.0,0.0,0.0,0.0,0.0,0.0,0.0,0.0,0.0,0.0,0.0,0.0,0.0,0.0,0.0,0.0,0.0,0.0,0.0,0.0,0.0,0.0,0.0,0.0,0.0,0.0,0.0,0.0,0.0,0.0,0.0,0.0,0.0,0.0,0.0,0.0,0.0,0.0,0.0,0.0,0.0,0.0,0.0,0.0,0.0,0.0,0.0,0.0,0.0,0.0,0.0,0.0,0.0,0.0,0.0,0.0,0.0,0.0,0.0,0.0,0.0,0.0,0.0,0.0,0.0,0.0,0.0,0.0,0.0,0.0,0.0,0.0,0.0,0.0,0.0,0.0,0.0,0.0,0.0,0.0,0.0,0.0,0.0,0.0,0.0,0.0,0.0,0.0,0.0,0.0,0.0,0.0,0.0,0.0,0.0,0.0,0.0,0.0,0.0,0.0,0.0,0.0,0.0,0.0,0.0,0.0,0.0,0.0,0.0,0.0,0.0,0.0,0.0,0.0,0.0,0.0,0.0,0.0,0.0,0.0,0.0,0.0,0.0,0.0,0.0,0.0,0.0,0.0,0.0,0.0,0.0,0.0,0.0,0.0,0.0,0.0,0.0,0.0,0.0,0.0,0.0,0.0,0.0,0.0,0.0,0.0,0.0,0.0,0.0,0.0,0.0,0.0,0.0,0.0,0.0,0.0,0.0,0.0,0.0,0.0,0.0,0.0,0.0,0.0,0.0,0.0,0.0,0.0,0.0,0.0,0.0,0.0,0.0,0.0,0.0,0.0,0.0,0.0,0.0,0.0,0.0,0.0,0.0,0.0,0.0,0.0,0.0,0.0,0.0,0.0,0.0,0.0,0.0,0.0,0.0,0.0,0.0,0.0,0.0,0.0,0.0,0.0,0.0,0.0,0.0,0.0,0.0,0.0,0.0,0.0,0.0,0.0,0.0,0.0,0.0,0.0,0.0,0.0,0.0,0.0,0.0,0.0,0.0,0.0,0.0,0.0,0.0,0.0,0.0,0.0,0.0,0.0,0.0,0.0,0.0,0.0,0.0,0.0,0.0,0.0,0.0,0.0,0.0,0.0,0.0,0.0,0.0,0.0,0.0,0.0,0.0,0.0,0.0,0.0,0.0,0.0,0.0,0.0,0.0,0.0,0.0,0.0,0.0,0.0,0.0,0.0,0.0,0.0,0.0,0.0,0.0,0.0,0.0,0.0,0.0,0.0,0.0,0.0,0.0,0.0,0.0,0.0,0.0,0.0,0.0,0.0,0.0,0.0,0.0,0.0,0.0,0.0,0.0,0.0,0.0,0.0,0.0,0.0,0.0,0.0,0.0,0.0,0.0,0.0,0.0,0.0,0.0,0.0,0.0,0.0,0.0,0.0,0.0,0.0,0.0,0.0,0.0,0.0,0.0,0.0,0.0,0.0,0.0,0.0,0.0,0.0,0.0,0.0,0.0,0.0,0.0,0.0,0.0,0.0,0.0,0.0,0.0,0.0,0.0,0.0,0.0,0.0,0.0,0.0,0.0,0.0,0.0,0.0,0.0,0.0,0.0,0.0,0.0,0.0,0.0,0.0,0.0,0.0,0.0,0.0,0.0,0.0,0.0,0.0,0.0,0.0,0.0,0.0,0.0,0.0,0.0,0.0,0.0,0.0,0.0,0.0,0.0,0.0,0.0,0.0,0.0,0.0,0.0,0.0,0.0,0.0,0.0,0.0,0.0,0.0,0.0,0.0,0.0,0.0,0.0,0.0,0.0,0.0,0.0,0.0,0.0,0.0,0.0,0.0,0.0,0.0,0.0,0.0,0.0,0.0,0.0,0.0,0.0,0.0,0.0,0.0,0.0438,0.0328,0.0338,0.0328,0.0338,0.0328,0.0,0.0,0.0,0.0,0.0,0.0,0.0,0.0,0.0,0.0,0.0,0.0,0.0,0.0,0.0,0.0,0.0,0.0,0.0,0.0,0.0,0.0,0.0,0.0,0.0,0.0,0.0,0.0,0.0,0.0,0.0,0.0,0.0,0.0,0.0,0.0,0.0,0.0,0.0,0.0,0.0,0.0,0.0,0.0,0.0,0.0,0.0,0.0,0.0,0.0,0.0,0.0,0.0,0.0,0.0,0.0,0.0,0.0,0.0,0.0,0.0,0.0,0.0,0.0,0.0,0.0,0.0,0.0,0.0,0.0,0.0,0.0,0.0,0.0,0.0,0.0,0.0,0.0,0.0,0.0,0.0,0.0,0.0,0.0,0.0,0.0,0.0,0.0,0.0,0.0,0.0,0.0,0.0,0.0,0.0,0.0,0.0,0.0,0.0,0.0,0.0,0.0,0.0,0.0,0.0,0.0,0.0,0.0,0.2162,0.1505,0.1159,0.114,0.114,0.115,0.0,0.0,0.0,0.0,0.0,0.0,0.0,0.0,0.0,0.0,0.0,0.0,0.0,0.0,0.0,0.0,0.0,0.0,0.0,0.0,0.0,0.0,0.0,0.0,0.0,0.0,0.0,0.0,0.0,0.0,0.0,0.0,0.0,0.0,0.0,0.0,0.0,0.0,0.0,0.0,0.0,0.0,0.0,0.0,0.0,0.0,0.0,0.0,0.0,0.0,0.0,0.0,0.0,0.0,0.0,0.0,0.0,0.0,0.0,0.0,0.0,0.0,0.0,0.0,0.0,0.0,0.0,0.0,0.0,0.0,0.0,0.0,0.0,0.0,0.0,0.0,0.0,0.0,0.0,0.0,0.0,0.0,0.0,0.0,0.0,0.0,0.0,0.0,0.0,0.0,0.0,0.0,0.0,0.0,0.0,0.0,0.0,0.0,0.0,0.0,0.0,0.0,0.0,0.0,0.0,0.0,0.0,0.0,0.0,0.2288,0.2053,0.1898,0.1907,0.1907,0.1907,0.0,0.0,0.0,0.0,0.0,0.0,0.0,0.0,0.0,0.0,0.0,0.0,0.0,0.0,0.0,0.0,0.0,0.0,0.0,0.0,0.0,0.0,0.0,0.0,0.0,0.0,0.0,0.0,0.0,0.0,0.0,0.0,0.0,0.0,0.0,0.0,0.0,0.0,0.0,0.0,0.0,0.0,0.0,0.0,0.0,0.0,0.0,0.0,0.0,0.0,0.0,0.0,0.0,0.0,0.0,0.0,0.0,0.0,0.0,0.0,0.0,0.0,0.0,0.0,0.0,0.0,0.0,0.0,0.0,0.0,0.0,0.0,0.0,0.0,0.0,0.0,0.0,0.0,0.0,0.0,0.0,0.0,0.0,0.0,0.0,0.0,0.0,0.0,0.0,0.0,0.0,0.0,0.0,0.0,0.0,0.0,0.0,0.0,0.0,0.0,0.0,0.0,0.0,0.0,0.0,0.0,0.0,0.0,0.0,0.2287,0.0,0.229,0.229,0.229,0.229,0.0,0.0,0.0,0.0,0.0,0.0,0.0,0.0,0.0,0.0,0.0,0.0,0.0,0.0,0.0,0.0,0.0,0.0,0.0,0.0,0.0,0.0,0.0,0.0,0.0,0.0,0.0,0.0,0.0,0.0,0.0,0.0,0.0,0.0,0.0,0.0,0.0,0.0,0.0,0.0,0.0,0.0,0.0,0.0,0.0,0.0,0.0,0.0,0.0,0.0,0.0,0.0,0.0,0.0,0.0,0.0,0.0,0.0,0.0,0.0,0.0,0.0,0.0,0.0,0.0,0.0,0.0,0.0,0.0,0.0,0.0,0.0,0.0,0.0,0.0,0.0,0.0,0.0,0.0,0.0,0.0,0.0,0.0,0.0,0.0,0.0,0.0,0.0,0.0,0.0,0.0,0.0,0.0,0.0,0.0,0.0,0.0,0.0,0.0,0.0,0.0,0.0,0.0,0.0,0.0,0.0,0.0,0.0,0.2287,0.2287,0.2287,0.2287,0.2287,0.2287,0.2287,0.0,0.0,0.0,0.0,0.0,0.0,0.0,0.0,0.0,0.0,0.0,0.0,0.0,0.0,0.0,0.0,0.0,0.0,0.0,0.0,0.0,0.0,0.0,0.0,0.0,0.0,0.0,0.0,0.0,0.0,0.0,0.0,0.0,0.0,0.0,0.0,0.0,0.0,0.0,0.0,0.0,0.0,0.0,0.0,0.0,0.0,0.0,0.0,0.0,0.0,0.0,0.0,0.0,0.0,0.0,0.0,0.0,0.0,0.0,0.0,0.0,0.0,0.0,0.0,0.0,0.0,0.0,0.0,0.0,0.0,0.0,0.0,0.0,0.0,0.0,0.0,0.0,0.0,0.0,0.0,0.0,0.0,0.0,0.0,0.0,0.0,0.0,0.0,0.0,0.0,0.0,0.0,0.0,0.0,0.0,0.0,0.0,0.0,0.0,0.0,0.0,0.0,0.0,0.0,0.0,0.0,0.0,0.0,0.0,0.2287,0.2287,0.2287,0.2287,0.2287,0.2287,0.0,0.0,0.0,0.0,0.0,0.0,0.0,0.0,0.0,0.0,0.0,0.0,0.0,0.0,0.0,0.0,0.0,0.0,0.0,0.0,0.0,0.0,0.0,0.0,0.0,0.0,0.0,0.0,0.0,0.0,0.0,0.0,0.0,0.0,0.0,0.0,0.0,0.0,0.0,0.0,0.0,0.0,0.0,0.0,0.0,0.0,0.0,0.0,0.0,0.0,0.0,0.0,0.0,0.0,0.0,0.0,0.0,0.0,0.0,0.0,0.0,0.0,0.0,0.0,0.0,0.0,0.0,0.0,0.0,0.0,0.0,0.0,0.0,0.0,0.0,0.0,0.0,0.0,0.0,0.0,0.0,0.0,0.0,0.0,0.0,0.0,0.0,0.0,0.0,0.0,0.0,0.0,0.0,0.0,0.0,0.0,0.0,0.0,0.0,0.0,0.0,0.0,0.0,0.0,0.0,0.0,0.0,0.0,0.0,0.2314,0.2287,0.2287,0.2287,0.2287,0.2287,0.2287,0.0,0.0,0.0,0.0,0.0,0.0,0.0,0.0,0.0,0.0,0.0,0.0,0.0,0.0,0.0,0.0,0.0,0.0,0.0,0.0,0.0,0.0,0.0,0.0,0.0,0.0,0.0,0.0,0.0,0.0,0.0,0.0,0.0,0.0,0.0,0.0,0.0,0.0,0.0,0.0,0.0,0.0,0.0,0.0,0.0,0.0,0.0,0.0,0.0,0.0,0.0,0.0,0.0,0.0,0.0,0.0,0.0,0.0,0.0,0.0,0.0,0.0,0.0,0.0,0.0,0.0,0.0,0.0,0.0,0.0,0.0,0.0,0.0,0.0,0.0,0.0,0.0,0.0,0.0,0.0,0.0,0.0,0.0,0.0,0.0,0.0,0.0,0.0,0.0,0.0,0.0,0.0,0.0,0.0,0.0,0.0,0.0,0.0,0.0,0.0,0.0,0.0,0.0,0.0,0.0,0.0,0.0,0.0,0.2314,0.2287,0.2287,0.2287,0.2287,0.2287,0.0,0.0,0.0,0.0,0.0,0.0,0.0,0.0,0.0,0.0,0.0,0.0,0.0,0.0,0.0,0.0,0.0,0.0,0.0,0.0,0.0,0.0,0.0,0.0,0.0,0.0,0.0,0.0,0.0,0.0,0.0,0.0,0.0,0.0,0.0,0.0,0.0,0.0,0.0,0.0,0.0,0.0,0.0,0.0,0.0,0.0,0.0,0.0,0.0,0.0,0.0,0.0,0.0,0.0,0.0,0.0,0.0,0.0,0.0,0.0,0.0,0.0,0.0,0.0,0.0,0.0,0.0,0.0,0.0,0.0,0.0,0.0,0.0,0.0,0.0,0.0,0.0,0.0,0.0,0.0,0.0,0.0,0.0,0.0,0.0,0.0,0.0,0.0,0.0,0.0,0.0,0.0,0.0,0.0,0.0,0.0,0.0,0.0,0.0,0.0,0.0,0.0,0.0,0.0,0.0,0.0,0.0,0.0,0.0,0.2369,0.2287,0.2287,0.2287,0.2287,0.2287,0.0,0.0,0.0,0.0,0.0,0.0,0.0,0.0,0.0,0.0,0.0,0.0,0.0,0.0,0.0,0.0,0.0,0.0,0.0,0.0,0.0,0.0,0.0,0.0,0.0,0.0,0.0,0.0,0.0,0.0,0.0,0.0,0.0,0.0,0.0,0.0,0.0,0.0,0.0,0.0,0.0,0.0,0.0,0.0,0.0,0.0,0.0,0.0,0.0,0.0,0.0,0.0,0.0,0.0,0.0,0.0,0.0,0.0,0.0,0.0,0.0,0.0,0.0,0.0,0.0,0.0,0.0,0.0,0.0,0.0,0.0,0.0,0.0,0.0,0.0,0.0,0.0,0.0,0.0,0.0,0.0,0.0,0.0,0.0,0.0,0.0,0.0,0.0,0.0,0.0,0.0,0.0,0.0,0.0,0.0,0.0,0.0,0.0,0.0,0.0,0.0,0.0,0.0,0.0,0.0,0.0,0.0,0.0,0.3912,0.2333,0.2287,0.2287,0.2287,0.2287,0.2615,0.0,0.0,0.0,0.0,0.0,0.0,0.0,0.0,0.0,0.0,0.0,0.0,0.0,0.0,0.0,0.0,0.0,0.0,0.0,0.0,0.0,0.0,0.0,0.0,0.0,0.0,0.0,0.0,0.0,0.0,0.0,0.0,0.0,0.0,0.0,0.0,0.0,0.0,0.0,0.0,0.0,0.0,0.0,0.0,0.0,0.0,0.0,0.0,0.0,0.0,0.0,0.0,0.0,0.0,0.0,0.0,0.0,0.0,0.0,0.0,0.0,0.0,0.0,0.0,0.0,0.0,0.0,0.0,0.0,0.0,0.0,0.0,0.0,0.0,0.0,0.0,0.0,0.0,0.0,0.0,0.0,0.0,0.0,0.0,0.0,0.0,0.0,0.0,0.0,0.0,0.0,0.0,0.0,0.0,0.0,0.0,0.0,0.0,0.0,0.0,0.0,0.0,0.0,0.0,0.0,0.0,0.0,0.0,0.3921,0.2333,0.2287,0.2287,0.2287,0.2287,0.2968,0.0,0.0,0.0,0.0,0.0,0.0,0.0,0.0,0.0,0.0,0.0,0.0,0.0,0.0,0.0,0.0,0.0,0.0,0.0,0.0,0.0,0.0,0.0,0.0,0.0,0.0,0.0,0.0,0.0,0.0,0.0,0.0,0.0,0.0,0.0,0.0,0.0,0.0,0.0,0.0,0.0,0.0,0.0,0.0,0.0,0.0,0.0,0.0,0.0,0.0,0.0,0.0,0.0,0.0,0.0,0.0,0.0,0.0,0.0,0.0,0.0,0.0,0.0,0.0,0.0,0.0,0.0,0.0,0.0,0.0,0.0,0.0,0.0,0.0,0.0,0.0,0.0,0.0,0.0,0.0,0.0,0.0,0.0,0.0,0.0,0.0,0.0,0.0,0.0,0.0,0.0,0.0,0.0,0.0,0.0,0.0,0.0,0.0,0.0,0.0,0.0,0.0,0.0,0.0,0.0,0.0,0.0,0.0,0.3914,0.2342,0.2287,0.2287,0.2287,0.2287,0.2451,0.0,0.0,0.0,0.0,0.0,0.0,0.0,0.0,0.0,0.0,0.0,0.0,0.0,0.0,0.0,0.0,0.0,0.0,0.0,0.0,0.0,0.0,0.0,0.0,0.0,0.0,0.0,0.0,0.0,0.0,0.0,0.0,0.0,0.0,0.0,0.0,0.0,0.0,0.0,0.0,0.0,0.0,0.0,0.0,0.0,0.0,0.0,0.0,1.1289,0.0,0.0,0.0,0.0,0.0,0.0,0.0,0.0,0.0,0.0,0.0,0.0,0.0,0.0,0.0,0.0,0.0,0.0,0.0,0.0,0.0,0.0,0.0,0.0,0.0,0.0,0.0,0.0,0.0,0.0,0.0,0.0,0.0,0.0,0.0,0.0,0.0,0.0,0.0,0.0,0.0,0.0,0.0,0.0,0.0,0.0,0.0,0.0,0.0,0.0,0.0,0.0,0.0,0.0,0.0,0.0,0.0,0.0,0.0,0.5368,0.4536,0.4509,0.4166,0.3478,0.3432,0.3423,0.0,0.0,0.0,0.0,0.0,0.0,0.0,0.0,0.0,0.0,0.0,0.0,0.0,0.0,0.0,0.0,0.0,0.0,0.0,0.0,0.0,0.0,0.0,0.0,0.0,0.0,0.0,0.0,0.0,0.0,0.0,0.0,0.0,0.0,0.0,0.0,0.0,0.0,0.0,0.0,0.0,0.0,0.0,0.0,0.0,0.0,0.0,0.0,0.0,0.0,0.0,0.0,0.0,0.0,0.0,0.0,0.0,0.0,0.0,0.0,0.0,0.0,0.0,0.0,0.0,0.0,0.0,0.0,0.0,0.0,0.0,0.0,0.0,0.0,0.0,0.0,0.0,0.0,0.0,0.0,0.0,0.0,0.0,0.0,0.0,0.0,0.0,0.0,0.0,0.0,0.0,0.0,0.0,0.0,0.0,0.0,0.0,0.0,0.0,0.0,0.0,0.0,0.0,0.0,0.0,0.0,0.0,0.6984,0.6984,0.6984,0.6984,0.6364,0.5102,0.5047,0.4929,0.0,0.0,0.0,0.0,0.0,0.0,0.0,0.0,0.0,0.0,0.0,0.0,0.0,0.0,0.0,0.0,0.0,0.0,0.0,0.0,0.0,0.0,0.0,0.0,0.0,0.0,0.0,0.0,0.0,0.0,0.0,0.0,0.0,0.0,0.0,0.0,0.0,0.0,0.0,1.0494,1.1134,0.0,0.0,0.0,0.0,0.0,0.0,0.0,0.0,1.1602,0.0,0.0,0.0,0.0,0.0,0.0,0.0,0.0,0.0,0.0,0.0,0.0,0.0,0.0,0.0,0.0,0.0,0.0,0.0,0.0,0.0,0.0,0.0,0.0,0.0,0.0,0.0,0.0,0.0,0.0,0.0,0.0,0.0,0.0,0.0,0.0,0.0,0.0,0.0,0.0,0.0,0.0,0.0,0.0,0.0,0.0,0.0,0.0,0.0,0.0,0.0,0.0,0.0,0.0,0.0,0.0,0.7011,0.6984,0.6984,0.6984,0.6984,0.6879,0.6626,0.6635,0.6023,0.4784,0.0,0.0,0.0,0.0,0.0,0.0,0.0,0.0,0.0,0.0,0.0,0.0,0.0,0.0,0.0,0.0,0.0,0.0,0.0,0.0,0.0,0.0,0.0,0.0,0.0,0.0,0.0,0.0,0.0,0.0,0.0,0.0,0.0,0.0,0.0,0.0,0.0,0.0,0.0,1.1143,1.1561,0.0,0.0,0.0,0.0,0.0,0.0,0.0,0.0,1.1602,0.0,0.0,0.0,0.0,0.0,0.0,0.0,0.0,0.0,0.0,0.0,0.0,0.0,0.0,0.0,0.0,0.0,0.0,0.0,0.0,0.0,0.0,0.0,0.0,0.0,0.0,0.0,0.0,0.0,0.0,0.0,0.0,0.0,0.0,0.0,0.0,0.0,0.0,0.0,0.0,0.0,0.0,0.0,0.0,0.0,0.0,0.0,0.0,0.0,0.0,0.0,0.0,0.0,0.0,0.0,0.8316,0.897,0.8997,0.8257,0.8979,0.8627,0.7087,0.7774,0.7485,0.0,0.0,0.0,0.0,0.0,0.0,0.0,0.0,0.0,0.0,0.0,0.0,0.0,0.0,0.0,0.0,0.0,0.0,0.0,0.0,0.0,0.0,0.0,0.0,0.0,0.0,0.0,0.0,0.0,0.0,0.0,0.0,0.0,0.0,0.0,0.0,0.0,0.0,0.0,0.0,1.1377,1.1597,1.1602,0.0,0.0,0.0,0.0,0.0,0.0,1.1602,1.1602,0.0,0.0,0.0,0.0,0.0,0.0,0.0,0.0,0.0,0.0,0.0,0.0,0.0,0.0,0.0,0.0,0.0,0.0,0.0,0.0,0.0,0.0,0.0,0.0,0.0,0.0,0.0,0.0,0.0,0.0,0.0,0.0,0.0,0.0,0.0,0.0,0.0,0.0,0.0,0.0,0.0,0.0,0.0,0.0,0.0,0.0,0.0,0.0,0.0,0.0,0.0,0.0,0.0,0.0,0.0,0.9855,1.0975,1.1011,0.9882,1.0966,1.0428,0.8036,0.9105,0.9024,0.0,0.0,0.0,0.0,0.0,0.0,0.0,0.0,0.0,0.0,0.0,0.0,0.0,0.0,0.0,0.0,0.0,0.0,0.0,0.0,0.0,0.0,0.0,0.0,0.0,0.0,0.0,0.0,0.0,0.0,0.0,0.0,0.0,0.0,0.0,0.0,0.0,0.0,0.0,0.0,0.0,1.1599,1.1593,1.1602,0.0,0.0,0.0,0.0,1.1602,1.1602,0.0,0.0,0.0,0.0,0.0,0.0,0.0,0.0,0.0,0.0,0.0,0.0,0.0,0.0,0.0,0.0,0.0,0.0,0.0,0.0,0.0,0.0,0.0,0.0,0.0,0.0,0.0,0.0,0.0,0.0,0.0,0.0,0.0,0.0,0.0,0.0,0.0,0.0,0.0,0.0,0.0,0.0,0.0,0.0,0.0,0.0,0.0,0.0,0.0,0.0,0.0,0.0,0.0,0.0,0.0,0.0,1.1341,1.1512,1.1512,1.1343,1.1494,1.1431,1.1074,1.1253,1.0617,0.0,0.0,0.0,0.0,0.0,0.0,0.0,0.0,0.0,0.0,0.0,0.0,0.0,0.0,0.0,0.0,0.0,0.0,0.0,0.0,0.0,0.0,0.0,0.0,0.0,0.0,0.0,0.0,0.0,0.0,0.0,0.0,0.0,0.0,0.0,0.0,0.0,0.0,0.0,0.0,0.0,1.1593,1.1602,1.1602,1.1602,0.0,0.0,0.0,1.1602,1.1602,0.0,0.0,0.0,0.0,0.0,0.0,0.0,0.0,0.0,0.0,0.0,0.0,0.0,0.0,0.0,0.0,0.0,0.0,0.0,0.0,0.0,0.0,0.0,0.0,0.0,0.0,0.0,0.0,0.0,0.0,0.0,0.0,0.0,0.0,0.0,0.0,0.0,0.0,0.0,0.0,0.0,0.0,0.0,0.0,0.0,0.0,0.0,0.0,0.0,0.0,0.0,0.0,0.0,0.0,0.0,1.1602,1.1593,1.1683,1.1281,1.0481,1.1375,1.146,1.0538,1.1293,1.1408,0.0,0.0,0.0,0.0,0.0,0.0,0.0,0.0,0.0,0.0,0.0,0.0,0.0,0.0,0.0,0.0,0.0,0.0,0.0,0.0,0.0,0.0,0.0,0.0,0.0,0.0,0.0,0.0,0.0,0.0,0.0,0.0,0.0,0.0,0.0,0.0,0.0,0.0,0.0,0.0,0.0,0.0,1.1593,1.1602,0.0,0.0,0.0,1.1602,1.1602,0.0,0.0,0.0,0.0,0.0,0.0,0.0,0.0,0.0,0.0,0.0,0.0,0.0,0.0,0.0,0.0,0.0,0.0,0.0,0.0,0.0,0.0,0.0,0.0,0.0,0.0,0.0,0.0,0.0,0.0,0.0,0.0,0.0,0.0,0.0,0.0,0.0,0.0,0.0,0.0,0.0,0.0,0.0,0.0,0.0,0.0,0.0,0.0,0.0,0.0,0.0,0.0,0.0,0.0,0.0,0.0,0.0,1.1656,1.1798,1.1314,1.0226,1.1433,1.1522,1.0379,1.1329,0.0,0.0,0.0,0.0,0.0,0.0,0.0,0.0,0.0,0.0,0.0,0.0,0.0,0.0,0.0,0.0,0.0,0.0,0.0,0.0,0.0,0.0,0.0,0.0,0.0,0.0,0.0,0.0,0.0,0.0,0.0,0.0,0.0,0.0,0.0,0.0,0.0,0.0,0.0,0.0,0.0,0.0,1.1599,1.1593,1.1602,1.1602,0.0,0.0,1.1602,1.1602,1.1602,1.1602,0.0,0.0,0.0,0.0,0.0,0.0,0.0,0.0,0.0,0.0,0.0,0.0,0.0,0.0,0.0,0.0,0.0,0.0,0.0,0.0,0.0,0.0,0.0,0.0,0.0,0.0,0.0,0.0,0.0,0.0,0.0,0.0,0.0,0.0,0.0,0.0,0.0,0.0,0.0,0.0,0.0,0.0,0.0,0.0,0.0,0.0,0.0,0.0,0.0,0.0,0.0,0.0,0.0,0.0,0.0,1.1796,1.1984,1.2019,1.1926,1.2035,1.2042,1.1958,1.2019,1.2093,0.0,0.0,0.0,0.0,0.0,0.0,0.0,0.0,0.0,0.0,0.0,0.0,0.0,0.0,0.0,0.0,0.0,0.0,0.0,0.0,0.0,0.0,0.0,0.0,0.0,0.0,0.0,0.0,0.0,0.0,0.0,0.0,0.0,0.0,0.0,0.0,0.0,0.0,0.0,0.0,0.0,1.1593,1.1602,1.1602,1.1602,0.0,0.0,1.1602,1.1602,1.1602,1.1602,1.1602,0.0,0.0,0.0,0.0,0.0,0.0,0.0,0.0,0.0,0.0,0.0,0.0,0.0,0.0,0.0,0.0,0.0,0.0,0.0,0.0,0.0,0.0,0.0,0.0,0.0,0.0,0.0,0.0,0.0,0.0,0.0,0.0,0.0,0.0,0.0,0.0,0.0,0.0,0.0,0.0,0.0,0.0,0.0,0.0,0.0,0.0,0.0,0.0,0.0,0.0,0.0,0.0,0.0,1.185,1.1981,1.2138,1.2222,1.2231,1.2313,1.2341,1.2341,1.2269,1.2212,0.0,0.0,0.0,0.0,0.0,0.0,0.0,0.0,0.0,0.0,0.0,0.0,0.0,0.0,0.0,0.0,0.0,0.0,0.0,0.0,0.0,0.0,0.0,0.0,0.0,0.0,0.0,0.0,1.1602,1.1602,1.1602,0.0,0.0,0.0,0.0,0.0,0.0,0.0,0.0,0.0,0.0,1.1602,1.1602,1.1602,0.0,0.0,1.1602,1.1602,1.1602,1.1602,1.1602,1.1602,1.1602,0.0,0.0,0.0,0.0,0.0,0.0,0.0,0.0,0.0,0.0,0.0,0.0,0.0,0.0,0.0,0.0,0.0,0.0,0.0,0.0,0.0,0.0,0.0,0.0,0.0,0.0,0.0,0.0,0.0,0.0,0.0,0.0,0.0,0.0,0.0,0.0,0.0,0.0,0.0,0.0,0.0,0.0,0.0,0.0,0.0,0.0,0.0,0.0,0.0,0.0,0.0,0.0,1.201,1.2147,1.2296,1.2352,1.2362,1.2447,1.2511,1.2511,1.2416,1.2352,0.0,0.0,0.0,0.0,0.0,0.0,0.0,0.0,0.0,0.0,0.0,0.0,0.0,0.0,0.0,0.0,0.0,0.0,0.0,0.0,0.0,0.0,0.0,0.0,0.0,0.0,0.0,0.0,1.1602,1.1602,1.1602,0.0,0.0,0.0,0.0,0.0,0.0,0.0,0.0,0.0,0.0,1.1602,1.1602,1.1602,1.1602,1.1602,1.1602,1.1602,1.1602,1.1602,1.1602,1.1602,0.0,0.0,0.0,0.0,0.0,0.0,0.0,0.0,0.0,0.0,0.0,0.0,0.0,0.0,0.0,0.0,0.0,0.0,0.0,0.0,0.0,0.0,0.0,0.0,0.0,0.0,0.0,0.0,0.0,0.0,1.1602,0.0,0.0,0.0,0.0,0.0,0.0,0.0,0.0,0.0,0.0,0.0,0.0,0.0,0.0,0.0,0.0,0.0,0.0,0.0,0.0,0.0,0.0,0.0,1.2301,1.242,1.2504,1.2504,1.2511,1.2511,1.2511,1.2504,1.2504,1.2485,0.0,0.0,0.0,0.0,0.0,0.0,0.0,0.0,0.0,0.0,0.0,0.0,0.0,0.0,0.0,0.0,0.0,0.0,0.0,0.0,0.0,0.0,0.0,0.0,0.0,0.0,1.1602,1.1602,1.1602,0.0,0.0,0.0,0.0,0.0,0.0,0.0,0.0,0.0,0.0,1.1602,1.1602,1.1602,1.1602,1.1602,1.1602,1.1593,1.1593,1.1599,1.1608,1.1602,0.0,0.0,0.0,0.0,0.0,0.0,0.0,0.0,0.0,0.0,0.0,0.0,0.0,0.0,0.0,0.0,0.0,0.0,0.0,0.0,0.0,0.0,0.0,0.0,0.0,0.0,0.0,1.1602,1.1602,0.0,0.0,0.0,0.0,0.0,0.0,0.0,0.0,0.0,0.0,0.0,1.1602,1.1602,0.0,0.0,0.0,0.0,0.0,0.0,0.0,0.0,0.0,0.0,0.0,0.0,1.2348,1.2417,1.2484,1.2511,1.2511,1.2511,1.2511,1.2511,1.2511,1.2511,1.2511,0.0,0.0,0.0,0.0,0.0,0.0,0.0,0.0,0.0,0.0,0.0,0.0,0.0,0.0,0.0,0.0,0.0,0.0,0.0,0.0,0.0,0.0,0.0,0.0,0.0,1.1602,0.0,0.0,0.0,0.0,0.0,0.0,0.0,0.0,0.0,0.0,0.0,1.1602,1.1602,1.1602,1.1602,1.1602,1.1602,1.1602,0.0,0.0,0.0,0.0,0.0,0.0,0.0,0.0,0.0,0.0,0.0,0.0,0.0,0.0,1.1856,1.1628,1.1782,1.193,1.1946,0.0,0.0,0.0,0.0,0.0,0.0,0.0,0.0,0.0,0.0,0.0,0.0,0.0,0.0,0.0,0.0,1.1602,0.0,0.0,0.0,0.0,0.0,0.0,0.0,0.0,1.1631,1.1667,1.1676,1.1748,1.1823,0.0,1.1911,1.1864,0.0,0.0,0.0,0.0,0.0,0.0,0.0,0.0,1.2416,1.2504,1.2511,1.2511,1.2511,1.2511,1.2511,1.2511,1.2511,1.2511,1.2511,1.2423,1.2355,0.0,0.0,0.0,0.0,0.0,0.0,0.0,0.0,0.0,0.0,0.0,0.0,0.0,0.0,0.0,0.0,0.0,0.0,0.0,0.0,0.0,0.0,0.0,1.1602,0.0,0.0,0.0,0.0,0.0,0.0,0.0,0.0,0.0,1.1602,1.1602,1.1602,1.1602,1.1597,1.1658,1.1757,0.0,0.0,0.0,0.0,0.0,0.0,0.0,1.2116,1.2116,1.1914,1.1802,1.1895,1.2108,1.2261,1.2299,0.0,0.0,1.1831,1.1951,1.2116,1.2226,1.2201,1.2161,1.2116,1.2173,1.2291,0.0,0.0,0.0,0.0,0.0,0.0,0.0,0.0,1.1602,1.1602,0.0,1.1602,0.0,0.0,0.0,0.0,0.0,0.0,0.0,0.0,1.1757,1.1809,1.1823,1.2004,1.2095,1.2114,1.2104,1.2095,1.2102,1.2111,0.0,0.0,0.0,0.0,0.0,0.0,1.2511,1.2511,1.2511,1.2511,1.2511,1.2511,1.2511,1.2511,1.2511,1.2511,1.2511,1.2501,1.2431,1.2324,1.2301,0.0,0.0,0.0,0.0,0.0,0.0,0.0,0.0,0.0,0.0,0.0,0.0,0.0,0.0,0.0,0.0,0.0,0.0,0.0,0.0,1.1602,0.0,0.0,0.0,0.0,0.0,0.0,0.0,0.0,0.0,0.0,1.1638,1.1615,1.1608,1.1597,0.0,0.0,0.0,0.0,1.2107,1.21,1.1986,1.1965,1.2086,1.2158,1.2193,1.2127,0.0,0.0,1.2452,1.2512,1.2504,1.2488,1.2502,1.2423,1.2173,1.2122,1.2207,1.2428,1.2389,1.2256,1.2174,1.2319,1.2491,1.1968,0.0,0.0,0.0,0.0,1.1642,1.1602,1.1602,1.1602,1.1602,1.1602,1.1602,0.0,0.0,0.0,0.0,0.0,0.0,1.1959,1.1957,1.1998,1.2009,1.2027,1.2068,1.215,1.2233,1.2242,1.2287,1.2382,1.2382,1.2334,1.2239,0.0,0.0,0.0,0.0,1.2511,1.2511,1.2511,1.2511,1.2511,1.2511,1.2511,1.2511,1.2511,1.2511,1.2511,1.2511,1.2481,1.244,1.2355,0.0,0.0,0.0,0.0,0.0,0.0,0.0,0.0,0.0,0.0,0.0,0.0,0.0,0.0,0.0,0.0,0.0,0.0,0.0,1.1602,1.1602,1.1602,0.0,0.0,0.0,0.0,0.0,0.0,0.0,0.0,0.0,1.195,1.1827,1.1718,0.0,0.0,1.1782,1.2312,1.2401,1.231,1.2116,0.0,0.0,0.0,1.2349,1.2398,1.2398,1.2398,1.242,1.2494,1.2516,1.2514,1.2508,1.2513,1.2467,1.2409,1.2372,1.2411,1.2482,1.2461,1.2421,1.2392,1.2455,1.2511,1.2256,1.2226,1.2022,1.1925,1.1918,1.1821,1.1796,1.1805,1.1805,1.1805,1.1796,1.1796,1.1796,1.1796,1.1814,0.0,0.0,0.0,1.2088,1.2114,1.2156,1.2184,1.2184,1.2238,1.2294,1.2382,1.2372,1.241,1.2511,1.2511,1.2451,1.2398,0.0,0.0,1.2518,1.2562,1.2587,1.2587,1.266,1.2694,1.2684,1.2694,1.2704,1.2694,1.2614,1.258,1.258,1.2526,1.2511,1.2511,1.242,1.2355,0.0,0.0,0.0,0.0,0.0,0.0,0.0,0.0,0.0,0.0,0.0,1.1602,0.0,0.0,0.0,0.0,1.1602,1.1602,1.1602,1.1595,0.0,0.0,0.0,0.0,0.0,0.0,0.0,1.19,1.2043,1.2144,1.217,1.2074,1.1945,1.1814,1.1808,1.197,1.2435,0.0,1.2442,1.2275,1.2292,1.2325,1.2372,1.2447,1.2511,1.2511,1.2511,1.2511,1.2511,1.2511,1.2511,1.2511,1.2511,1.2511,1.2511,1.2627,1.2666,1.254,1.2511,1.2511,1.2511,1.2511,1.2511,1.2511,1.2481,1.2228,1.2125,1.2118,1.2114,1.2088,1.2088,1.2088,1.2088,1.2088,1.2088,1.2088,1.2088,1.2121,0.0,1.2118,1.2116,1.2139,1.2129,1.2246,1.2314,1.233,1.245,1.2511,1.2511,1.2511,1.2508,1.2512,1.2512,1.2519,1.2535,1.2535,1.2526,1.2519,1.2661,1.2726,1.2723,1.2908,1.2996,1.3003,1.3003,1.3003,1.2996,1.281,1.2726,1.2716,1.2593,1.2522,1.2512,1.2508,1.244,1.2318,0.0,0.0,0.0,0.0,0.0,0.0,0.0,0.0,0.0,0.0,0.0,0.0,0.0,0.0,0.0,1.162,0.0,1.1635,1.1605,0.0,0.0,0.0,1.2116,1.2116,1.1993,1.1962,1.2099,0.0,0.0,0.0,0.0,1.2276,1.2152,1.2131,1.2219,1.2454,1.2509,1.2511,1.2491,1.2504,1.2511,1.2497,1.2494,1.2511,1.2511,1.2511,1.2511,1.2511,1.2511,1.2511,1.2511,1.2511,1.2511,1.2511,1.2786,1.2996,1.2845,1.2699,1.2608,1.2533,1.2514,1.2511,1.2511,1.2485,1.2436,1.2341,1.2239,1.2152,1.2088,1.2088,1.2088,1.2088,1.2088,1.2088,1.2088,1.2114,1.2211,1.2256,1.2256,1.2364,1.2409,1.2409,1.2433,1.2444,1.2463,1.2488,1.2511,1.2511,1.2511,1.2543,1.2641,1.2658,1.2739,1.2877,1.2884,1.2813,1.2655,1.2847,1.2918,1.2928,1.2982,1.3003,1.3003,1.3003,1.3003,1.3003,1.2959,1.2928,1.2938,1.2759,1.2658,1.2651,1.2553,1.2488,1.2463,1.2362,0.0,0.0,0.0,0.0,0.0,0.0,0.0,0.0,0.0,1.1602,1.1602,0.0,1.164,0.0,1.1891,1.1977,1.1977,1.1766,0.0,0.0,1.2252,1.2319,1.2107,1.2115,1.217,1.2256,1.2341,1.2432,1.2457,1.2444,1.245,1.24,1.2398,1.2444,1.2492,1.2513,1.2511,1.2511,1.2518,1.2511,1.2518,1.2511,1.2518,1.2511,1.2511,1.2511,1.2511,1.2511,1.2511,1.2511,1.2511,1.2511,1.2518,1.2658,1.3351,1.4369,1.406,1.3235,1.2645,1.252,1.2518,1.2511,1.2511,1.2511,1.2463,1.2389,1.231,1.2276,1.2286,1.2276,1.2276,1.2276,1.2267,1.2286,1.2283,1.2355,1.2396,1.2386,1.2477,1.2511,1.2511,1.2511,1.2511,1.2511,1.2511,1.2516,1.2584,1.2603,1.2675,1.2837,1.2844,1.2874,1.3003,1.3054,1.303,1.2935,1.303,1.3098,1.3088,1.3139,1.319,1.3163,1.319,1.3169,1.318,1.3122,1.3091,1.3091,1.2918,1.2844,1.2837,1.2684,1.2593,1.2577,1.2458,1.2359,0.0,0.0,0.0,0.0,0.0,0.0,0.0,0.0,0.0,0.0,0.0,1.1724,0.0,1.2106,0.0,1.2144,1.1937,1.1958,1.2244,1.2403,1.2435,1.2286,1.2303,1.2348,1.2376,1.2463,1.2511,1.2511,1.2511,1.2511,1.2511,1.2514,1.2508,1.2515,1.2511,1.2522,1.2589,1.2584,1.263,1.2691,1.2715,1.2656,1.2541,1.2518,1.2511,1.2527,1.2953,1.3304,1.3306,1.3313,1.3093,1.2645,1.3196,1.4043,1.472,1.482,1.4166,1.3256,1.305,1.3098,1.2511,1.2511,1.2511,1.2511,1.2511,1.2511,1.2511,1.2511,1.2511,1.2511,1.2511,1.2511,1.2511,1.2511,1.2511,1.2511,1.2511,1.2511,1.2511,1.2511,1.2522,1.2519,1.2528,1.2539,1.263,1.2742,1.2729,1.2844,1.303,1.303,1.3037,1.3054,1.3186,1.3278,1.3336,1.337,1.334,1.3265,1.3373,1.3437,1.3458,1.3427,1.3451,1.3507,1.3333,1.3251,1.3312,1.3125,1.303,1.3023,1.2847,1.2723,1.2696,1.2593,1.2467,0.0,1.2307,0.0,0.0,0.0,0.0,0.0,0.0,0.0,0.0,1.185,1.1919,1.2457,1.2283,1.2178,1.2234,1.2189,1.2235,1.2477,1.252,1.2511,1.2511,1.2511,1.2511,1.2511,1.2511,1.2518,1.2535,1.2528,1.2535,1.2515,1.2511,1.2554,1.2623,1.2622,1.264,1.2726,1.2779,1.2928,1.3061,1.3152,1.3062,1.2695,1.2585,1.2585,1.2642,1.3678,1.4503,1.4488,1.4333,1.3917,1.2898,1.3902,1.4776,1.4936,1.5201,1.5064,1.4226,1.3955,1.4199,1.2511,1.2511,1.2511,1.2511,1.2511,1.2511,1.2511,1.2511,1.2511,1.2511,1.2511,1.2511,1.2511,1.2511,1.2511,1.2511,1.2511,1.2511,1.2511,1.2518,1.262,1.2655,1.2672,1.2833,1.2908,1.2935,1.2942,1.301,1.3163,1.3163,1.3214,1.3332,1.345,1.3717,1.4083,0.0,0.0,0.0,1.3552,1.3609,1.3717,1.3616,1.3737,1.4097,1.3628,0.0,1.3893,1.3438,1.3163,1.3156,1.3027,0.0,0.0,0.0,0.0,0.0,0.0,0.0,0.0,0.0,0.0,0.0,1.2233,1.2172,1.2111,1.2131,1.226,1.2475,1.2438,1.2429,1.2429,1.244,1.2441,1.2499,1.2517,1.2511,1.2511,1.2511,1.2511,1.2511,1.2511,1.2549,1.2654,1.2665,1.2633,1.2529,1.2519,1.2712,1.3177,1.3086,1.2941,1.2965,1.3245,1.3441,1.3472,1.3784,1.3748,1.3132,1.2895,1.3019,1.3342,1.4578,1.5627,1.5607,1.4928,1.4284,1.3989,1.4323,1.4893,1.5598,1.5581,1.5365,1.5207,1.5154,1.5293,1.2745,0.0,1.2745,1.2752,0.0,1.2752,1.2755,1.2728,1.2569,1.2511,1.2511,1.2511,1.2511,1.2518,1.2573,1.2587,1.2607,1.2691,1.2735,1.2752,1.2807,1.2857,1.2857,1.2942,1.3027,1.3105,1.3095,1.3176,1.3302,1.3373,1.3541,1.385,1.401,1.433,1.4786,1.4888,1.4788,1.4454,1.4426,1.4479,1.4533,1.4479,1.4564,1.4768,0.0,0.0,0.0,0.0,0.0,0.0,0.0,0.0,0.0,0.0,0.0,1.2752,1.2589,1.2498,1.2501,1.2375,1.2321,1.2396,1.2393,1.2375,1.2294,1.2362,1.2431,1.2486,1.2509,1.2511,1.2511,1.2511,1.2511,1.2511,1.2511,1.2511,1.2508,1.2559,1.2597,1.2614,1.2694,1.2779,1.2844,1.284,1.2825,1.2762,1.2738,1.3068,1.3839,1.3932,1.3823,1.3764,1.3954,1.4142,1.4163,1.4315,1.4399,1.3945,1.3836,1.4077,1.4599,1.5411,1.5985,1.5957,1.5515,1.5144,1.5132,1.5192,1.541,1.5834,1.584,1.5712,1.5734,1.574,1.5776,1.3003,1.3003,1.3003,1.3003,1.3003,1.3003,1.3003,1.2962,0.0,0.0,0.0,1.2592,1.2583,1.2609,1.2692,1.2753,1.277,1.2921,1.3003,1.3003,1.303,1.3027,1.3043,1.3054,1.3142,1.3268,1.3275,1.3356,1.3478,1.367,1.3974,1.4351,1.4536,1.4894,1.5356,1.546,1.5535,1.5602,1.5419,1.5355,1.5366,1.5355,1.5372,1.5447,1.4978,1.4823,1.5019,1.4231,1.3852,1.3991,1.3528,1.3258,1.3203,1.3095,1.3013,1.2996,1.284,1.2756,1.2753,1.2651,1.2583,1.2592,1.2602,1.2572,1.2518,1.2511,1.2511,1.2511,1.2511,1.2511,1.2511,1.2519,1.2513,1.2532,1.2559,1.2602,1.2596,1.2681,1.2753,1.2757,1.2884,1.304,1.3147,1.3157,1.3111,1.3077,1.3054,1.3567,1.458,1.4728,1.4569,1.4481,1.4601,1.477,1.4819,1.4925,1.4919,1.4928,1.4915,1.5185,1.5768,1.5992,1.5984,1.5993,1.5997,1.595,1.5968,1.5919,1.5997,1.5997,1.5997,1.5997,1.5997,1.5989,1.598,1.3013,1.3003,1.3003,1.3003,1.3003,1.3003,1.3003,1.3003,1.2955,1.2925,1.2935,1.2925,1.2925,1.2921,1.2952,1.2969,1.2969,1.2996,1.3003,0.0,1.3125,1.3166,1.3183,1.3285,1.3407,1.3538,1.3535,1.3609,1.3791,1.423,1.4501,1.4575,1.4707,1.5082,1.5633,1.6035,1.6429,1.6823,1.593,1.5521,1.5641,1.5528,1.5627,1.5951,1.5488,1.5191,1.5172,1.4714,1.4217,1.3702,1.358,1.3434,1.3214,1.3193,1.3122,1.3016,1.2972,1.2959,1.2959,1.2958,1.2935,1.2935,1.2925,1.2816,1.2538,1.2511,1.2511,1.2511,1.2525,1.2511,1.2508,1.2516,1.2544,1.2665,1.2823,1.2935,1.2921,1.2928,1.2969,1.2989,1.2982,1.3215,1.3572,1.3694,1.3618,1.3422,1.3566,1.3995,1.5247,1.5159,1.4754,1.4717,1.4935,1.5144,1.5298,1.5608,1.57,1.5811,1.5749,1.5755,1.5959,1.6027,1.6045,1.6013,1.6029,1.6021,1.6011,1.5997,1.6029,1.6037,1.6047,1.6029,1.6017,1.5988,1.5992,1.3917,1.3927,1.3917,1.3927,1.3927,1.3917,1.3927,1.3917,1.3927,1.3561,1.3023,1.3003,1.3003,1.2999,1.3074,1.3108,1.3108,1.319,1.321,1.3234,1.3366,1.3424,1.3437,1.3556,1.3654,1.3711,1.4004,1.4177,1.4272,1.4819,1.5207,1.5469,1.5859,1.6178,1.6445,1.6665,1.693,1.7236,1.6674,1.6411,1.6456,1.6408,1.6459,1.6622,1.6152,1.5956,1.6054,1.5433,1.4886,1.449,1.4386,1.4073,1.3472,1.359,1.3545,1.3241,1.3149,1.3111,1.3118,1.3033,1.3003,1.3003,1.3003,1.2931,1.2795,1.2772,1.2792,1.2821,1.2802,1.2772,1.2772,1.2608,1.2579,1.2745,1.3022,1.3173,1.309,1.3098,1.3189,1.3398,1.3539,1.3697,1.3914,1.4158,1.4254,1.4169,1.4604,1.5459,1.6192,1.5994,1.5646,1.5479,1.5546,1.5639,1.5729,1.5855,1.5986,1.5997,1.5997,1.5994,1.601,1.6157,1.6314,1.6341,1.6322,1.6228,1.6073,1.6196,1.629,1.632,1.6322,1.627,1.6083,1.6,1.5998,1.4832,1.4832,1.4721,1.4606,1.4502,1.4492,1.4492,1.4502,1.4471,1.4003,1.3254,1.3223,1.3196,1.3108,1.3224,1.3295,1.3305,1.342,1.3498,1.3491,1.3599,1.3654,1.3678,1.3861,1.3986,1.4074,1.4457,1.4643,1.4758,1.5256,1.5816,1.6298,1.6775,1.7009,1.7068,1.7057,1.7177,1.7398,1.7288,1.7198,1.7166,1.7166,1.7142,1.7068,1.6753,1.6598,1.6667,1.6065,1.5577,1.5269,1.5078,1.4616,1.3886,1.3937,1.3832,1.3469,1.3319,1.3241,1.3241,1.3146,1.3088,1.3088,1.3088,1.3095,1.3105,1.3088,1.3081,1.3076,1.3019,1.2989,1.2959,1.2782,1.2675,1.2862,1.3384,1.355,1.3243,1.3312,1.3513,1.3834,1.4005,1.4146,1.4431,1.4728,1.4938,1.513,1.5939,1.6557,1.6681,1.6662,1.6449,1.6226,1.6058,1.6033,1.61,1.6147,1.6155,1.6139,1.6048,1.6078,1.6163,1.6466,1.6674,1.6698,1.6632,1.648,1.6244,1.6379,1.6581,1.6639,1.662,1.6477,1.6238,1.6249,1.6212,1.5253,1.5175,1.4841,1.4316,1.3993,1.3961,1.3996,1.3971,1.3904,1.3843,1.3797,1.3916,1.3766,1.3414,1.3498,1.3548,1.3572,1.3704,1.3758,1.3747,1.3774,1.3785,1.3835,1.4283,1.4586,1.4681,1.4761,1.4901,1.5056,1.5499,1.6022,1.6592,1.6713,1.6825,1.6909,1.6947,1.7148,1.757,1.7565,1.7496,1.7383,1.7375,1.7294,1.709,1.7068,1.6833,1.652,1.6356,1.6059,1.5505,1.5086,1.4743,1.4483,1.3985,1.3649,1.359,1.3464,1.3383,1.3376,1.337,1.3359,1.3356,1.3353,1.3353,1.3342,1.3349,1.3251,1.3084,1.3009,1.3023,1.2999,1.2967,1.2973,1.3105,1.3985,1.4275,1.371,1.3755,1.4035,1.4066,1.4222,1.4445,1.5267,1.5486,1.5614,1.5781,1.6275,1.6727,1.6927,1.68,1.6657,1.6499,1.6265,1.6206,1.6429,1.6549,1.6529,1.6495,1.6244,1.6206,1.6443,1.6754,1.7045,1.6925,1.6814,1.6622,1.6585,1.6605,1.6715,1.6879,1.6809,1.66,1.6584,1.6723,1.6784,1.6073,1.6052,1.5852,1.566,1.5461,1.5458,1.5458,1.5458,1.5469,1.5309,1.5062,1.5137,1.4611,1.3647,1.3697,1.3714,1.3724,1.3774,1.3795,1.3808,1.3911,1.398,1.4019,1.4271,1.4587,1.4932,1.5191,1.5557,1.6027,1.6569,1.6968,1.72,1.7231,1.727,1.73,1.7312,1.747,1.7768,1.7768,1.7747,1.7697,1.7569,1.7491,1.7398,1.7323,1.7208,1.7004,1.6882,1.6578,1.6081,1.5989,1.5728,1.5168,1.5013,1.4723,1.4228,1.3757,1.3518,1.3522,1.3441,1.3397,1.3397,1.3397,1.3397,1.3397,1.3397,1.3353,1.3247,1.3251,1.3241,1.3248,1.3233,1.3261,1.3459,1.4569,1.5391,1.5349,1.4874,1.4753,1.5084,1.5169,1.5287,1.5654,1.5598,1.5735,1.6214,1.6676,1.694,1.7075,1.6979,1.6895,1.6882,1.6744,1.6636,1.6649,1.6784,1.6784,1.6632,1.6462,1.6462,1.6577,1.6876,1.7085,1.7088,1.6955,1.6879,1.6917,1.6904,1.6958,1.7047,1.7053,1.6893,1.6882,1.6998,1.7009,1.6744,1.6712,1.6604,1.6475,1.6355,1.6365,1.6347,1.6336,1.6218,1.5971,1.5648,1.553,1.4916,1.4035,1.4023,1.4067,1.4063,1.3978,1.3934,1.3958,1.4093,1.4217,1.4357,1.465,1.5007,1.5462,1.5857,1.6285,1.6766,1.718,1.7506,1.7637,1.7679,1.7692,1.7775,1.7775,1.7828,1.7973,1.7989,1.7978,1.7953,1.7848,1.7711,1.7617,1.7507,1.745,1.7442,1.7283,1.702,1.6692,1.6687,1.6407,1.5812,1.5771,1.5482,1.485,1.4334,1.4069,1.4069,1.3986,1.3923,1.3933,1.3923,1.3871,1.377,1.385,1.3776,1.3498,1.3623,1.3731,1.3652,1.3493,1.3395,1.3502,1.4856,1.5984,1.6411,1.5752,1.5385,1.5736,1.5728,1.5972,1.6075,1.5996,1.6129,1.6647,1.6928,1.7096,1.7083,1.7096,1.7074,1.709,1.7093,1.6996,1.6811,1.6913,1.6945,1.6854,1.6733,1.6733,1.6733,1.6973,1.7093,1.7091,1.7088,1.7074,1.7036,1.7061,1.7112,1.7101,1.7079,1.7079,1.7041,1.7085,1.7093,1.7077,1.7014,1.6608,1.622,1.5763,1.581,1.5785,1.5883,1.5385,1.5128,1.5125,1.475,1.4411,1.4408,1.4711,1.4771,1.468,1.4384,1.4258,1.4265,1.4307,1.455,1.4988,1.562,1.6137,1.6487,1.6644,1.6827,1.6926,1.6976,1.7271,1.7865,1.7896,1.7981,1.8103,1.8134,1.8163,1.8155,1.8167,1.8183,1.8187,1.8167,1.7973,1.7682,1.7606,1.7598,1.7582,1.745,1.7361,1.7339,1.6796,1.6429,1.6326,1.586,1.5481,1.5289,1.522,1.518,1.5138,1.5097,1.5079,1.5097,1.5022,1.4991,1.4575,1.4763,1.4667,1.385,1.4284,1.4415,1.4326,1.3937,1.3589,1.3631,1.4642,1.575,1.6531,1.6204,1.5784,1.5711,1.588,1.6197,1.6677,1.6936,1.69,1.7003,1.7069,1.7099,1.7091,1.7085,1.709,1.709,1.709,1.7082,1.7069,1.7061,1.7085,1.7023,1.6966,1.7036,1.7063,1.709,1.709,1.7098,1.7134,1.7134,1.7098,1.7106,1.715,1.7155,1.7116,1.7108,1.7098,1.7087,1.7092,1.709,1.7079,1.6925,1.6742,1.6607,1.6585,1.6596,1.6574,1.6431,1.6335,1.6336,1.6282,1.628,1.6269,1.6177,1.5535,1.4524,1.4356,1.4335,1.4472,1.478,1.5093,1.5354,1.5863,1.6378,1.6781,1.6888,1.7122,1.7529,1.7668,1.784,1.8047,1.8087,1.8142,1.818,1.8188,1.8188,1.8188,1.8188,1.8188,1.8188,1.8188,1.8123,1.7989,1.7844,1.7796,1.7784,1.7614,1.7528,1.7528,1.7213,1.7039,1.6978,1.6434,1.6066,1.5964,1.5645,1.5301,1.5049,1.5194,1.5006,1.4454,1.4964,1.5288,1.5049,1.4967,1.5103,1.5577,1.5077,1.4984,1.5311,1.4977,1.4617,1.4771,1.5692,1.6529,1.679,1.6666,1.6475,1.6516,1.6613,1.6776,1.6892,1.705,1.709,1.709,1.709,1.7098,1.7109,1.709,1.7106,1.709,1.709,1.709,1.709,1.7082,1.7082,1.7093,1.7082,1.7068,1.7084,1.7131,1.7139,1.7179,1.7207,1.7238,1.7224,1.7375,1.7375,1.7363,1.7318,1.7174,1.709,1.7216,1.7176,1.726,1.7272,1.7272,1.7272,1.7272,1.7272,1.726,1.7238,1.7094,1.7028,1.704,1.7029,1.7021,1.6981,1.6786,1.6085,1.4973,1.4932,1.4948,1.5084,1.5436,1.5719,1.5984,1.634,1.6761,1.7187,1.7311,1.7582,1.7951,1.8142,1.8188,1.8188,1.8188,1.8188,1.8188,1.8188,1.8188,1.8188,1.8188,1.8188,1.8188,1.8188,1.8188,1.8171,1.8074,1.7997,1.7997,1.7792,1.7695,1.7671,1.7559,1.7445,1.7347,1.6978,1.6695,1.6588,1.6267,1.5871,1.5631,1.575,1.5603,1.4981,1.5463,1.5891,1.5848,1.5592,1.6031,1.6583,1.6308,1.5868,1.6023,1.5758,1.5549,1.5862,1.662,1.7087,1.7085,1.6963,1.6968,1.7009,1.7022,1.7071,1.7087,1.7092,1.7083,1.7083,1.7187,1.7263,1.726,1.726,1.726,1.7238,1.7166,1.7196,1.7265,1.7325,1.7272,1.7255,1.7143,1.7122,1.7176,1.7206,1.7269,1.7291,1.7292,1.7328,1.7431,1.7594,1.7646,1.7645,1.752,1.7366,1.7361,1.7427,1.7472,1.7578,1.7582,1.7606,1.7574,1.7557,1.7557,1.757,1.7486,1.7129,1.7004,1.6985,1.6552,1.6526,1.6367,1.6549,1.6272,1.6249,1.6219,1.6143,1.6094,1.6174,1.6431,1.6818,1.7064,1.7402,1.7809,1.8055,1.814,1.8171,1.8191,1.8188,1.8188,1.8188,1.8188,1.8188,1.8188,1.8188,1.8188,1.8188,1.8188,1.8188,1.8188,1.8188,1.8188,1.8171,1.8163,1.8183,1.8005,1.7893,1.7877,1.7723,1.7533,1.7448,1.7344,1.7293,1.7108,1.7054,1.7035,1.6969,1.6945,1.688,1.662,1.6945,1.688,1.6733,1.6819,1.6934,1.7071,1.7032,1.6906,1.6472,1.6082,1.6096,1.6876,1.7066,1.7085,1.7088,1.7101,1.7109,1.7145,1.7158,1.7128,1.7117,1.7108,1.7116,1.7215,1.7418,1.762,1.7604,1.7559,1.7562,1.7517,1.7374,1.7311,1.7454,1.759,1.7523,1.7447,1.7282,1.72,1.7325,1.7404,1.7598,1.7645,1.7488,1.7515,1.7672,1.7829,1.7907,1.7881,1.771,1.7607,1.7671,1.776,1.7921,1.7606,1.7606,1.7606,1.7606,1.7606,1.7606,1.7606,1.7595,1.7425,1.7376,1.7392,1.7379,1.7377,1.7401,1.7511,1.7566,1.7574,1.7555,1.7169,1.6578,1.6727,1.7007,1.7281,1.768,1.7955,1.8091,1.8155,1.8188,1.8188,1.8188,1.8188,1.8188,1.8188,1.8188,1.8188,1.8188,1.8188,1.8188,1.8188,1.8188,1.8188,1.8188,1.8188,1.8188,1.8188,1.8188,1.8188,1.8131,1.8095,1.8087,1.7913,1.7723,1.7577,1.7536,1.7523,1.7455,1.7364,1.7132,1.6894,1.6976,1.6843,1.6461,1.6736,1.683,1.6615,1.6905,1.718,1.7345,1.7401,1.7354,1.7189,1.6901,1.6813,1.7059,1.709,1.7117,1.7142,1.7267,1.7392,1.7453,1.7522,1.7534,1.7421,1.7287,1.7216,1.7443,1.7756,1.7987,1.7967,1.7768,1.7606,1.7583,1.7482,1.7496,1.7638,1.7786,1.7812,1.7736,1.7581,1.7461,1.7559,1.7664,1.7861,1.79,1.7763,1.776,1.7917,1.8019,1.8067,1.8111,1.7989,1.7974,1.8017,1.8085,1.8162,1.7812,1.7812,1.7832,1.7823,1.7832,1.7812,1.7812,1.7832,1.782,1.7812,1.7844,1.7945,1.8002,1.8049,1.8151,1.8188,1.8188,1.8188,1.7817,1.7243,1.7404,1.7626,1.7725,1.8024,1.8188,1.8188,1.8188,1.8188,1.8188,1.8188,1.8188,1.8188,1.8188,1.8188,1.8188,1.8188,1.8188,1.8188,1.8188,1.8188,1.8188,1.8188,1.8188,1.8188,1.8188,1.8188,1.8188,1.8188,1.8188,1.8171,1.8082,1.7921,1.7739,1.7711,1.7679,1.7587,1.7517,1.7343,1.708,1.7202,1.7074,1.664,1.6963,1.714,1.6848,1.7096,1.7346,1.7569,1.7654,1.7648,1.7553,1.7428,1.7305,1.7284,1.729,1.7285,1.7312,1.7413,1.7521,1.7588,1.7688,1.7705,1.7572,1.7455,1.7369,1.762,1.7948,1.8191,1.8137,1.7985,1.7869,1.7823,1.7849,1.7854,1.7853,1.7967,1.8086,1.8031,1.7909,1.7852,1.7878,1.7959,1.8097,1.8079,1.797,1.7959,1.8098,1.8123,1.8161,1.818,1.8188,1.8155,1.8118,1.8142,1.8191,1.8188,1.8188,1.8188,1.8163,1.8155,1.8155,1.8147,1.8163,1.8175,1.8135,1.8163,1.8155,1.8171,1.818,1.8191,1.8188,1.8188,1.8188,1.8164,1.8067,1.8105,1.8098,1.8129,1.8176,1.8188,1.8188,1.8188,1.8188,1.8188,1.8188,1.8188,1.8188,1.8188,1.8188,1.8188,1.8188,1.8188,1.8188,1.8188,1.8188,1.8188,1.8188,1.8188,1.8188,1.8188,1.8188,1.8188,1.8188,1.8188,1.8188,1.8171,1.8079,1.7953,1.7909,1.7817,1.7707,1.765,1.7622,1.7611,1.7532,1.7512,1.7436,1.7459,1.7572,1.7445,1.7446,1.7566,1.7755,1.7818,1.7781,1.7702,1.7656,1.7651,1.7658,1.765,1.7645,1.7617,1.7569,1.7609,1.7674,1.7737,1.7791,1.7707,1.7648,1.7659,1.7722,1.7992,1.8145,1.8181,1.8133,1.8167,1.8147,1.8082,1.8074,1.8014,1.8041,1.8153,1.8133,1.8074,1.8074,1.8074,1.814,1.8183,1.8173,1.8166,1.8175,1.8188,1.8188,1.8188,1.8188,1.8188,1.8188,1.8195,1.8213,1.8503,1.8188,1.8188,1.8188,1.8188,1.8188,1.8188,1.8188,1.8188,1.8188,1.8188,1.8188,1.8188,1.8188,1.8188,1.8188,1.8188,1.8188,1.8188,1.8188,1.8188,1.8188,1.8188,1.8188,1.8188,1.8188,1.8188,1.8188,1.8188,1.8188,1.8196,1.8196,1.8188,1.8212,1.8204,1.8188,1.8204,1.8188,1.8188,1.8207,1.8204,1.8204,1.8204,1.8188,1.8188,1.8207,1.8207,1.8188,1.8188,1.8188,1.8188,1.8188,1.8183,1.8115,1.8106,1.8062,1.8017,1.7896,1.7809,1.7796,1.7695,1.7622,1.7606,1.7658,1.7583,1.7591,1.7679,1.7758,1.7879,1.7995,1.8056,1.8033,1.8022,1.8033,1.8043,1.801,1.7968,1.7853,1.7774,1.7803,1.8005,1.8056,1.8029,1.8014,1.8,1.8005,1.8022,1.81,1.8188,1.8188,1.8188,1.8188,1.8188,1.8155,1.8171,1.8171,1.8171,1.8191,1.8183,1.8155,1.8147,1.8147,1.817,1.8187,1.8191,1.8175,1.818,1.8188,1.8188,1.8188,1.8188,1.8494,1.8614,1.8353,1.8289,1.8919,1.8188,1.8188,1.8188,1.8188,1.8188,1.8188,1.8188,1.8188,1.8188,1.8188,1.8188,1.8188,1.8188,1.8188,1.8188,1.8188,1.8188,1.8188,1.8188,1.8188,1.8188,1.8188,1.8188,1.8188,1.8188,1.8188,1.8196,1.8188,1.8216,1.8272,1.8325,1.8357,1.8383,1.8415,1.8428,1.8403,1.8415,1.8423,1.8403,1.8403,1.8403,1.8403,1.8366,1.8346,1.8325,1.8312,1.8216,1.8188,1.8188,1.8188,1.8188,1.8188,1.8188,1.8188,1.8188,1.8191,1.8079,1.801,1.8014,1.7913,1.7853,1.7844,1.7856,1.7856,1.788,1.7938,1.7987,1.8038,1.8151,1.818,1.8188,1.8188,1.8188,1.817,1.8194,1.8143,1.8014,1.7975,1.8036,1.8144,1.8188,1.8188,1.8188,1.8188,1.8188,1.8188,1.8148,1.8188,1.8188,1.8188,1.8188,1.8188,1.8188,1.8188,1.8188,1.8188,1.8188,1.8188,1.8188,1.8188,1.8188,1.8188,1.8188,1.8188,1.8188,1.8188,1.8199,1.8199,1.8188,1.8351,1.8773,1.9045,1.8864,1.9697,2.0176,1.8188,1.8188,1.8188,1.8188,1.8188,1.8188,1.8188,1.8188,1.8188,1.8188,1.8188,1.8188,1.8188,1.8188,1.8188,1.8188,1.8188,1.8188,1.8235,1.8248,1.8281,1.8313,1.8298,1.8261,1.8264,1.8264,1.8248,1.8281,1.8346,1.8451,1.8504,1.8525,1.8631,1.8692,1.8651,1.8664,1.8696,1.8668,1.8639,1.8631,1.8643,1.8643,1.8602,1.8536,1.8512,1.8455,1.8329,1.8264,1.8248,1.8244,1.8219,1.8188,1.8188,1.8188,1.8188,1.8188,1.8171,1.8163,1.8191,1.8147,1.8175,1.8139,1.8147,1.8188,1.8147,1.8144,1.8144,1.8155,1.8188,1.8188,1.8188,1.8188,1.8188,1.8191,1.8195,1.8191,1.8188,1.8188,1.8188,1.8188,1.8188,1.8188,1.8188,1.8188,1.8188,1.8188,1.8188,1.8188,1.8188,1.8188,1.8188,1.8188,1.8188,1.8188,1.8188,1.8188,1.8188,1.8188,1.8188,1.8188,1.8188,1.8188,1.8188,1.8188,1.8188,1.8199,1.8211,1.8211,1.8566,1.9666,2.0872,2.037,1.9853,2.1531,2.2483,1.8188,1.8188,1.8188,1.8188,1.8188,1.8188,1.8188,1.8188,1.8188,1.8188,1.8188,1.8188,1.8207,1.8196,1.8212,1.8188,1.822,1.824,1.8264,1.8439,1.8538,1.8586,1.8566,1.8492,1.8442,1.8443,1.8541,1.859,1.8603,1.8611,1.8659,1.8668,1.8728,1.8712,1.8729,1.8765,1.8704,1.8704,1.87,1.8749,1.8737,1.8737,1.8716,1.8663,1.8655,1.8647,1.8578,1.8492,1.8431,1.8398,1.8309,1.8228,1.8196,1.8188,1.8188,1.8188,1.8188,1.8188,1.8188,1.8188,1.8188,1.8188,1.8188,1.8188,1.8188,1.8188,1.8188,1.8188,1.8188,1.8188,1.8188,1.8188,1.8188,1.8188,1.8188,1.8188,1.8188,1.8188,1.8188,1.8188,1.8188,1.8188,1.8188,1.8188,1.8188,1.8188,1.8188,1.8188,1.8188,1.8188,1.8188,1.8188,1.8188,1.8188,1.8188,1.8188,1.8188,1.8188,1.8188,1.819,1.819,1.8244,1.8271,1.8244,1.8188,1.8207,1.8225,1.9774,2.0441,2.1749,2.302,2.25,2.2563,2.3897,2.5138,1.8188,1.8188,1.8188,1.8188,1.8188,1.8188,1.8188,1.8188,1.8188,1.8188,1.8224,1.8292,1.8353,1.8361,1.8399,1.8424,1.8424,1.8436,1.8485,1.8594,1.8668,1.8696,1.872,1.8724,1.8695,1.8626,1.8663,1.8708,1.872,1.8785,1.8842,1.8846,1.8923,1.8996,1.8972,1.8964,1.9,1.9,1.8972,1.8984,1.8984,1.8972,1.8915,1.8822,1.8765,1.8704,1.8692,1.8639,1.859,1.857,1.8496,1.8338,1.8212,1.8188,1.8188,1.8188,1.8188,1.8188,1.8188,1.8188,1.8188,1.8188,1.8188,1.8188,1.8188,1.8188,1.8188,1.8188,1.8188,1.8188,1.8188,1.8188,1.8188,1.8188,1.8188,1.8188,1.8188,1.8188,1.8188,1.8188,1.8188,1.8188,1.8188,1.8188,1.8188,1.8188,1.8188,1.8188,1.8188,1.8188,1.8188,1.8188,1.8188,1.8188,1.8188,1.8188,1.8188,1.8188,1.8188,1.8187,1.8193,1.8282,1.8384,1.8379,1.8402,1.8259,1.8574,2.0345,2.3043,2.5696,2.6678,2.5566,2.5098,2.5788,2.6998,1.8188,1.8188,1.8188,1.8188,1.8207,1.8244,1.8248,1.8236,1.8261,1.8318,1.8301,1.8451,1.8516,1.8549,1.8643,1.87,1.8696,1.8729,1.8753,1.8769,1.8834,1.8866,1.8883,1.8952,1.896,1.8806,1.883,1.883,1.8883,1.8939,1.9045,1.9078,1.9196,1.9216,1.9269,1.9293,1.924,1.9224,1.9224,1.9244,1.9253,1.9253,1.9167,1.9041,1.8931,1.8854,1.8838,1.8801,1.8749,1.8737,1.8712,1.8558,1.8378,1.826,1.8252,1.8248,1.822,1.8188,1.8188,1.8188,1.8188,1.8188,1.8188,1.8188,1.8188,1.8188,1.8188,1.8188,1.8188,1.8188,1.8188,1.8188,1.8188,1.8188,1.8188,1.8188,1.8188,1.8188,1.8188,1.8188,1.8188,1.8188,1.8188,1.8188,1.8188,1.8188,1.8188,1.8207,1.8207,1.8196,1.8216,1.8188,1.8188,1.8188,1.8188,1.8301,1.8285,1.8235,1.8222,1.8245,1.8286,1.8559,1.8705,1.8675,1.8631,1.8704,1.9766,2.1988,2.513,2.9087,2.9294,2.7144,2.6956,2.7563,2.8555,1.8188,1.8188,1.8188,1.8188,1.8224,1.8374,1.8447,1.8463,1.855,1.8619,1.8611,1.8651,1.8668,1.8684,1.8692,1.8712,1.8777,1.8883,1.8952,1.8984,1.9065,1.9138,1.9151,1.9167,1.9179,1.922,1.9167,1.9138,1.9159,1.9244,1.9208,1.9244,1.9277,1.9281,1.9289,1.9289,1.9289,1.9289,1.9289,1.9289,1.9289,1.9293,1.9285,1.9208,1.9138,1.9138,1.9114,1.9025,1.8939,1.8923,1.8789,1.8688,1.8623,1.8525,1.8463,1.8414,1.8321,1.8261,1.8253,1.8232,1.8196,1.8188,1.822,1.8232,1.8224,1.82,1.8229,1.8225,1.8217,1.8212,1.8188,1.8186,1.8204,1.8204,1.8228,1.8228,1.8228,1.8225,1.8233,1.8257,1.8236,1.8188,1.8188,1.8188,1.8188,1.8188,1.8188,1.8255,1.8311,1.8291,1.8263,1.8224,1.8188,1.8188,1.8188,1.835,1.8428,1.8322,1.8311,1.8351,1.8503,1.8895,1.9046,1.8942,1.9446,1.9994,2.1543,2.349,2.5896,2.8877,2.8655,2.8046,2.7697,2.7428,2.8412,1.8188,1.8219,1.832,1.8346,1.837,1.8529,1.8602,1.8606,1.8664,1.8704,1.8741,1.8797,1.8858,1.8883,1.8972,1.9004,1.9033,1.9094,1.9151,1.9175,1.9253,1.9289,1.9289,1.9289,1.9289,1.9293,1.9281,1.9289,1.9289,1.9293,1.9289,1.9281,1.9289,1.9289,1.9289,1.9289,1.9289,1.9289,1.9289,1.9289,1.9289,1.9289,1.9289,1.9289,1.9289,1.9289,1.9277,1.9228,1.9163,1.9147,1.9057,1.9017,1.8952,1.8846,1.8692,1.861,1.8513,1.8452,1.846,1.8472,1.8468,1.8457,1.8452,1.8472,1.8437,1.8417,1.8353,1.8373,1.8425,1.8369,1.8211,1.8211,1.8275,1.8425,1.8464,1.8456,1.8428,1.8397,1.84,1.8383,1.831,1.8245,1.8188,1.8188,1.8188,1.8188,1.8192,1.8288,1.8408,1.8483,1.8471,1.8403,1.8387,1.8387,1.8387,1.8496,1.8566,1.8459,1.8488,1.8548,1.8701,1.9084,1.9191,1.9138,1.9882,2.045,2.2305,2.3934,2.6291,2.8117,2.7462,2.7,2.7047,2.7368,2.8221,1.8224,1.8264,1.8446,1.8512,1.8557,1.8708,1.8753,1.8773,1.8802,1.8846,1.885,1.8984,1.9061,1.9114,1.9191,1.9273,1.9289,1.9285,1.9277,1.9277,1.9293,1.9289,1.9289,1.9289,1.9289,1.9289,1.9289,1.9289,1.9289,1.9289,1.9289,1.9289,1.9289,1.9289,1.9289,1.9289,1.9289,1.9289,1.9289,1.9289,1.9289,1.9289,1.9289,1.9289,1.9289,1.9289,1.9281,1.9285,1.9277,1.9265,1.9265,1.9265,1.9256,1.9143,1.8992,1.8838,1.8757,1.8716,1.87,1.8692,1.8651,1.8639,1.868,1.8688,1.8668,1.8579,1.8556,1.8656,1.862,1.8616,1.8428,1.8336,1.8456,1.8636,1.8768,1.8792,1.8676,1.8615,1.8611,1.8546,1.8415,1.8386,1.8391,1.8336,1.8376,1.8191,1.8195,1.8389,1.8528,1.8802,1.8815,1.8694,1.8643,1.8643,1.8651,1.8708,1.8713,1.862,1.8757,1.8891,1.9037,1.9253,1.9249,1.9224,1.9282,2.0066,2.2175,2.4174,2.6184,2.7087,2.6324,2.6074,2.6326,2.6806,2.7545,1.8309,1.8479,1.8503,1.8565,1.8692,1.8883,1.8968,1.8996,1.9134,1.9236,1.9163,1.9236,1.9232,1.9253,1.9256,1.9289,1.9289,1.9289,1.9289,1.9289,1.9289,1.9289,1.9289,1.9289,1.9289,1.9289,1.9289,1.9289,1.9289,1.9289,1.9289,1.9289,1.9289,1.9289,1.9289,1.9289,1.9289,1.9289,1.9289,1.9289,1.9289,1.9289,1.9289,1.9289,1.9289,1.9289,1.9289,1.9289,1.9289,1.9289,1.9289,1.9289,1.9281,1.9285,1.9261,1.9134,1.8939,1.8704,1.8749,1.8773,1.8781,1.8777,1.8753,1.8712,1.8761,1.8773,1.8833,1.9177,1.8941,1.8777,1.8769,1.8692,1.8757,1.8877,1.9047,1.8962,1.8849,1.8874,1.887,1.8846,1.8752,1.8712,1.87,1.8623,1.8544,1.8344,1.824,1.8452,1.8684,1.8956,1.9074,1.8939,1.8874,1.8874,1.8891,1.8935,1.8895,1.8802,1.8947,1.9163,1.9228,1.9294,1.9286,1.9261,1.9335,1.9421,2.0662,2.2788,2.5474,2.6746,2.6873,2.6362,2.5776,2.6348,2.6992,1.8414,1.8528,1.8711,1.8817,1.8903,1.9086,1.9167,1.9183,1.9261,1.9289,1.9289,1.9289,1.9289,1.9289,1.9289,1.9289,1.9289,1.9289,1.9289,1.9289,1.9289,1.9289,1.9289,1.9289,1.9289,1.9289,1.9289,1.9289,1.9289,1.9289,1.9289,1.9289,1.9289,1.9289,1.9289,1.9289,1.9289,1.9289,1.9289,1.9289,1.9289,1.9289,1.9289,1.9289,1.9289,1.9289,1.9289,1.9289,1.9289,1.9289,1.9289,1.9289,1.9289,1.9281,1.9293,1.9285,1.9151,1.9057,1.9037,1.9033,1.9004,1.9021,1.9021,1.9045,1.9029,1.9025,1.9049,1.9253,1.9147,1.9069,1.9086,1.9065,1.9078,1.9155,1.9211,1.9179,1.9082,1.9114,1.9122,1.9106,1.9082,1.9017,1.8927,1.8822,1.8733,1.8624,1.8564,1.8725,1.8919,1.913,1.9187,1.9122,1.9102,1.9102,1.913,1.9155,1.9143,1.9077,1.9077,1.9232,1.9248,1.9285,1.9474,2.0009,2.0553,2.0431,2.0044,2.2057,2.5331,2.6727,2.7811,2.7203,2.6564,2.5956,2.7054,1.8565,1.8662,1.8899,1.9017,1.9086,1.9224,1.9281,1.9281,1.9281,1.9289,1.9289,1.9289,1.9289,1.9289,1.9289,1.9289,1.9289,1.9289,1.9289,1.9289,1.9289,1.9289,1.9289,1.9289,1.9289,1.9289,1.9289,1.9289,1.9289,1.9289,1.9289,1.9289,1.9289,1.9289,1.9289,1.9289,1.9289,1.9289,1.9289,1.9289,1.9289,1.9289,1.9289,1.9289,1.9289,1.9289,1.9289,1.9289,1.9289,1.9289,1.9289,1.9289,1.9289,1.9289,1.9289,1.9281,1.9232,1.924,1.9232,1.924,1.9281,1.9289,1.9289,1.9232,1.9248,1.9289,1.9293,1.9289,1.9273,1.9256,1.9281,1.9265,1.9253,1.9236,1.9277,1.9285,1.9281,1.9249,1.9224,1.9208,1.9187,1.9228,1.9134,1.8992,1.8903,1.887,1.8915,1.9008,1.9126,1.9277,1.9257,1.9208,1.9208,1.9212,1.9236,1.9269,1.9281,1.9289,1.9289,1.9289,1.9289,1.9672,2.0075,2.0736,2.186,2.2144,2.2188,2.3667,2.5259,2.7727,2.9415,2.8332,2.7531,2.6899,2.7377,1.8801,1.8972,1.8996,1.9102,1.9269,1.9281,1.9289,1.9289,1.9289,1.9289,1.9289,1.9289,1.9289,1.9289,1.9289,1.9289,1.9289,1.9289,1.9289,1.9289,1.9289,1.9289,1.9289,1.9289,1.9289,1.9289,1.9289,1.9289,1.9289,1.9289,1.9289,1.9289,1.9289,1.9289,1.9289,1.9289,1.9289,1.9289,1.9289,1.9289,1.9289,1.9289,1.9289,1.9289,1.9289,1.9289,1.9289,1.9289,1.9289,1.9289,1.9289,1.9289,1.9289,1.9289,1.9289,1.9289,1.9289,1.9289,1.9289,1.9289,1.9289,1.9289,1.9289,1.9289,1.9289,1.9289,1.9289,1.9289,1.9289,1.9289,1.9289,1.9289,1.9289,1.9289,1.9289,1.9289,1.9289,1.9281,1.9277,1.9281,1.9289,1.9289,1.9281,1.913,1.9098,1.9053,1.9061,1.9155,1.9175,1.9293,1.9289,1.9265,1.9265,1.9265,1.9273,1.9289,1.9289,1.9289,1.9289,1.9289,1.9289,1.9882,2.1556,2.268,2.3953,2.4148,2.4679,2.6273,2.8067,3.0268,3.1035,2.99,2.9646,2.9562,2.9884,1.8923,1.9021,1.9126,1.9228,1.9289,1.9289,1.9289,1.9289,1.9289,1.9289,1.9289,1.9289,1.9289,1.9289,1.9289,1.9289,1.9289,1.9289,1.9289,1.9289,1.9289,1.9289,1.9289,1.9289,1.9289,1.9289,1.9289,1.9289,1.9289,1.9289,1.9289,1.9289,1.9289,1.9289,1.9289,1.9289,1.9289,1.9289,1.9289,1.9289,1.9289,1.9289,1.9289,1.9289,1.9289,1.9289,1.9289,1.9289,1.9289,1.9289,1.9289,1.9289,1.9289,1.9289,1.9289,1.9289,1.9289,1.9289,1.9289,1.9289,1.9289,1.9289,1.9289,1.9289,1.9289,1.9289,1.9289,1.9289,1.9289,1.9289,1.9289,1.9289,1.9289,1.9289,1.9289,1.9289,1.9289,1.9289,1.9289,1.9289,1.9289,1.9289,1.9289,1.9273,1.9265,1.9265,1.9281,1.9289,1.9289,1.9289,1.9289,1.9289,1.9289,1.9289,1.9289,1.9289,1.9289,1.9289,1.9289,1.9285,1.9618,2.2703,2.4229,2.5258,2.59,2.6068,2.6976,2.8847,3.032,3.1358,3.169,3.1416,3.1533,3.1712,3.1712,1.9025,1.9102,1.9232,1.9289,1.9289,1.9289,1.9289,1.9289,1.9289,1.9289,1.9289,1.9289,1.9289,1.9289,1.9289,1.9289,1.9289,1.9289,1.9289,1.9289,1.9289,1.9289,1.9289,1.9289,1.9289,1.9289,1.9289,1.9289,1.9289,1.9289,1.9289,1.9289,1.9289,1.9289,1.9289,1.9289,1.9289,1.9289,1.9289,1.9289,1.9289,1.9289,1.9289,1.9289,1.9289,1.9289,1.9289,1.9289,1.9289,1.9289,1.9289,1.9289,1.9289,1.9289,1.9289,1.9289,1.9289,1.9289,1.9289,1.9289,1.9289,1.9289,1.9289,1.9289,1.9289,1.9289,1.9289,1.9289,1.9289,1.9289,1.9289,1.9289,1.9289,1.9289,1.9289,1.9289,1.9289,1.9289,1.9289,1.9289,1.9301,1.9318,1.9289,1.9289,1.9289,1.9289,1.9289,1.9289,1.9289,1.9289,1.9289,1.9289,1.9289,1.9289,1.9289,1.9289,1.9289,1.9289,1.9293,1.9289,2.0341,2.3591,2.6642,2.8063,2.8428,2.8176,2.8942,3.034,3.1039,3.1609,3.1709,3.1712,3.1712,3.1712,3.1712,1.9118,1.9273,1.9293,1.9289,1.9289,1.9289,1.9289,1.9289,1.9289,1.9289,1.9289,1.9289,1.9289,1.9289,1.9289,1.9289,1.9289,1.9289,1.9289,1.9289,1.9289,1.9289,1.9289,1.9289,1.9289,1.9289,1.9289,1.9289,1.9289,1.9289,1.9289,1.9289,1.9289,1.9289,1.9289,1.9289,1.9289,1.9289,1.9289,1.9289,1.9289,1.9289,1.9289,1.9289,1.9289,1.9289,1.9289,1.9289,1.9289,1.9289,1.9289,1.9289,1.9289,1.9289,1.9289,1.9289,1.9289,1.9289,1.9289,1.9289,1.9289,1.9289,1.9289,1.9289,1.9289,1.9289,1.9289,1.9289,1.9289,1.9289,1.9289,1.9285,1.9289,1.9491,1.954,2.0242,2.0381,2.0743,2.1041,2.0977,2.0025,1.9367,1.9318,1.9289,1.9289,1.9289,1.9289,1.9289,1.9289,1.9289,1.9289,1.9289,1.9289,1.9289,1.9289,1.9289,1.9289,1.9314,1.9285,1.929,2.1049,2.4298,2.7243,3.0043,3.034,2.9529,3.0424,3.1592,3.1718,3.1709,3.1718,3.1712,3.1712,3.1712,3.1712,1.9236,1.9289,1.9289,1.9289,1.9289,1.9289,1.9289,1.9289,1.9289,1.9289,1.9289,1.9289,1.9289,1.9289,1.9289,1.9289,1.9289,1.9289,1.9289,1.9289,1.9289,1.9289,1.9289,1.9289,1.9289,1.9289,1.9289,1.9289,1.9289,1.9289,1.9289,1.9289,1.9289,1.9289,1.9289,1.9289,1.9289,1.9289,1.9289,1.9289,1.9289,1.9289,1.9289,1.9289,1.9289,1.9289,1.9289,1.9289,1.9289,1.9289,1.9289,1.9289,1.9289,1.9289,1.9289,1.9289,1.9289,1.9289,1.9289,1.9289,1.9289,1.9289,1.9289,1.9289,1.9289,1.9289,1.9289,1.9404,1.9577,1.954,1.9289,1.9302,1.9462,2.0148,2.0736,2.2317,2.2997,2.3535,2.3837,2.3433,2.2711,2.0878,2.0148,1.947,1.9289,1.9289,1.9285,1.9281,1.9289,1.9289,1.9289,1.9289,1.9289,1.9289,1.9363,2.0026,2.072,2.1142,2.0281,1.9285,2.171,2.5267,2.8186,3.1162,3.1056,3.089,3.1343,3.1712,3.1712,3.1712,3.1712,3.1712,3.1712,3.1712,3.1712,1.9289,1.9289,1.9289,1.9289,1.9289,1.9289,1.9289,1.9289,1.9289,1.9289,1.9289,1.9289,1.9289,1.9289,1.9289,1.9289,1.9289,1.9289,1.9289,1.9289,1.9289,1.9289,1.9289,1.9289,1.9289,1.9289,1.9289,1.9289,1.9289,1.9289,1.9289,1.9289,1.9289,1.9289,1.9289,1.9289,1.9289,1.9289,1.9289,1.9289,1.9289,1.9289,1.9289,1.9289,1.9289,1.9289,1.9289,1.9289,1.9289,1.9289,1.9289,1.9289,1.9289,1.9289,1.9289,1.9289,1.9289,1.9289,1.9289,1.9289,1.9289,1.9289,1.9301,1.9289,1.9289,1.9289,1.9927,2.0173,2.0259,2.0915,2.1217,2.1015,2.0462,2.118,2.4145,2.5811,2.6294,2.6858,2.544,2.5125,2.4664,2.2835,2.129,1.9929,1.929,1.9286,1.9293,1.9384,1.9441,1.9338,1.9326,1.9289,1.9289,1.9289,2.0125,2.1482,2.2177,2.2908,2.2073,2.0946,2.3301,2.695,2.9606,3.171,3.1448,3.1319,3.1509,3.1712,3.1712,3.1712,3.1712,3.1712,3.1712,3.1712,3.1712,1.9289,1.9289,1.9289,1.9289,1.9289,1.9289,1.9289,1.9289,1.9289,1.9289,1.9289,1.9289,1.9289,1.9289,1.9289,1.9289,1.9289,1.9289,1.9289,1.9289,1.9289,1.9289,1.9289,1.9289,1.9289,1.9289,1.9289,1.9289,1.9289,1.9289,1.9289,1.9289,1.9289,1.9289,1.9289,1.9289,1.9289,1.9289,1.9289,1.9289,1.9289,1.9289,1.9289,1.9289,1.9289,1.9289,1.9289,1.9289,1.9289,1.9289,1.9289,1.9289,1.9289,1.9289,1.9289,1.9289,1.9289,1.9289,1.9355,1.9367,1.9935,2.0194,2.0148,1.9701,1.9429,1.9676,2.0632,2.1594,2.2148,2.3675,2.4688,2.3317,2.2023,2.4964,2.8668,2.972,2.9987,2.9164,2.7115,2.6286,2.6069,2.4967,2.3949,2.2546,2.0986,1.929,1.9552,2.0506,2.0366,1.9474,1.9425,1.9289,1.9289,1.9289,2.0421,2.2109,2.3341,2.3983,2.4608,2.4228,2.6618,2.832,3.0297,3.1699,3.1717,3.1712,3.1712,3.1712,3.1712,3.1712,3.1712,3.1712,3.1712,3.1712,3.1712,1.9289,1.9289,1.9289,1.9289,1.9289,1.9289,1.9289,1.9289,1.9289,1.9289,1.9289,1.9289,1.9289,1.9289,1.9289,1.9289,1.9289,1.9289,1.9289,1.9289,1.9289,1.9289,1.9289,1.9289,1.9289,1.9289,1.9289,1.9289,1.9289,1.9289,1.9289,1.9289,1.9289,1.9289,1.9289,1.9289,1.9289,1.9289,1.9289,1.9289,1.9289,1.9289,1.9289,1.9289,1.9289,1.9289,1.9289,1.9289,1.9289,1.9289,1.9289,1.9289,1.9289,1.9289,1.9289,1.9289,1.9289,1.9318,1.954,2.0669,2.1808,2.2477,2.2987,2.1581,2.0841,2.0694,2.1817,2.2948,2.4152,2.5572,2.6575,2.5813,2.5613,2.8236,3.0874,3.1052,3.1233,3.0653,2.8764,2.8596,2.832,2.7263,2.6299,2.5596,2.3854,2.0954,1.9898,2.1186,2.144,2.0604,2.0481,2.0419,1.9478,1.9536,2.092,2.2591,2.3918,2.5022,2.5927,2.7182,2.9026,3.0484,3.1369,3.1715,3.1701,3.1712,3.1712,3.1712,3.1712,3.1712,3.1712,3.1712,3.1712,3.1712,3.1712,1.9289,1.9289,1.9289,1.9289,1.9289,1.9289,1.9289,1.9289,1.9289,1.9289,1.9289,1.9289,1.9289,1.9289,1.9289,1.9289,1.9289,1.9289,1.9289,1.9289,1.9289,1.9289,1.9289,1.9289,1.9289,1.9289,1.9289,1.9289,1.9289,1.9289,1.9289,1.9289,1.9289,1.9289,1.9289,1.9289,1.9289,1.9289,1.9289,1.9289,1.9289,1.9289,1.9289,1.9289,1.9289,1.9289,1.9289,1.9289,1.9289,1.9289,1.9289,1.9289,1.9289,1.9289,1.9289,1.9289,1.9289,1.9285,1.9585,2.1232,2.3613,2.5531,2.5902,2.373,2.2928,2.2672,2.3746,2.4851,2.6082,2.7238,2.7984,2.8751,2.9963,3.1308,3.1506,3.1655,3.169,3.1678,3.1426,3.1272,3.0533,2.9434,2.8632,2.8007,2.7476,2.5825,2.4026,2.3223,2.3123,2.213,2.2368,2.2735,2.1063,1.991,2.1649,2.3639,2.512,2.6768,2.832,2.9695,3.1426,3.1712,3.1714,3.1714,3.1712,3.1712,3.1712,3.1712,3.1712,3.1712,3.1712,3.1712,3.1712,3.1712,3.1712,1.9289,1.9289,1.9289,1.9289,1.9289,1.9289,1.9289,1.9289,1.9289,1.9289,1.9289,1.9289,1.9289,1.9289,1.9289,1.9289,1.9289,1.9289,1.9289,1.9289,1.9289,1.9289,1.9289,1.9289,1.9289,1.9289,1.9289,1.9289,1.9289,1.9289,1.9289,1.9289,1.9289,1.9289,1.9289,1.9289,1.9289,1.9289,1.9289,1.9289,1.9289,1.9289,1.9289,1.9289,1.9289,1.9289,1.9289,1.9289,1.9289,1.9289,1.9289,1.9289,1.9289,1.9289,1.9289,1.9614,1.9738,1.9585,2.0402,2.218,2.6249,2.8003,2.8234,2.6503,2.5844,2.5202,2.6023,2.6579,2.7672,2.9015,2.9923,3.021,3.1097,3.1555,3.1637,3.0738,2.9613,2.9577,2.9482,2.9422,2.9207,2.8416,2.8752,2.8079,2.9649,2.9563,2.7631,2.548,2.5094,2.401,2.375,2.4433,2.3313,2.2197,2.3777,2.5595,2.6819,2.8404,2.991,3.0805,3.1545,3.1712,3.1712,3.1712,3.1712,3.1712,3.1712,3.1712,3.1712,3.1712,3.1712,3.1712,3.1712,3.1712,3.1712,1.9289,1.9289,1.9289,1.9289,1.9289,1.9289,1.9289,1.9289,1.9289,1.9289,1.9289,1.9289,1.9289,1.9289,1.9289,1.9289,1.9289,1.9289,1.9289,1.9289,1.9289,1.9289,1.9289,1.9289,1.9289,1.9289,1.9289,1.9289,1.9289,1.9289,1.9289,1.9289,1.9289,1.9289,1.9289,1.9289,1.9289,1.9289,1.9289,1.9289,1.9289,1.9289,1.9289,1.9289,1.9289,1.9289,1.9289,1.9289,1.9289,1.9289,1.9289,1.9289,1.9289,1.9326,1.9318,1.954,2.0808,2.0848,2.1466,2.3878,2.8042,3.015,3.0555,3.0249,2.9565,2.8512,2.8104,2.8488,2.9241,3.0602,3.1486,3.1606,3.1702,3.1707,3.136,2.9446,2.7672,2.7756,2.7636,2.7588,2.754,2.7683,2.8152,2.9175,3.1049,3.0053,2.7319,2.5769,2.677,2.6347,2.4758,2.5111,2.5414,2.5176,2.6527,2.7514,2.8716,2.9278,3.0376,3.1116,3.1689,3.1712,3.1712,3.1712,3.1712,3.1712,3.1712,3.1712,3.1712,3.1712,3.1712,3.1712,3.1712,3.1712,3.1712,1.9289,1.9289,1.9289,1.9289,1.9289,1.9289,1.9289,1.9289,1.9289,1.9289,1.9289,1.9289,1.9289,1.9289,1.9289,1.9289,1.9289,1.9289,1.9289,1.9289,1.9289,1.9289,1.9289,1.9289,1.9289,1.9289,1.9289,1.9289,1.9289,1.9289,1.9289,1.9289,1.9289,1.9289,1.9289,1.9289,1.9289,1.9289,1.9289,1.9289,1.9289,1.9289,1.9289,1.9289,1.9289,1.9289,1.9289,1.9289,1.9289,1.9289,1.9289,1.9289,1.9602,2.0296,2.0694,2.1336,2.2313,2.3291,2.3668,2.5825,2.9567,3.0993,3.1699,3.0997,3.102,3.0067,2.9983,3.034,3.0411,3.158,3.1592,3.1689,3.1714,3.1704,2.9928,2.7843,2.857,2.9829,2.9756,2.9744,2.9038,2.7686,2.7805,2.7158,2.8464,2.7519,2.5147,2.3182,2.4688,2.723,2.605,2.5728,2.6016,2.7538,2.9147,2.988,3.0555,3.0971,3.0771,3.1296,3.1712,3.1712,3.1712,3.1712,3.1712,3.1712,3.1712,3.1712,3.1712,3.1712,3.1712,3.1712,3.1712,3.1712,3.1712,1.9289,1.9289,1.9289,1.9289,1.9289,1.9289,1.9289,1.9289,1.9289,1.9289,1.9289,1.9289,1.9289,1.9289,1.9289,1.9289,1.9289,1.9289,1.9289,1.9289,1.9289,1.9289,1.9289,1.9289,1.9289,1.9289,1.9289,1.9289,1.9289,1.9289,1.9289,1.9289,1.9289,1.9289,1.9289,1.9289,1.9289,1.9289,1.9289,1.9289,1.9289,1.9289,1.9289,1.9289,1.9289,1.9289,1.9289,1.9289,1.9289,1.9289,1.9355,1.9725,2.0309,2.1275,2.227,2.3043,2.4725,2.5293,2.5723,2.7506,2.9827,3.1189,3.1533,3.1712,3.1689,3.164,3.1557,3.1569,3.1652,3.1689,3.1712,3.1712,3.1712,3.1502,2.9248,2.7368,2.9344,3.0808,3.0604,3.0603,2.9395,2.7735,2.7077,2.6347,2.5036,2.4102,2.2742,2.0751,2.0366,2.3619,2.489,2.5591,2.6543,2.8476,3.0045,3.1054,3.1099,3.085,3.058,3.1236,3.1712,3.1712,3.1712,3.1712,3.1712,3.1712,3.1712,3.1712,3.1712,3.1712,3.1712,3.1712,3.1712,3.1712,3.1712,1.9289,1.9289,1.9289,1.9289,1.9289,1.9289,1.9289,1.9289,1.9289,1.9289,1.9289,1.9289,1.9289,1.9289,1.9289,1.9289,1.9289,1.9289,1.9289,1.9289,1.9289,1.9289,1.9297,1.9322,1.9289,1.9322,1.9346,1.9309,1.9338,1.9313,1.9289,1.9289,1.9289,1.9289,1.9289,1.9289,1.9289,1.9289,1.9289,1.9289,1.9289,1.9289,1.9289,1.9289,1.9289,1.9289,1.9289,1.9289,1.9289,1.9289,1.9404,2.0173,2.1275,2.2332,2.3421,2.5149,2.6841,2.7098,2.7806,2.9288,3.1067,3.1426,3.1712,3.1712,3.1701,3.1701,3.164,3.164,3.1701,3.1701,3.1712,3.1712,3.1714,3.1706,3.0384,2.9362,2.9806,2.898,2.8044,2.8056,2.7684,2.6809,2.6448,2.4908,2.2499,2.1661,2.0986,1.931,1.9493,2.156,2.3777,2.4935,2.6312,2.6302,2.6646,2.9822,3.051,3.0311,3.0484,3.126,3.1712,3.1712,3.1712,3.1712,3.1712,3.1712,3.1712,3.1712,3.1712,3.1712,3.1712,3.1712,3.1712,3.1712,3.1712]}]]